     2              OBSERVATION DATA    GPS                 RINEX VERSION / TYPE
teqc 2002Apr3 20040909 19:21:49UTC                          PGM / RUN BY / DATE
                                                            COMMENT
L2: 1 -> 1; 150 -> 5; 250 -> 9                              COMMENT
L2: 1 -> 1; 150 -> 5; 250 -> 9                              COMMENT
L2: 1 -> 1; 150 -> 5; 250 -> 9                              COMMENT
L2: 1 -> 1; 150 -> 5; 250 -> 9                              COMMENT
L2: 1 -> 1; 150 -> 5; 250 -> 9                              COMMENT
Original Marker Name: LUCS                                  COMMENT
Campaign Name: SBVC December 2003                           COMMENT
4-Character Station Name: LUCS                              COMMENT
6-Character Antenna Code: DMRCHT                            COMMENT
Vertical Measurement Point: BPA                             COMMENT
Vertical Offset to Rinex Ref. Point: 0.0000                 COMMENT
Radial Measurement Point: RRP                               COMMENT
Radial Offset to Rinex Ref. Point: 0.0000                   COMMENT
Antenna Height from Field Measurement: 1.5000 m             COMMENT
Additional Antenna Identification Info.:                    COMMENT
Turborogue and Ashtech Choke Ring                           COMMENT
Antenna not level on base. Receiver dipping 1.5             COMMENT
deg to SW                                                   COMMENT
Original XYZ: -2381299.7806 -4697469.9333 3587264.4301      COMMENT
New XYZ position is based on association with SCEC monument COMMENT
E1F2D1A3+0011. Position of that monument is believed to be  COMMENT
valid to within 1 m horizontally; vertical accuracy         COMMENT
should be no worse than 3-times this value.                 COMMENT
                                                            COMMENT
Revised Rinex header created by UCSD GPS archive for        COMMENT
GSAC on 09-Nov-2004 (2004:314) 22:54:46 GMT                 COMMENT
For assistance contact dagnew@ucsd.edu                      COMMENT
or anderson@python.ucsd.edu                                 COMMENT
                                                            COMMENT
LUCERNE SOUTH                                               MARKER NAME
KAH CAL STATE SAN BERNARDINO                                OBSERVER / AGENCY
2403 ASHTECH Z-XII3 CD00                                    REC # / TYPE / VERS
2407 DORNE-MARGOL. TYPE T                                   ANT # / TYPE
 -2381299.0000 -4697467.0000  3587259.0000                  APPROX POSITION XYZ
        1.5000        0.0000        0.0000                  ANTENNA: DELTA H/E/N
     1     1     0                                          WAVELENGTH FACT L1/2
     7    C1    L1    L2    P1    P2    S1    S2            # / TYPES OF OBSERV
     0                                                      INTERVAL
  2003    12    17    17     7    0.000000                  TIME OF FIRST OBS
  2003    12    17    23    19    0.000000                  TIME OF LAST OBS
                                                            END OF HEADER
 03 12 17 17  7  0.0000000  0  8G 1G31G 3G28G27G 8G10G13
                     75489.22249     41700.44243
       212.0004         74.0004
                     23647.72649     13184.83746                  17706540.4874
       236.0004        170.0004
                     34471.47949      5503.28543
       209.0004         74.0004
                    -33867.91049    -19117.06146                  18207830.2784
       239.0004        173.0004
                      -327.16149      -172.24146                  16917720.4674
       243.0004        187.0004
                    -30814.10449    -15603.60546                  17261920.4364
       240.0004        179.0004
                     18550.80349     11039.49643
       210.0004         74.0004
                     36390.06149     18720.67645                  17968188.8814
       240.0004        158.0004
 03 12 17 17  7 30.0000000  0  8G 1G31G 3G28G27G 8G10G13
                    187862.80649    129264.15743
       217.0004         74.0004
  17713377.5094      59598.57349     41198.42147  17713376.9044   17713381.6634
       237.0004        189.0004
                    127765.89849     78200.84743
       210.0004         74.0004
  18198094.3894     -85013.99549    -58971.18047  18198093.9124   18198097.7704
       239.0004        192.0004
  16917666.4974       -589.68649      -376.85847  16917666.2034   16917670.3624
       243.0004        205.0004
  17253962.9254     -72609.94749    -48171.82547  17253962.2904   17253967.1834
       240.0004        197.0004
                     40388.27449     28055.32244                  20212787.3094
       213.0004        114.0004
  17984783.5784     123620.36349     86692.26447  17984783.9934   17984788.1034
       241.0004        193.0004
 03 12 17 17  8  0.0000000  0  8G 1G31G 3G28G27G 8G10G13
                    300515.38949    217045.21445                  24304043.4774
       218.0004        147.0004
  21617668.8354      96327.41249     69818.25247  21617668.6994   21617673.5974
       236.0004        192.0004
                    221513.31649    151251.30143
       211.0004         74.0004
  22085759.7884    -135654.28049    -98431.14147  22085759.3374   22085763.3654
       239.0004        195.0004
  20814993.5474       -456.58249      -273.16847  20814993.3704   20814997.6824
       243.0004        208.0004
  21143381.8984    -114035.19849    -80451.25547  21143381.3524   21143386.2064
       240.0004        200.0004
  24114364.7294      62889.98949     45589.06145  24114364.3934   24114371.1954
       212.0004        143.0004
  21898785.9054     211377.91149    155074.72147  21898785.8264   21898789.5604
       241.0004        197.0004
 03 12 17 17  8 29.9990000  0  8G 1G31G 3G28G27G 8G10G13
  24025761.8524     413596.70549    305160.32245  24025761.9614   24025770.1494
       221.0004        157.0004
  21325029.8554     133919.27049     99110.57047  21325029.8894   21325034.0034
       237.0004        192.0004
                    315846.77949       608.59443
       212.0004         74.0004
  21776428.6934    -185778.49949   -137488.98847  21776428.5924   21776432.3804
       239.0004        195.0004
  20515312.4654        127.69549       182.07147  20515312.1054   20515316.4214
       242.0004        208.0004
  20835780.7634    -155070.25449   -112426.64547  20835780.3494   20835785.3964
       240.0004        201.0004
  23818995.9674      86128.09749     63696.62045  23818995.1334   23819000.2054
       211.0004        147.0004
  21615817.6504     299790.88849    223967.89347  21615817.8414   21615821.5494
       241.0004        198.0004
 03 12 17 17  9  0.0000000  0  8G 1G31G 3G28G27G 8G10G13
  24112141.2104    -707894.88649   -568729.40045  24112140.8324   24112149.8804
       221.0004        159.0004
  21397133.3184   -1062595.44149   -833238.58747  21397133.0634   21397137.3514
       236.0004        192.0004
                   -824228.00149   -887760.97143
       212.0004         74.0004
  21831781.2154   -1470319.39349  -1138429.93947  21831780.8934   21831784.9984
       239.0004        195.0004
  20580298.2474   -1233789.62049   -961311.96847  20580297.9064   20580302.6234
       243.0004        209.0004
  20892838.4354   -1430650.93649  -1106385.62347  20892837.8994   20892842.6164
       240.0004        201.0004
  23888344.4554   -1124861.42849   -879931.63845  23888343.5144   23888349.7154
       212.0004        147.0004
  21697548.4434    -846131.44749   -668958.64847  21697548.7904   21697552.6014
       241.0004        198.0004
 03 12 17 17  9 30.0000000  0  8G 1G31G 3G28G27G 8G10G13
  24132729.5174    -599702.75749   -484424.03745  24132729.0494   24132737.5564
       218.0004        159.0004
  21403534.8754   -1028955.29949   -807025.51847  21403534.6214   21403539.2584
       236.0004        192.0004
                   -734454.00849   -817807.37343
       211.0004         74.0004
  21821373.9724   -1525009.67049  -1181045.73247  21821373.4184   21821377.2924
       239.0004        195.0004
  20579508.0514   -1237942.68849   -964548.14847  20579507.8634   20579512.1104
       243.0004        209.0004
  20884111.8754   -1476509.37849  -1142119.48247  20884111.2414   20884116.2294
       240.0004        201.0004
  23891968.3964   -1105816.61049   -865091.56945  23891967.0154   23891973.7304
       212.0004        147.0004
  21713533.2934    -762131.24349   -603503.98847  21713533.7234   21713537.2244
       241.0004        197.0004
 03 12 17 17 10  0.0000000  0  8G 1G31G 3G28G27G 8G10G13
  24153344.4384    -491372.23549   -400010.81345  24153344.1284   24153352.9894
       216.0004        158.0004
  21410052.2104    -994706.43449   -780338.12847  21410051.8404   21410056.5384
       236.0004        191.0004
                   -644377.24949   -747617.85645                  24441745.9414
       211.0004        135.0004
  21811024.4904   -1579396.56949  -1223425.13647  21811023.9824   21811027.9854
       239.0004        196.0004
  20578759.4924   -1241876.43249   -967613.42947  20578759.3714   20578763.6624
       243.0004        209.0004
  20875418.7904   -1522191.85849  -1177716.22747  20875418.2194   20875422.7954
       240.0004        201.0004
  23895685.2134   -1086284.63249   -849871.90645  23895684.1424   23895690.0234
       211.0004        147.0004
  21729589.7604    -677754.22549   -537755.72347  21729590.0984   21729593.3774
       241.0004        197.0004
 03 12 17 17 10 30.0000000  0  9G 1G31G 3G29G28G27G 8G10G13
  24173985.2414    -382904.62549   -315490.79445  24173984.5094   24173993.4524
       213.0004        154.0004
  21416685.3154    -959849.25849   -753176.72247  21416684.9284   21416689.4804
       236.0004        191.0004
  24458936.9744    -553999.35649   -677193.64545  24458937.5704   24458943.1714
       207.0004        142.0004
  24859687.9104   -1981034.12549  -1532691.04544  24859689.0354   24859694.7924
       201.0004        129.0004
  21800732.8814   -1633479.52149  -1265567.69547  21800732.7074   21800736.4024
       239.0004        196.0004
  20578053.0414   -1245588.87449   -970506.25947  20578052.8804   20578057.0214
       243.0004        209.0004
  20866759.5684   -1567696.28749  -1213174.22547  20866759.1334   20866763.9104
       241.0004        201.0004
  23899494.5974   -1066266.17149   -834273.16045  23899494.6844   23899500.0124
       213.0004        147.0004
  21745717.7514    -593001.67749   -471714.83247  21745717.8234   21745721.6214
       240.0004        196.0004
 03 12 17 17 11  0.0000000  0  9G 1G31G 3G29G28G27G 8G10G13
  24194650.8244    -274305.45449   -230868.27445  24194650.7924   24194658.8604
       209.0004        150.0004
  21423433.3554    -924388.34449   -725544.87847  21423433.3764   21423437.6764
       236.0004        191.0004
  24476191.5764    -463326.61149   -606539.69345  24476192.7844   24476199.1324
       208.0004        142.0004
  24840568.3484   -2081508.51349  -1610982.75344  24840567.4934   24840572.8274
       202.0004        130.0004
  21790498.5374   -1687261.59249  -1307475.79847  21790497.9424   21790502.0154
       239.0004        196.0004
  20577388.2594   -1249082.36549   -973228.48047  20577388.2414   20577392.4784
       243.0004        209.0004
  20858133.7714   -1613025.40649  -1248495.62147  20858133.5354   20858137.9334
       240.0004        202.0004
  23903395.7074   -1045766.10549   -818299.14445  23903395.3744   23903401.7584
       213.0004        149.0004
  21761916.0344    -507879.08149   -405385.58947  21761916.2694   21761920.0094
       240.0004        196.0004
 03 12 17 17 11 30.0000000  0  9G 1G31G 3G29G28G27G 8G10G13
  24215342.0464    -165572.76549   -146141.71245  24215340.0994   24215349.9014
       206.0004        147.0004
  21430296.8144    -888320.73749   -697440.28647  21430296.7644   21430301.1564
       237.0004        192.0004
  24493502.5024    -372357.31849   -535654.64245  24493500.7024   24493509.1684
       203.0004        137.0004
  24821470.6744   -2181868.28249  -1689185.13444  24821470.9234   24821476.9914
       203.0004        131.0004
  21780322.1974   -1740738.67849  -1349146.25147  21780321.6974   21780325.5604
       239.0004        196.0004
  20576766.2934   -1252351.37049   -975775.77747  20576766.1414   20576770.4844
       243.0004        209.0004
  20849542.4174   -1658173.41249  -1283675.88547  20849541.7534   20849546.5454
       241.0004        202.0004
  23907388.8964   -1024781.97249   -801947.91545  23907388.1904   23907395.1444
       213.0004        148.0004
  21778185.2274    -422384.05749   -338766.14647  21778185.3464   21778189.4294
       240.0004        196.0004
 03 12 17 17 12  0.0000000  0  9G 1G31G 3G29G28G27G 8G10G13
  24236057.8654     -56710.13249    -61313.87245  24236056.8074   24236065.9474
       208.0004        144.0004
  21437275.2884    -851649.17749   -668865.07047  21437275.3634   21437279.6374
       237.0004        192.0004
  24510868.8104    -281095.10549   -464541.39245  24510868.4294   24510876.3224
       203.0004        133.0004
  24802394.7324   -2282112.49849  -1767297.50845  24802394.8894   24802399.6004
       206.0004        134.0004
  21770203.6244   -1793912.13549  -1390580.10247  21770203.5224   21770207.2814
       238.0004        196.0004
  20576186.8704   -1255396.42949   -978148.55947  20576186.6724   20576190.9584
       243.0004        209.0004
  20840985.3414   -1703141.00149  -1318715.55847  20840985.0464   20840989.6414
       240.0004        202.0004
  23911473.6344   -1003316.66749   -785221.78245  23911473.6114   23911479.4664
       214.0004        149.0004
  21794524.5444    -336520.18549   -271859.28547  21794524.8144   21794528.9794
       239.0004        196.0004
 03 12 17 17 12 30.0000000  0  9G 1G31G 3G29G28G27G 8G10G13
  24256798.3614      52280.76049     23613.90745  24256797.0194   24256807.3164
       206.0004        141.0004
  21444368.5744    -814374.25049   -639819.70947  21444368.4834   21444372.7984
       236.0004        192.0004
  24528290.8814    -189542.09549   -393201.52144  24528290.3884   24528298.9844
       197.0004        131.0004
  24783341.4484   -2382238.19149  -1845317.52845  24783341.4604   24783346.7724
       206.0004        136.0004
  21760143.0304   -1846781.15149  -1431776.72847  21760142.6074   21760146.5084
       239.0004        196.0004
  20575650.4124   -1258215.78449   -980345.47747  20575650.0444   20575654.6814
       243.0004        209.0004
  20832462.9894   -1747926.55049  -1353613.38947  20832462.5164   20832467.2694
       241.0004        202.0004
  23915649.8514    -981371.19249   -768121.45345  23915649.0314   23915655.6954
       214.0004        149.0004
  21810933.8324    -250288.77149   -204666.01847  21810934.0454   21810937.7444
       239.0004        195.0004
 03 12 17 17 13  0.0000000  0  9G 1G31G 3G29G28G27G 8G10G13
  24277562.0884     161396.86549    108639.23245  24277562.6534   24277568.9454
       208.0004        138.0004
  21451576.1584    -776498.36749   -610306.06347  21451575.7634   21451580.8394
       236.0004        192.0004
  24545767.6134     -97701.70349   -321637.69244  24545768.1984   24545774.0324
       197.0004        126.0004
  24764311.2864   -2482243.89949  -1923244.03645  24764309.2554   24764316.8204
       205.0004        138.0004
  21750140.0674   -1899346.99849  -1472737.11847  21750139.4024   21750143.5024
       239.0004        196.0004
  20575156.8964   -1260809.11749   -982366.27347  20575156.6154   20575161.1514
       243.0004        209.0004
  20823975.2964   -1792529.90849  -1388369.25047  20823974.7324   20823979.3514
       241.0004        202.0004
  23919916.9384    -958948.17049   -750649.03245  23919915.8874   23919921.8774
       213.0004        149.0004
  21827412.4384    -163692.88049   -137188.74347  21827413.1264   21827416.8654
       239.0004        194.0004
 03 12 17 17 13 30.0000000  0  9G 1G31G 3G29G28G27G 8G10G13
  24298349.7614     270636.81449    193761.10045  24298350.1424   24298358.9324
       211.0004        138.0004
  21458898.0084    -738022.03249   -580324.54147  21458897.5644   21458902.5184
       236.0004        192.0004
  24563298.6714      -5576.01449   -249851.58544  24563298.3824   24563306.2444
       203.0004        125.0004
  24745304.2484   -2582126.69449  -2001074.77445  24745304.8724   24745309.5744
       205.0004        139.0004
  21740195.0304   -1951608.67349  -1513460.49047  21740194.6264   21740198.6194
       239.0004        197.0004
  20574706.7274   -1263174.80049   -984209.68147  20574706.6874   20574710.9904
       243.0004        209.0004
  20815522.5474   -1836949.27949  -1422981.74947  20815522.0244   20815526.9214
       241.0004        202.0004
  23924274.6744    -936048.35349   -732805.07945  23924275.1394   23924279.9674
       216.0004        149.0004
  21843960.2574     -76733.82049    -69428.48147  21843960.7114   21843964.4564
       240.0004        194.0004
 03 12 17 17 14  0.0000000  0  9G 1G31G 3G29G28G27G 8G10G13
  24319160.8364     379997.38649    278976.98745  24319160.4164   24319168.6764
       211.0004        137.0004
  21466333.6564    -698947.60349   -549876.96447  21466333.7364   21466338.0234
       236.0004        191.0004
  24580883.6194      86831.57449   -177845.79344  24580882.3194   24580888.7134
       203.0004        125.0004
  24726320.9594   -2681884.78049  -2078808.32945  24726320.9944   24726325.1594
       206.0004        139.0004
  21730307.6744   -2003567.19049  -1553947.63647  21730307.2614   21730311.1314
       239.0004        197.0004
  20574299.9784   -1265312.41649   -985875.37247  20574299.6294   20574304.2524
       243.0004        209.0004
  20807104.8704   -1881184.60749  -1457450.84147  20807104.5114   20807109.1424
       241.0004        203.0004
  23928722.7414    -912674.31049   -714591.60745  23928723.2204   23928726.8784
       215.0004        150.0004
  21860576.6664      10585.47349     -1387.51447  21860577.0374   21860580.8264
       239.0004        195.0004
 03 12 17 17 14 30.0000000  0  9G 1G31G 3G29G28G27G 8G10G13
  24339994.1604     489477.06649    364285.67745  24339993.7134   24340003.4654
       210.0004        139.0004
  21473882.9414    -659275.82949   -518963.92447  21473882.7504   21473887.4394
       235.0004        191.0004
  24598521.6034     179519.15249   -105621.80744  24598522.5574   24598529.8694
       205.0004        125.0004
  24707361.9624   -2781515.37049  -2156442.53845  24707361.6994   24707366.8434
       204.0004        137.0004
  21720478.0624   -2055222.12649  -1594198.22447  21720477.9064   21720481.7904
       239.0004        197.0004
  20573936.9574   -1267220.28249   -987362.03847  20573936.9404   20573941.2264
       243.0004        209.0004
  20798722.5944   -1925233.99549  -1491775.04847  20798722.1644   20798726.8134
       241.0004        203.0004
  23933260.8334    -888827.23149   -696009.49745  23933260.6084   23933266.6064
       214.0004        151.0004
  21877261.3244      98263.56549     66933.03847  21877261.6874   21877265.6944
       240.0004        195.0004
 03 12 17 17 15  0.0000000  0  8G 1G31G29G28G27G 8G10G13
  24360849.7954     599072.89949    449684.93445  24360850.4844   24360858.2754
       214.0004        140.0004
  21481545.4964    -619008.88149   -487587.11747  21481545.5354   21481550.1724
       236.0004        191.0004
  24688427.4884   -2881016.58049  -2233975.94645  24688426.9284   24688431.3964
       207.0004        138.0004
  21710706.1274   -2106574.19749  -1634212.82647  21710705.6314   21710709.5544
       239.0004        197.0004
  20573617.7344   -1268897.98549   -988669.36547  20573617.5114   20573622.1334
       243.0004        209.0004
  20790375.7634   -1969097.18349  -1525954.16947  20790375.4934   20790379.8774
       241.0004        203.0004
  23937888.3834    -864509.71549   -677060.83345  23937888.4154   23937893.9554
       216.0004        151.0004
  21894013.6834     186297.29949    135530.71047  21894014.1194   21894018.1534
       240.0004        195.0004
 03 12 17 17 15 30.0000000  0  8G 1G31G29G28G27G 8G10G13
  24381727.2544     708783.82349    535173.82745  24381727.9714   24381737.2634
       214.0004        144.0004
  21489321.2794    -578147.14349   -455746.82447  21489320.7434   21489325.7844
       236.0004        191.0004
  24669518.3084   -2980385.12549  -2311405.96845  24669517.4584   24669523.0924
       204.0004        137.0004
  21700992.0464   -2157622.26049  -1673990.53047  21700991.6364   21700995.6894
       240.0004        197.0004
  20573342.6924   -1270343.34449   -989795.64047  20573342.4214   20573347.1044
       243.0004        209.0004
  20782064.7464   -2012772.07049  -1559986.56047  20782064.3764   20782068.9444
       242.0004        203.0004
  23942605.2614    -839722.18449   -657745.92645  23942604.2704   23942612.3164
       215.0004        151.0004
  21910833.4904     274685.58149    204404.65947  21910833.7654   21910837.6664
       239.0004        194.0004
 03 12 17 17 16  0.0000000  0  8G 1G31G29G28G27G 8G10G13
  24402626.5304     818607.68349    620750.74645  24402626.9834   24402635.8174
       219.0004        148.0004
  21497209.9844    -536691.92249   -423444.08647  21497209.4824   21497214.4434
       236.0004        191.0004
  24650634.9064   -3079618.27649  -2388730.48245  24650634.5514   24650639.7294
       205.0004        135.0004
  21691335.8564   -2208366.07349  -1713531.16647  21691335.4714   21691339.3754
       239.0004        197.0004
  20573112.1394   -1271555.05449   -990739.85347  20573112.0314   20573116.3834
       243.0004        209.0004
  20773789.7834   -2056257.37949  -1593871.23447  20773789.3254   20773793.8534
       242.0004        204.0004
  23947411.3174    -814466.51849   -638066.23445  23947410.7824   23947416.6374
       214.0004        151.0004
  21927720.4004     363426.71349    273553.55447  21927720.8954   21927724.7954
       239.0004        193.0004
 03 12 17 17 16 30.0000000  0  8G 1G31G29G28G27G 8G10G13
  24423546.6374     928541.75449    706413.54245  24423548.1494   24423555.9564
       218.0004        151.0004
  21505211.3364    -494645.16449   -390680.40147  21505211.0024   21505215.5714
       236.0004        190.0004
  24631777.5034   -3178714.23249  -2465948.09945  24631777.1264   24631782.7604
       202.0004        135.0004
  21681737.3614   -2258806.49549  -1752835.39747  21681737.0164   21681740.8684
       240.0004        197.0004
  20572926.1694   -1272532.60149   -991501.60547  20572925.8904   20572930.4694
       244.0004        209.0004
  20765551.0474   -2099552.57749  -1627607.77147  20765550.4594   20765554.8324
       242.0004        204.0004
  23952306.0314    -788744.82349   -618023.42045  23952305.0144   23952312.2834
       214.0004        150.0004
  21944674.0564     452518.19149    342975.43347  21944674.4584   21944678.3204
       239.0004        193.0004
 03 12 17 17 17  0.0000000  0  9G 1G31G29G28G27G 7G 8G10G13
  24444487.2804    1038583.91249    792160.56545  24444487.4234   24444495.9614
       216.0004        153.0004
  21513324.8574    -452008.30649   -357456.89447  21513324.4654   21513328.9334
       235.0004        190.0004
  24612946.5774   -3277670.50149  -2543056.83445  24612945.4824   24612951.9984
       202.0004        134.0004
  21672196.6514   -2308943.43449  -1791903.14347  21672196.0014   21672200.0364
       240.0004        197.0004
  20572785.0384   -1273274.50749   -992079.74047  20572784.7774   20572789.3554
       244.0004        209.0004
  24375882.6124   -2649146.46759  -2050485.42245  24375881.9584   24375891.8164
       209.0004        148.0004
  20757348.7204   -2142656.38249  -1661195.16547  20757348.1074   20757352.9374
       241.0004        204.0004
  23957289.0094    -762558.76949   -597618.75145  23957288.4344   23957293.7644
       212.0004        149.0004
  21961693.9714     541957.93249    412668.69247  21961694.3654   21961698.4254
       240.0004        193.0004
 03 12 17 17 17 30.0000000  0  9G 1G31G29G28G27G 7G 8G10G13
  24465447.0224    1148727.48349    877986.60745  24465447.0234   24465456.0644
       216.0004        154.0004
  21521549.5204    -408787.39449   -323778.26547  21521549.1224   21521554.2234
       235.0004        190.0004
  24594142.0934   -3376489.02449  -2620058.25545  24594142.8294   24594146.5574
       203.0004        135.0004
  21662712.8314   -2358781.32949  -1830737.86747  21662712.4564   21662715.9784
       240.0004        198.0004
  20572688.0244   -1273784.32049   -992477.01647  20572687.9444   20572692.4374
       243.0004        209.0004
  24355795.6044   -2754704.59749  -2132738.25445  24355795.3544   24355804.8674
       212.0004        150.0004
  20749182.1244   -2185572.04149  -1694635.94247  20749181.6104   20749186.3504
       242.0004        204.0004
  23962359.2644    -735914.56249   -576857.07145  23962358.9744   23962364.9264
       215.0004        149.0004
  21978778.8284     631739.15549    482628.03247  21978778.9384   21978783.1174
       239.0004        193.0004
 03 12 17 17 18  0.0000000  0  9G 1G31G29G28G27G 7G 8G10G13
  24486427.2074    1258976.73449    963895.00245  24486427.0094   24486435.2624
       216.0004        154.0004
  21529886.3414    -364977.36749   -289640.59447  21529886.3204   21529890.8134
       236.0004        190.0004
  24575365.3944   -3475160.72249  -2696945.28745  24575364.5794   24575370.3624
       207.0004        138.0004
  21653287.1194   -2408313.70049  -1869334.52247  21653286.7124   21653290.8924
       240.0004        198.0004
  20572636.7454   -1274054.24349   -992687.37447  20572636.8004   20572641.3334
       243.0004        209.0004
  24335712.4204   -2860242.04449  -2214974.90845  24335711.5674   24335721.6554
       212.0004        151.0004
  20741052.7634   -2228292.18249  -1727924.38347  20741052.3784   20741056.9334
       242.0004        204.0004
  23967517.6134    -708807.69149   -555734.89145  23967517.6534   23967522.9924
       216.0004        148.0004
  21995929.5404     721866.39849    552857.00147  21995930.0944   21995933.7154
       239.0004        193.0004
 03 12 17 17 18 30.0000000  0  9G 1G31G29G28G27G 7G 8G10G13
  24507426.8734    1369328.38849   1049883.18245  24507425.6724   24507435.6574
       206.0004        150.0004
  21538334.7584    -320580.91149   -255045.96647  21538334.5014   21538338.9094
       235.0004        190.0004
  24556616.9254   -3573684.32949  -2773716.89145  24556616.6084   24556622.7344
       208.0004        140.0004
  21643919.3824   -2457541.72049  -1907694.02447  21643919.0974   21643922.7384
       240.0004        198.0004
  20572631.1264   -1274084.20849   -992710.74947  20572630.9244   20572635.4494
       244.0004        209.0004
  24315633.4874   -2965757.50949  -2297194.41445  24315632.6984   24315642.2294
       218.0004        153.0004
  20732960.6434   -2270816.71749  -1761060.40247  20732960.1404   20732964.7574
       242.0004        204.0004
  23972763.4514    -681241.30749   -534254.64545  23972762.8524   23972769.3904
       214.0004        148.0004
  22013145.4054     812336.15849    623352.85547  22013145.6164   22013149.7564
       238.0004        192.0004
 03 12 17 17 19  0.0000000  0  8G31G29G28G27G 7G 8G10G13
  21546894.6264    -275598.83049   -219995.01047  21546894.1764   21546898.5814
       236.0004        190.0004
  24537897.3274   -3672056.52749  -2850370.54645  24537897.8674   24537902.3124
       209.0004        141.0004
  21634609.6884   -2506464.58349  -1945815.74747  21634609.5214   21634613.0224
       241.0004        199.0004
  20572671.4824   -1273872.32449   -992545.66747  20572671.1564   20572675.7124
       243.0004        209.0004
  24295559.3574   -3071247.78649  -2379394.29145  24295557.7854   24295567.6994
       216.0004        153.0004
  20724906.1114   -2313143.45449  -1794042.29347  20724905.6464   20724910.4254
       242.0004        204.0004
  23978096.4644    -653216.08749   -512416.86345  23978095.2604   23978102.1064
       215.0004        148.0004
  22030426.2844     903147.28849    694114.71347  22030426.4634   22030430.5614
       238.0004        191.0004
 03 12 17 17 19 30.0000000  0  8G31G29G28G27G 7G 8G10G13
  21555565.3204    -230034.23649   -184490.14247  21555565.2834   21555569.5134
       235.0004        189.0004
  24519206.7934   -3770276.28449  -2926905.41645  24519206.6764   24519212.0374
       209.0004        143.0004
  21625357.7444   -2555083.99649  -1983701.00547  21625357.5664   21625360.9734
       241.0004        199.0004
  20572757.7564   -1273418.97649   -992192.43347  20572757.7664   20572762.0224
       244.0004        209.0004
  24275490.0574   -3176711.91049  -2461573.75945  24275488.5394   24275498.0224
       219.0004        151.0004
  20716889.1834   -2355272.81349  -1826870.38247  20716888.9564   20716893.5494
       242.0004        204.0004
  23983516.0994    -624735.37649   -490224.14745  23983516.1074   23983522.3104
       215.0004        148.0004
  22047771.3274     994296.11449    765139.71847  22047771.5254   22047775.5424
       238.0004        191.0004
 03 12 17 17 20  0.0000000  0  8G31G29G28G27G 7G 8G10G13
  21564346.3894    -183889.55849   -148533.26147  21564345.7244   21564350.6724
       235.0004        189.0004
  24500545.6634   -3868342.18249  -3003320.38245  24500544.6264   24500550.2354
       210.0004        143.0004
  21616163.3934   -2603400.90149  -2021350.54447  21616162.9024   21616166.9444
       240.0004        199.0004
  20572890.0774   -1272723.74849   -991650.72047  20572890.0054   20572894.4584
       244.0004        209.0004
  24255425.8724   -3282148.49949  -2543731.80845  24255424.2394   24255433.6994
       217.0004        148.0004
  20708909.8644   -2397204.47049  -1859544.41347  20708909.3504   20708913.9774
       241.0004        205.0004
  23989022.2504    -595801.64449   -467678.43745  23989022.8454   23989027.6924
       216.0004        148.0004
  22065180.0594    1085779.51549    836425.43147  22065180.5634   22065184.4144
       239.0004        191.0004
 03 12 17 17 20 30.0000000  0  8G31G29G28G27G 7G 8G10G13
  21573237.5384    -137166.14849   -112125.42247  21573237.0894   21573241.9614
       235.0004        189.0004
  24481914.1474   -3966251.31849  -3079613.22745  24481913.9344   24481919.3144
       210.0004        144.0004
  21607026.5924   -2651415.12349  -2058764.21947  21607026.0374   21607030.1774
       240.0004        199.0004
  20573068.7994   -1271784.95849   -990919.21747  20573068.7114   20573072.9874
       244.0004        209.0004
  24235367.4454   -3387554.65649  -2625866.12445  24235365.7254   24235374.9534
       214.0004        145.0004
  20700968.4704   -2438936.95949  -1892063.24847  20700967.9984   20700972.9194
       241.0004        205.0004
  23994614.0524    -566416.88149   -444781.27045  23994613.6754   23994619.3564
       215.0004        149.0004
  22082652.1544    1177595.78249    907970.51247  22082652.7084   22082656.6004
       238.0004        191.0004
 03 12 17 17 21  0.0000000  0  8G31G29G28G27G 7G 8G10G13
  21582238.5794     -89865.19949    -75267.56947  21582238.2974   21582243.1704
       235.0004        189.0004
  24463313.0324   -4064000.52849  -3155781.44845  24463313.6104   24463318.5014
       209.0004        145.0004
  21597947.5324   -2699125.97349  -2095941.50747  21597947.0324   21597951.0454
       240.0004        199.0004
  20573294.0304   -1270601.22549   -989996.85747  20573293.7654   20573298.3054
       244.0004        210.0004
  24215315.3204   -3492927.54749  -2707974.50245  24215314.1074   24215322.3344
       214.0004        143.0004
  20693065.2874   -2480468.51249  -1924425.51547  20693064.6894   20693069.6214
       241.0004        205.0004
  24000291.3664    -536582.44449   -421533.72345  24000291.6544   24000296.4934
       216.0004        148.0004
  22100187.3164    1269743.16249    979773.60247  22100187.9884   22100191.9774
       238.0004        191.0004
 03 12 17 17 21 30.0000000  0  8G31G29G28G27G 7G 8G10G13
  21591349.2144     -41988.66849    -37961.20647  21591349.0204   21591353.3404
       235.0004        189.0004
  24444742.7084   -4161587.87149  -3231823.55045  24444742.1574   24444747.7094
       211.0004        144.0004
  21588926.0254   -2746534.24349  -2132883.01347  21588925.6784   21588929.4484
       241.0004        200.0004
  20573566.1024   -1269171.49049   -988882.80647  20573566.0674   20573570.5344
       244.0004        210.0004
  24195269.8494   -3598264.99549  -2790055.30645  24195270.6734   24195277.5824
       213.0004        141.0004
  20685200.4824   -2521798.32149  -1956630.57347  20685199.9944   20685204.6544
       242.0004        205.0004
  24006053.9044    -506300.26449   -397937.28245  24006052.7654   24006060.6574
       216.0004        148.0004
  22117784.9464    1362219.03549   1051832.65747  22117785.2064   22117789.6084
       238.0004        190.0004
 03 12 17 17 22  0.0000000  0  8G31G29G28G27G 7G 8G10G13
  21600568.9204       6461.18549      -208.09847  21600568.6284   21600573.9104
       234.0004        188.0004
  24426203.9694   -4259011.02149  -3307737.69345  24426203.3214   24426207.9694
       209.0004        142.0004
  21579962.0654   -2793640.57049  -2169589.23447  21579961.6434   21579965.3234
       240.0004        200.0004
  20573885.1314   -1267495.24549   -987576.66547  20573885.1364   20573889.4724
       244.0004        210.0004
  24175231.5194   -3703565.20649  -2872107.10945  24175231.0164   24175237.7364
       208.0004        139.0004
  20677374.2444   -2562925.74749  -1988677.92747  20677373.7624   20677378.3984
       241.0004        205.0004
  24011901.1244    -475573.04649   -373994.03345  24011901.6864   24011906.2514
       216.0004        148.0004
  22135444.5584    1455020.65549   1124145.55647  22135444.8104   22135449.0774
       238.0004        190.0004
 03 12 17 17 22 30.0000000  0  8G31G29G28G27G 7G 8G10G13
  21609897.4774      55482.90149     37990.61047  21609896.7604   21609901.9804
       234.0004        188.0004
  24407696.6554   -4356267.51149  -3383522.00845  24407696.3834   24407701.3694
       206.0004        141.0004
  21571055.4864   -2840444.72449  -2206059.99747  21571055.0194   21571058.9544
       240.0004        200.0004
  20574251.3964   -1265570.95949   -986077.24547  20574251.4224   20574255.5694
       244.0004        210.0004
  24155200.6834   -3808825.45349  -2954127.78045  24155200.4434   24155207.0314
       207.0004        139.0004
  20669586.7154   -2603849.45649  -2020566.54547  20669586.5934   20669591.0424
       242.0004        205.0004
  24017832.8354    -444402.35449   -349705.23245  24017833.1404   24017838.3124
       216.0004        147.0004
  22153165.8774    1548146.46949   1196711.07347  22153166.1124   22153170.5744
       238.0004        190.0004
 03 12 17 17 23  0.0000000  0  8G31G29G28G27G 7G 8G10G13
  21619334.4484     105074.57049     76633.43646  21619334.1964   21619339.1064
       235.0004        187.0004
  24389221.5474   -4453354.93549  -3459174.55045  24389222.1834   24389226.7414
       209.0004        141.0004
  21562206.3764   -2886947.08049  -2242295.59847  21562205.9554   21562209.7174
       241.0004        200.0004
  20574664.9354   -1263397.90749   -984383.97647  20574664.8364   20574669.2744
       244.0004        210.0004
  24135177.7894   -3914043.51449  -3036115.57445  24135175.9254   24135186.5504
       208.0004        140.0004
  20661838.2894   -2644568.04849  -2052295.32647  20661837.9174   20661842.6584
       242.0004        205.0004
  24023848.4904    -412790.37049   -325072.56245  24023847.4564   24023852.5334
       217.0004        148.0004
  22170948.3274    1641593.55349   1269526.92347  22170948.8124   22170952.5444
       238.0004        190.0004
 03 12 17 17 23 30.0000000  0  8G31G29G28G27G 7G 8G10G13
  21628879.5504     155234.33949    115718.93246  21628878.9894   21628883.8294
       234.0004        187.0004
  24370779.0844   -4550270.73049  -3534693.37045  24370778.6514   24370783.7084
       204.0004        140.0004
  21553414.7034   -2933147.68649  -2278296.05947  21553414.1524   21553418.1734
       241.0004        200.0004
  20575126.0914   -1260974.55649   -982495.66547  20575125.9474   20575130.3454
       244.0004        210.0004
  24115163.4564   -4019217.02249  -3118068.69645  24115162.7404   24115171.8904
       208.0004        142.0004
  20654129.0044   -2685080.68549  -2083863.61647  20654128.6944   20654133.2084
       242.0004        205.0004
  24029947.7394    -380739.18549   -300097.63745  24029946.4944   24029952.8354
       216.0004        148.0004
  22188791.6494    1735360.09749   1342591.71447  22188791.8294   22188795.9844
       237.0004        189.0004
 03 12 17 17 24  0.0000000  0  8G31G29G28G27G 7G 8G10G13
  21638532.4684     205960.63049    155245.86546  21638532.2164   21638536.7734
       233.0004        187.0004
  24352369.7164   -4647012.09149  -3610076.25145  24352369.6554   24352374.2884
       207.0004        140.0004
  21544680.4294   -2979046.57449  -2314061.42447  21544680.0284   21544684.0054
       240.0004        200.0004
  20575635.1584   -1258299.70149   -980411.39247  20575635.1744   20575639.2394
       244.0004        210.0004
  24095158.3634   -4124343.23549  -3199984.98345  24095158.1294   24095166.0204
       208.0004        143.0004
  20646459.2484   -2725385.74249  -2115270.16247  20646458.7444   20646463.2564
       242.0004        206.0004
  24036129.9574    -348250.93049   -274782.17045  24036129.2644   24036135.9504
       217.0004        147.0004
  22206695.2614    1829443.97949   1415903.77347  22206695.6154   22206700.0394
       237.0004        189.0004
 03 12 17 17 24 30.0000000  0  8G31G29G28G27G 7G 8G10G13
  21648292.8724     257251.55249    195212.77346  21648292.3794   21648297.1514
       233.0004        187.0004
  24333994.0804   -4743576.67149  -3685321.37645  24333994.1164   24333999.3464
       205.0004        139.0004
  21536003.5504   -3024643.89849  -2349591.79447  21536003.1354   21536007.1184
       241.0004        200.0004
  20576192.2494   -1255372.30449   -978130.32747  20576192.0094   20576196.4354
       244.0004        209.0004
  24075162.9094   -4229419.86049  -3281862.60845  24075163.4414   24075171.6884
       214.0004        147.0004
  20638829.0824   -2765482.54649  -2146514.43047  20638828.4564   20638833.2694
       242.0004        206.0004
  24042395.0914    -315327.56049   -249127.65145  24042393.6074   24042400.7854
       216.0004        147.0004
  22224658.7764    1923842.51249   1489461.02247  22224658.7894   22224663.5184
       237.0004        188.0004
 03 12 17 17 25  0.0000000  0  8G31G29G28G27G 7G 8G10G13
  21658160.2064     309104.79049    235617.85446  21658159.8684   21658164.7764
       234.0004        187.0004
  24315652.4254   -4839962.36849  -3760427.13245  24315652.9344   24315656.7874
       211.0004        139.0004
  21527383.9634   -3069940.36549  -2384887.73747  21527383.7424   21527387.4784
       241.0004        201.0004
  20576797.5404   -1252191.56749   -975651.85647  20576797.2904   20576801.8264
       244.0004        209.0004
  24055177.3274   -4334444.64649  -3363699.84645  24055176.3084   24055185.7474
       215.0004        151.0004
  20631238.8814   -2805369.54349  -2177595.21347  20631238.4014   20631242.9974
       243.0004        206.0004
  24048742.6234    -281971.39249   -223135.85745  24048742.8224   24048749.0194
       216.0004        147.0004
  22242681.6734    2018553.37649   1563261.64547  22242681.9824   22242685.9524
       237.0004        188.0004
 03 12 17 17 25 30.0000000  0  8G31G29G28G27G 7G 8G10G13
  21668134.2754     361518.30949    276459.51046  21668133.8434   21668138.6424
       234.0004        186.0004
  24297345.3744   -4936166.91849  -3835391.72445  24297345.0284   24297351.0624
       212.0004        141.0004
  21518821.5184   -3114936.30749  -2419949.50547  21518821.4304   21518824.7704
       241.0004        201.0004
  20577451.2214   -1248756.56749   -972975.26247  20577450.8974   20577455.5804
       244.0004        209.0004
  24035201.8454   -4439415.53449  -3445495.05845  24035201.5264   24035210.4514
       214.0004        152.0004
  20623688.6794   -2845046.21149  -2208512.10347  20623688.1284   20623692.8634
       243.0004        206.0004
  24055172.0764    -248184.60449   -196808.54045  24055172.2314   24055177.6594
       216.0004        147.0004
  22260763.5794    2113573.85549   1637303.52847  22260763.5444   22260768.3254
       236.0004        188.0004
 03 12 17 17 26  0.0000000  0  8G31G29G28G27G 7G 8G10G13
  21678214.6744     414490.64949    317736.61946  21678214.2454   21678218.8884
       234.0004        186.0004
  24279073.3534   -5032187.34049  -3910212.82345  24279074.1474   24279078.1334
       213.0004        142.0004
  21510316.3374   -3159631.55649  -2454776.95747  21510315.7784   21510319.7664
       241.0004        201.0004
  20578153.6064   -1245065.68549   -970099.27047  20578153.4614   20578158.0314
       244.0004        210.0004
  24015237.2484   -4544329.71149  -3527246.07845  24015237.1174   24015245.0064
       216.0004        154.0004
  20616178.8654   -2884510.79449  -2239263.72547  20616178.3274   20616182.9414
       243.0004        206.0004
  24061683.1044    -213969.10249   -170147.14345  24061683.5434   24061688.9664
       217.0004        147.0004
  22278903.8854    2208902.00949   1711585.15347  22278904.0164   22278908.7184
       236.0004        188.0004
 03 12 17 17 26 30.0000000  0  8G31G29G28G27G 7G 8G10G13
  21688400.9904     468019.84749    359447.63646  21688401.1924   21688405.6204
       234.0004        186.0004
  24260836.9844   -5128021.15549  -3984888.52345  24260836.9624   24260841.9714
       212.0004        144.0004
  21501868.2354   -3204026.44049  -2489370.36247  21501867.7774   21501871.5074
       241.0004        201.0004
  20578904.9134   -1241117.89049   -967023.08647  20578904.8614   20578909.2484
       244.0004        210.0004
  23995284.0334   -4649184.85349  -3608951.09945  23995283.7714   23995292.3134
       216.0004        156.0004
  20608709.5564   -2923762.22149  -2269849.25647  20608708.8484   20608713.6034
       242.0004        206.0004
  24068275.3994    -179327.05049   -143153.36745  24068274.5404   24068280.3434
       214.0004        147.0004
  22297102.3324    2304535.60649   1786104.78246  22297101.9874   22297107.2384
       236.0004        187.0004
 03 12 17 17 27  0.0000000  0  8G31G29G28G27G 7G 8G10G13
  21698692.8134     522103.46249    401590.65846  21698692.8874   21698697.2124
       234.0004        186.0004
  24242636.2894   -5223666.29349  -4059417.17445  24242636.3524   24242641.5804
       210.0004        144.0004
  21493477.2884   -3248121.44949  -2523730.09947  21493476.9464   21493480.6814
       242.0004        201.0004
  20579705.2054   -1236912.37149   -963746.08247  20579705.0374   20579709.4674
       244.0004        210.0004
  23975342.2134   -4753978.92449  -3690608.49145  23975341.3374   23975349.8674
       215.0004        155.0004
  20601281.0084   -2962799.52749  -2300267.93847  20601280.3804   20601285.2834
       243.0004        207.0004
  24074948.2174    -144260.90149   -115829.14045  24074946.8114   24074952.9654
       212.0004        146.0004
  22315358.4424    2400472.00749   1860860.37046  22315358.5094   22315363.2464
       236.0004        187.0004
 03 12 17 17 27 30.0000000  0  8G31G29G28G27G 7G 8G10G13
  21709089.9934     576740.90949    444165.23846  21709090.1704   21709094.8234
       234.0004        186.0004
  24224472.1314   -5319118.95349  -4133795.84745  24224472.4974   24224476.1944
       210.0004        144.0004
  21485143.5354   -3291915.57249  -2557855.37847  21485143.1354   21485146.8004
       241.0004        202.0004
  20580554.9834   -1232446.80049   -960266.43347  20580554.7084   20580559.2634
       244.0004        210.0004
  23955412.7174   -4858708.12949  -3772215.37745  23955412.3334   23955419.5094
       217.0004        156.0004
  20593893.5954   -3001620.39149  -2330517.96947  20593893.1344   20593897.7574
       243.0004        207.0004
  24081701.4104    -108771.52949    -88175.13845  24081701.1054   24081707.2844
       213.0004        146.0004
  22333671.9834    2496710.10549   1935851.05546  22333672.3804   22333676.6274
       236.0004        186.0004
 03 12 17 17 28  0.0000000  0  8G31G29G28G27G 7G 8G10G13
  21719592.0094     631929.42149    487169.21646  21719592.0194   21719596.5434
       233.0004        185.0004
  24206345.0624   -5414377.24949  -4208023.08045  24206345.3664   24206350.3424
       211.0004        145.0004
  21476866.8304   -3335410.07849  -2591747.19447  21476866.2854   21476870.1434
       242.0004        202.0004
  20581454.3634   -1227720.60049   -956583.69947  20581454.1164   20581458.6454
       244.0004        210.0004
  23935495.9804   -4963370.85449  -3853770.45945  23935494.6024   23935503.4534
       213.0004        155.0004
  20586547.6284   -3040224.06249  -2360598.75847  20586547.1704   20586551.9594
       243.0004        207.0004
  24088534.7834     -72861.90049    -60193.66245  24088534.3954   24088541.7744
       213.0004        146.0004
  22352042.3374    2593246.82649   2011074.42046  22352042.8234   22352047.2414
       235.0004        185.0004
 03 12 17 17 28 30.0000000  0  8G31G29G28G27G 7G 8G10G13
  21730198.5674     687667.02149    530601.05146  21730198.1974   21730203.9754
       233.0004        185.0004
  24188255.4494   -5509438.77849  -4282096.99145  24188254.9304   24188260.9974
       212.0004        146.0004
  21468647.1444   -3378604.87449  -2625405.47447  21468646.7254   21468650.5664
       242.0004        202.0004
  20582403.5234   -1222732.79749   -952697.11647  20582403.4394   20582407.9394
       244.0004        210.0004
  23915592.1134   -5067964.87349  -3935272.01545  23915591.2314   23915599.2494
       213.0004        154.0004
  20579243.1964   -3078609.40949  -2390509.42047  20579242.5774   20579247.4524
       243.0004        207.0004
  24095447.9194     -36534.01649    -31886.27645  24095448.3284   24095453.3774
       213.0004        145.0004
  22370469.0554    2690079.76749   2086528.60246  22370469.2364   22370473.5884
       235.0004        185.0004
 03 12 17 17 29  0.0000000  0  8G31G29G28G27G 7G 8G10G13
  21740909.1094     743950.98549    574458.62646  21740908.6724   21740913.9064
       234.0004        185.0004
  24170203.7654   -5604301.53249  -4356016.01445  24170203.5264   24170208.9924
       212.0004        147.0004
  21460484.2634   -3421501.07049  -2658831.08247  21460484.1264   21460487.3724
       242.0004        202.0004
  20583402.5844   -1217482.90949   -948606.31047  20583402.3774   20583407.0224
       244.0004        210.0004
  23895701.7534   -5172488.26249  -4016718.59345  23895700.6614   23895707.8364
       215.0004        153.0004
  20571980.3334   -3116776.00649  -2420249.62947  20571979.5954   20571984.4494
       243.0004        207.0004
  24102439.9884        209.07349     -3255.32645  24102438.8894   24102446.1414
       207.0004        143.0004
  22388951.6384    2787206.09549   2162211.39646  22388952.6114   22388956.3394
       234.0004        185.0004
 03 12 17 17 29 30.0000000  0  8G31G29G28G27G 7G 8G10G13
  21751723.3414     800780.00949    618740.92246  21751723.0254   21751728.0384
       233.0004        185.0004
  24152190.3264   -5698962.46749  -4429777.77345  24152190.1674   24152195.9244
       212.0004        149.0004
  21452378.3184   -3464098.08549  -2692023.55847  21452378.0084   21452381.9614
       242.0004        202.0004
  20584451.8494   -1211969.10349   -944309.86147  20584451.6214   20584456.2884
       244.0004        209.0004
  23875825.3154   -5276937.93849  -4098107.73245  23875824.4514   23875833.0684
       214.0004        152.0004
  20564759.4794   -3154721.74549  -2449817.74047  20564758.8544   20564763.5424
       243.0004        207.0004
  24109510.5614      37366.06949     25698.14245  24109510.1834   24109517.0054
       209.0004        142.0004
  22407489.7034    2884623.96749   2238121.37046  22407489.7384   22407494.6014
       235.0004        185.0004
 03 12 17 17 30  0.0000000  0  8G31G29G28G27G 7G 8G10G13
  21762640.8444     858151.81649    663446.16346  21762640.8074   21762645.9394
       233.0004        185.0004
  24134215.7664   -5793419.18349  -4503380.40245  24134216.2604   24134220.4434
       213.0004        149.0004
  21444329.1924   -3506396.46449  -2724983.33347  21444328.9404   21444332.4434
       242.0004        202.0004
  20585551.5144   -1206190.44349   -939807.02347  20585551.2294   20585556.1344
       244.0004        209.0004
  23855963.5034   -5381311.61549  -4179437.69745  23855962.6014   23855970.1504
       216.0004        155.0004
  20557580.8854   -3192445.44849  -2479212.83647  20557580.4434   20557585.0124
       243.0004        207.0004
  24116659.6564      74934.40049     54972.10245  24116659.1544   24116665.9874
       209.0004        143.0004
  22426082.8364    2982331.23149   2314256.83946  22426083.4064   22426087.5004
       235.0004        185.0004
 03 12 17 17 30 30.0000000  0  8G31G29G28G27G 7G 8G10G13
  21773661.2984     916064.36749    708572.75946  21773660.7584   21773666.2014
       232.0004        184.0004
  24116280.6624   -5887669.01449  -4576821.81645  24116280.2474   24116285.8114
       213.0004        149.0004
  21436336.8134   -3548396.50449  -2757710.63847  21436336.2934   21436340.1294
       243.0004        202.0004
  20586701.8044   -1200145.73149   -935096.87747  20586701.4434   20586706.2714
       244.0004        209.0004
  23836116.6344   -5485606.94049  -4260706.61645  23836114.9614   23836124.3274
       213.0004        154.0004
  20550444.7834   -3229946.06349  -2508434.09947  20550444.3334   20550449.1924
       244.0004        208.0004
  24123886.5444     112911.92849     84564.93145  24123886.3114   24123894.4154
       214.0004        145.0004
  22444730.5374    3080325.09449   2390615.62946  22444730.8864   22444735.1624
       236.0004        185.0004
 03 12 17 17 31  0.0000000  0  8G31G29G28G27G 7G 8G10G13
  21784784.1934     974515.43149    754118.98946  21784783.6884   21784789.2774
       233.0004        184.0004
  24098385.2604   -5981709.90849  -4650100.43745  24098385.3054   24098391.0324
       213.0004        148.0004
  21428401.1714   -3590098.73949  -2790205.88247  21428400.4874   21428404.4504
       242.0004        203.0004
  20587902.9284   -1193833.95049   -930178.62047  20587902.7424   20587907.3114
       244.0004        209.0004
  23816284.9504   -5589821.67249  -4341912.74045  23816283.9304   23816293.1794
       213.0004        152.0004
  20543351.3234   -3267222.57049  -2537480.72947  20543350.7644   20543355.3024
       243.0004        208.0004
  24131191.0224     151295.75249    114474.34745  24131190.9944   24131197.1944
       210.0004        145.0004
  22463432.2214    3178602.89349   2467195.67146  22463432.7794   22463436.9614
       235.0004        185.0004
 03 12 17 17 31 30.0000000  0  8G31G29G28G27G 7G 8G10G13
  21796009.1834    1033502.99449    800083.26446  21796009.1774   21796014.2544
       232.0004        184.0004
  24080529.9904   -6075538.79349  -4723213.84645  24080530.5064   24080535.4554
       212.0004        148.0004
  21420522.1824   -3631503.16449  -2822469.07047  21420521.5224   21420525.5824
       242.0004        203.0004
  20589155.1104   -1187253.99649   -925051.40647  20589154.9454   20589159.6404
       244.0004        209.0004
  23796469.1994   -5693953.19149  -4423054.07145  23796469.2374   23796476.3214
       215.0004        152.0004
  20536300.7904   -3304273.31549  -2566351.43447  20536300.4854   20536304.8254
       244.0004        208.0004
  24138572.2344     190084.09349    144698.97945  24138571.5254   24138579.0044
       205.0004        145.0004
  22482187.6324    3277162.70949   2543995.46746  22482188.4554   22482191.8564
       235.0004        185.0004
 03 12 17 17 32  0.0000000  0  8G31G29G28G27G 7G 8G10G13
  21807335.9544    1093025.21149    846464.14746  21807335.7564   21807340.6904
       232.0004        184.0004
  24062715.7334   -6169152.80949  -4796159.82045  24062715.5794   24062721.3754
       214.0004        148.0004
  21412699.8754   -3672609.82349  -2854500.23047  21412699.4274   21412703.1374
       242.0004        203.0004
  20590458.5874   -1180404.26549   -919713.97747  20590458.4124   20590462.9004
       243.0004        209.0004
  23776669.7944   -5797998.85749  -4504128.50345  23776669.2344   23776677.5394
       214.0004        150.0004
  20529293.5584   -3341096.73249  -2595045.00847  20529293.1364   20529297.5894
       243.0004        208.0004
  24146029.8704     229274.92249    175237.20745  24146029.0724   24146035.5164
       210.0004        144.0004
  22500996.2764    3376002.32149   2621013.28046  22500996.8944   22501000.9954
       234.0004        184.0004
 03 12 17 17 32 30.0000000  0  8G31G29G28G27G 7G 8G10G13
  21818763.9954    1153079.33549    893259.51746  21818763.4844   21818768.7354
       232.0004        183.0004
  24044942.8344   -6262550.24149  -4868937.01445  24044943.4324   24044948.5144
       212.0004        149.0004
  21404933.9824   -3713419.72549  -2886300.15447  21404933.6034   21404937.3574
       242.0004        203.0004
  20591813.4364   -1173284.30749   -914165.97547  20591813.2044   20591817.9184
       243.0004        209.0004
  23756887.1444   -5901956.72349  -4585134.52745  23756887.4894   23756894.5134
       218.0004        152.0004
  20522329.6414   -3377692.46249  -2623561.15647  20522329.0474   20522334.0764
       244.0004        208.0004
  24153563.8664     268865.45549    206086.91445  24153562.9464   24153570.0944
       209.0004        144.0004
  22519857.5484    3475118.69249   2698246.75446  22519857.5274   22519862.2554
       234.0004        183.0004
 03 12 17 17 33  0.0000000  0  8G31G29G28G27G 7G 8G10G13
  21830292.7934    1213663.19549    940467.67646  21830292.6634   21830297.2864
       232.0004        183.0004
  24027211.6484   -6355728.47449  -4941543.38845  24027211.3684   24027218.3794
       215.0004        149.0004
  21397224.5114   -3753933.17249  -2917869.07447  21397223.9604   21397228.0444
       241.0004        203.0004
  20593219.9434   -1165893.10249   -908406.61947  20593219.7414   20593224.5474
       244.0004        209.0004
  23737121.8004   -6005824.35449  -4666070.24145  23737121.1834   23737129.0074
       215.0004        153.0004
  20515409.3324   -3414059.01049  -2651898.72747  20515408.7284   20515413.5784
       243.0004        208.0004
  24161173.3094     308853.20349    237246.13645  24161173.4484   24161178.9094
       207.0004        145.0004
  22538770.9904    3574509.29049   2775693.91146  22538771.2234   22538776.2974
       234.0004        182.0004
 03 12 17 17 33 30.0000000  0  8G31G29G28G27G 7G 8G10G13
  21841921.9754    1274774.59649    988086.90946  21841922.0924   21841927.0774
       233.0004        183.0004
  24009522.8624   -6448685.09949  -5013977.10245  24009522.9834   24009526.8874
       213.0004        148.0004
  21389571.3854   -3794150.58949  -2949207.32247  21389570.9484   21389574.8394
       242.0004        203.0004
  20594678.3424   -1158229.40349   -902434.93047  20594678.0214   20594682.8294
       244.0004        209.0004
  23717374.0344   -6109599.41349  -4746933.80845  23717373.9744   23717381.4864
       218.0004        155.0004
  20508532.8334   -3450195.15249  -2680056.76247  20508532.1494   20508537.0424
       243.0004        208.0004
  24168857.8524     349235.98049    268713.14945  24168857.0684   24168864.3384
       208.0004        144.0004
  22557736.2054    3674172.12449   2853353.20346  22557736.2144   22557741.2504
       235.0004        182.0004
 03 12 17 17 34  0.0000000  0  8G31G29G28G27G 7G 8G10G13
  21853651.1184    1336411.36349   1036115.52346  21853650.2734   21853655.4624
       232.0004        183.0004
  23991876.6174   -6541417.31549  -5086235.95045  23991876.2704   23991881.0734
       214.0004        150.0004
  21381974.5704   -3834072.16349  -2980315.04647  21381974.2374   21381978.0464
       242.0004        203.0004
  20596188.7844   -1150292.06949   -896250.02447  20596188.4054   20596193.3234
       243.0004        209.0004
  23697644.4514   -6213279.45649  -4827723.33645  23697642.7434   23697651.7604
       218.0004        157.0004
  20501700.4634   -3486099.44749  -2708034.14447  20501699.9084   20501704.6134
       243.0004        208.0004
  24176617.1094     390011.34449    300486.08145  24176616.5374   24176623.2244
       206.0004        144.0004
  22576752.7804    3774104.51749   2931222.52746  22576753.1894   22576757.7504
       234.0004        182.0004
 03 12 17 17 34 30.0000000  0  9G31G29G28G27G 7G 8G10G11G13
  21865479.7864    1398571.52949   1084551.98246  21865479.3644   21865484.1914
       232.0004        183.0004
  23974273.4684   -6633922.36649  -5158317.76745  23974273.3264   23974279.0504
       213.0004        150.0004
  21374434.0024   -3873698.06049  -3011192.37347  21374433.7074   21374437.5974
       242.0004        203.0004
  20597751.5064   -1142079.71149   -889850.80947  20597751.2544   20597756.2154
       243.0004        209.0004
  23677933.3984   -6316861.85449  -4908436.75345  23677932.3194   23677940.7934
       219.0004        158.0004
  20494912.4834   -3521770.55949  -2735829.82347  20494912.1284   20494916.8284
       243.0004        208.0004
  24184450.6514     431177.17149    332563.27645  24184449.7544   24184458.1294
       208.0004        145.0004
  24607057.4214   -4583906.99749  -3286352.41645  24607057.5294   24607065.0814
       212.0004        143.0004
  22595820.2134    3874304.36349   3009300.26046  22595820.4994   22595825.0784
       234.0004        182.0004
 03 12 17 17 35  0.0000000  0  9G31G29G28G27G 7G 8G10G11G13
  21877407.6104    1461252.48149   1133394.25046  21877407.2364   21877411.9594
       232.0004        183.0004
  23956713.7904   -6726198.25649  -5230221.01745  23956712.8634   23956719.5014
       213.0004        150.0004
  21366949.5604   -3913029.03249  -3041839.89147  21366949.1794   21366952.9724
       242.0004        203.0004
  20599366.7634   -1133591.66749   -883236.76947  20599366.5654   20599371.1894
       243.0004        209.0004
  23658241.2754   -6420344.51949  -4989072.45845  23658240.3314   23658248.1544
       219.0004        160.0004
  20488169.1294   -3557207.49349  -2763443.02947  20488168.5364   20488173.2824
       243.0004        208.0004
  24192358.0744     472730.59949    364942.49045  24192357.2904   24192364.4244
       211.0004        147.0004
  24595367.8864   -4645336.12949  -3334219.26445  24595368.5614   24595375.0604
       211.0004        142.0004
  22614937.9384    3974768.79949   3087584.17046  22614938.0544   22614942.7324
       233.0004        181.0004
 03 12 17 17 35 30.0000000  0  9G31G29G28G27G 7G 8G10G11G13
  21889434.3084    1524452.68249   1182641.12846  21889434.4004   21889439.2554
       232.0004        183.0004
  23939198.4134   -6818241.71849  -5301943.16045  23939198.4184   23939202.8614
       215.0004        151.0004
  21359521.3454   -3952064.74049  -3072257.33147  21359521.0114   21359524.8934
       242.0004        204.0004
  20601034.8364   -1124826.11649   -876406.49147  20601034.6114   20601039.1964
       244.0004        209.0004
  23638568.5284   -6523724.23149  -5069627.90245  23638567.8004   23638576.0294
       217.0004        159.0004
  20481470.7004   -3592408.05749  -2790872.04347  20481470.3634   20481474.9064
       244.0004        209.0004
  24200339.1874     514670.28249    397622.72245  24200339.6834   24200345.4944
       212.0004        148.0004
  24583700.0544   -4706651.09049  -3381997.13145  24583699.4994   24583705.9704
       208.0004        140.0004
  22634105.7344    4075496.16249   3166072.95846  22634106.0644   22634110.6614
       233.0004        180.0004
 03 12 17 17 36  0.0000000  0  9G31G29G28G27G 7G 8G10G11G13
  21901559.3524    1588169.95349   1232290.92046  21901559.1164   21901564.2664
       232.0004        183.0004
  23921727.8004   -6910049.87849  -5373481.96945  23921728.0124   23921732.8664
       216.0004        152.0004
  21352149.2824   -3990805.26149  -3102444.75847  21352148.7854   21352152.7194
       242.0004        204.0004
  20602755.9974   -1115781.75949   -869358.95947  20602755.7494   20602760.2824
       244.0004        209.0004
  23618915.8974   -6626998.54749  -5150101.24145  23618914.6064   23618923.1574
       218.0004        159.0004
  20474817.4654   -3627371.19649  -2818116.06147  20474816.8894   20474821.5874
       244.0004        209.0004
  24208393.2374     556993.63149    430601.86145  24208392.6494   24208399.8164
       213.0004        149.0004
  24572054.4484   -4767849.07349  -3429683.83145  24572054.8104   24572061.2074
       213.0004        140.0004
  22653323.0324    4176484.00149   3244764.70346  22653323.2414   22653327.9094
       233.0004        180.0004
 03 12 17 17 36 30.0000000  0  9G31G29G28G27G 7G 8G10G11G13
  21913782.2244    1652401.71249   1282341.62146  21913782.2544   21913786.8544
       232.0004        182.0004
  23904302.4794   -7001620.69249  -5444835.83445  23904301.4064   23904307.4664
       213.0004        151.0004
  21344833.2344   -4029251.58449  -3132402.94147  21344832.9504   21344836.8654
       243.0004        204.0004
  20604530.3124   -1106457.87749   -862093.61847  20604530.1314   20604534.7464
       243.0004        209.0004
  23599283.8264   -6730165.51449  -5230490.92845  23599283.1164   23599290.7324
       218.0004        159.0004
  20468209.6114   -3662095.77549  -2845174.19247  20468208.8944   20468213.5594
       244.0004        209.0004
  24216519.6684     599697.83749    463877.81345  24216518.4034   24216525.8904
       212.0004        151.0004
  24560431.6144   -4828927.84249  -3477277.64245  24560431.4374   24560437.8254
       213.0004        140.0004
  22672589.4504    4277729.54749   3323657.25746  22672590.2724   22672594.4924
       234.0004        180.0004
 03 12 17 17 37  0.0000000  0  9G31G29G28G27G 7G 8G10G11G13
  21926102.6424    1717145.47849   1332791.27546  21926102.1054   21926107.5624
       231.0004        182.0004
  23886922.7934   -7092951.73949  -5516002.85545  23886922.3184   23886928.0784
       214.0004        151.0004
  21337573.0654   -4067404.02549  -3162132.12147  21337572.9964   21337576.5934
       242.0004        204.0004
  20606357.9274   -1096853.57749   -854609.76347  20606357.6954   20606362.5214
       243.0004        209.0004
  23579672.4054   -6833222.72749  -5310795.07945  23579670.9634   23579680.0904
       217.0004        159.0004
  20461647.4394   -3696580.37949  -2872045.32547  20461646.9774   20461651.6094
       243.0004        209.0004
  24224718.1944     642780.55749    497448.69545  24224717.8774   24224724.6764
       215.0004        152.0004
  24548832.0254   -4889884.42649  -3524776.21045  24548831.2684   24548838.9274
       212.0004        141.0004
  22691904.4704    4379230.52249   3402748.84646  22691904.8814   22691909.9444
       233.0004        179.0004
 03 12 17 17 37 30.0000000  0  9G31G29G28G27G 7G 8G10G11G13
  21938519.9874    1782398.89049   1383638.06446  21938520.0194   21938525.0194
       231.0004        181.0004
  23869589.2754   -7184040.38649  -5586981.01745  23869589.2174   23869593.9584
       213.0004        151.0004
  21330368.7974   -4105263.01149  -3191632.62647  21330368.2634   21330372.2444
       242.0004        204.0004
  20608239.1904   -1086967.67349   -846906.47847  20608238.9234   20608243.5874
       244.0004        209.0004
  23560082.3954   -6936167.86949  -5391011.92145  23560081.9254   23560089.6994
       218.0004        158.0004
  20455131.0924   -3730824.07949  -2898728.74147  20455130.5984   20455135.4114
       244.0004        209.0004
  24232988.1664     686239.06649    531312.41045  24232987.5624   24232994.6874
       215.0004        151.0004
  24537256.2054   -4950715.93249  -3572177.32045  24537255.5614   24537263.8504
       209.0004        140.0004
  22711267.5024    4480983.87749   3482037.10046  22711267.5474   22711272.3434
       233.0004        179.0004
 03 12 17 17 38  0.0000000  0  9G31G29G28G27G 7G 8G10G11G13
  21951033.7824    1848159.33649   1434879.93446  21951033.4764   21951038.6394
       231.0004        181.0004
  23852302.3284   -7274884.24249  -5657768.41645  23852302.1354   23852306.5024
       213.0004        151.0004
  21323220.1734   -4142829.21349  -3220904.98147  21323219.6824   21323223.5494
       242.0004        204.0004
  20610174.1804   -1076799.41049   -838983.16747  20610174.0534   20610178.7054
       243.0004        209.0004
  23540514.1854   -7038998.61949  -5471139.63345  23540513.3024   23540521.2674
       217.0004        159.0004
  20448660.7464   -3764825.71149  -2925223.53047  20448660.2374   20448665.0244
       243.0004        209.0004
  24241329.1274     730070.87249    565467.02245  24241328.6274   24241335.7554
       216.0004        152.0004
  24525704.6464   -5011420.04049  -3619479.08045  24525702.7594   24525709.9504
       210.0004        137.0004
  22730678.1374    4582987.30749   3561520.22046  22730678.3594   22730683.6264
       232.0004        178.0004
 03 12 17 17 38 30.0000000  0  9G31G29G28G27G 7G 8G10G11G13
  21963643.8184    1914425.41949   1486515.79746  21963643.1664   21963648.8474
       231.0004        181.0004
  23835062.4334   -7365480.21149  -5728362.66545  23835062.4204   23835067.5954
       213.0004        152.0004
  21316127.3294   -4180102.42049  -3249949.03247  21316126.9824   21316130.8384
       242.0004        205.0004
  20612163.2524   -1066346.74049   -830838.24347  20612162.8174   20612167.6234
       243.0004        209.0004
  23520968.2734   -7141711.96249  -5551175.84645  23520967.9434   23520975.6464
       217.0004        159.0004
  20442236.9434   -3798582.99649  -2951527.92247  20442236.4044   20442241.1474
       244.0004        209.0004
  24249740.8164     774274.49649    599911.34045  24249740.7444   24249747.1324
       216.0004        152.0004
  24514177.9784   -5071993.15649  -3666678.80645  24514177.6884   24514185.7844
       208.0004        136.0004
  22750136.0564    4685239.08149   3641196.84246  22750136.7184   22750141.2384
       232.0004        177.0004
 03 12 17 17 39  0.0000000  0  9G31G29G28G27G 7G 8G10G11G13
  21976349.5014    1981193.91549   1538543.15546  21976348.9704   21976354.5694
       231.0004        180.0004
  23817870.0994   -7455826.15849  -5798762.09845  23817870.6114   23817875.0864
       214.0004        152.0004
  21309090.0444   -4217083.60349  -3278765.52947  21309089.6244   21309093.3824
       243.0004        205.0004
  20614206.4764   -1055609.52249   -822471.59847  20614206.1724   20614211.0744
       243.0004        209.0004
  23501445.1914   -7244306.12149  -5631119.19745  23501445.1284   23501452.2464
       218.0004        160.0004
  20435859.7354   -3832095.40249  -2977641.50147  20435859.3394   20435864.0964
       244.0004        209.0004
  24258222.6024     818846.26949    634642.55545  24258221.7534   24258230.1704
       215.0004        152.0004
  24502676.6084   -5132433.04649  -3713774.70845  24502676.3304   24502682.4004
       205.0004        134.0004
  22769640.6454    4787736.00949   3721064.49546  22769641.0954   22769646.0244
       231.0004        177.0004
 03 12 17 17 39 30.0000000  0  9G31G29G28G27G 7G 8G10G11G13
  21989150.2214    2048461.98149   1590959.78946  21989150.2284   21989155.2754
       231.0004        180.0004
  23800725.7224   -7545920.24749  -5868965.26045  23800725.6314   23800731.8474
       213.0004        153.0004
  21302108.2164   -4253773.53449  -3307355.07047  21302107.8184   21302111.6774
       244.0004        205.0004
  20616303.9944   -1044587.07449   -813882.69447  20616303.8504   20616308.6184
       243.0004        209.0004
  23481945.1024   -7346779.20649  -5710968.22145  23481944.6484   23481951.6064
       221.0004        161.0004
  20429529.3084   -3865362.24649  -3003563.73147  20429528.8914   20429533.6874
       244.0004        209.0004
  24266773.8574     863783.56649    669658.55645  24266772.6134   24266780.0104
       217.0004        152.0004
  24491201.0294   -5192737.28249  -3760764.89045  24491200.2754   24491205.6294
       206.0004        133.0004
  22789191.3774    4890475.13049   3801120.86746  22789191.7314   22789196.7964
       231.0004        176.0004
 03 12 17 17 40  0.0000000  0  9G31G29G28G27G 7G 8G10G11G13
  22002045.8614    2116228.64549   1643764.92346  22002045.4414   22002050.9184
       231.0004        181.0004
  23783629.9894   -7635758.41949  -5938969.01945  23783629.8764   23783634.1424
       213.0004        153.0004
  21295181.8894   -4290171.48349  -3335717.09947  21295181.1734   21295185.1054
       243.0004        205.0004
  20618456.2914   -1033276.82349   -805069.53247  20618456.0904   20618460.7524
       243.0004        209.0004
  23462468.8704   -7449127.40349  -5790719.91946  23462468.9314   23462475.7624
       221.0004        163.0004
  20423246.1684   -3898380.56349  -3029292.29547  20423245.6614   20423250.3714
       244.0004        209.0004
  24275394.5924     909085.08649    704958.40545  24275393.6254   24275400.7834
       215.0004        151.0004
  24479751.9344   -5252901.90049  -3807646.30845  24479752.7004   24479757.9244
       208.0004        133.0004
  22808787.8794    4993455.15549   3881364.95346  22808788.8644   22808792.9134
       229.0004        175.0004
 03 12 17 17 40 30.0000000  0  9G31G29G28G27G 7G 8G10G11G13
  22015035.7704    2184490.79949   1696956.14246  22015035.5084   22015040.8554
       231.0004        181.0004
  23766583.2544   -7725338.89549  -6008771.97045  23766583.6174   23766588.2374
       214.0004        155.0004
  21288310.9454   -4326278.38749  -3363852.33047  21288310.5894   21288314.3344
       243.0004        205.0004
  20620663.4324   -1021678.25149   -796031.70147  20620663.1924   20620667.8564
       243.0004        209.0004
  23443016.8344   -7551348.89749  -5870372.88445  23443015.9084   23443023.7734
       220.0004        162.0004
  20417010.4404   -3931149.72149  -3054826.71047  20417010.0684   20417014.5184
       244.0004        209.0004
  24284083.9164     954747.75349    740539.64445  24284084.1884   24284090.5234
       217.0004        151.0004
  24468330.0414   -5312924.80749  -3854417.32145  24468330.8774   24468335.3104
       210.0004        135.0004
  22828429.7434    5096673.29449   3961794.59246  22828430.3374   22828435.1934
       229.0004        176.0004
 03 12 17 17 41  0.0000000  0  9G31G29G28G27G 7G 8G10G11G13
  22028119.3694    2253245.29749   1750531.01946  22028119.5304   22028124.3834
       231.0004        181.0004
  23749586.0754   -7814659.91849  -6078372.74745  23749585.6844   23749592.0244
       216.0004        156.0004
  21281495.1464   -4362095.68249  -3391761.89347  21281494.6584   21281498.4784
       243.0004        205.0004
  20622925.4484   -1009791.38849   -786769.23447  20622925.4264   20622929.8864
       243.0004        209.0004
  23423589.1014   -7653442.24449  -5949925.98545  23423588.4874   23423596.0364
       221.0004        161.0004
  20410822.2014   -3963669.36049  -3080166.70247  20410821.7824   20410826.3594
       244.0004        209.0004
  24292841.4684    1000768.08249    776399.60845  24292840.5564   24292848.1114
       216.0004        150.0004
  24456935.6214   -5372803.91749  -3901076.32045  24456936.0654   24456943.0114
       210.0004        136.0004
  22848116.2614    5200125.82249   4042406.85846  22848116.5384   22848121.5354
       229.0004        175.0004
 03 12 17 17 41 30.0000000  0  9G31G29G28G27G 7G 8G10G11G13
  22041296.3744    2322490.36949   1804488.15646  22041296.3384   22041301.5074
       230.0004        180.0004
  23732638.9484   -7903718.03049  -6147768.67545  23732638.5064   23732644.1214
       215.0004        155.0004
  21274734.5324   -4397622.93549  -3419445.44947  21274734.1584   21274737.8594
       244.0004        205.0004
  20625242.6944    -997614.29349   -777280.61747  20625242.4624   20625247.0054
       243.0004        209.0004
  23404186.3784   -7755404.24549  -6029376.74345  23404185.6194   23404192.2114
       221.0004        162.0004
  20404681.7934   -3995937.30449  -3105310.56247  20404681.1034   20404685.8334
       244.0004        209.0004
  24301666.6024    1047144.29649    812536.86445  24301666.4764   24301673.4234
       214.0004        150.0004
  24445569.0444   -5432535.73349  -3947620.54545  24445567.8164   24445574.5144
       210.0004        138.0004
  22867847.0334    5303811.23749   4123200.59246  22867847.9184   22867851.5534
       230.0004        176.0004
 03 12 17 17 42  0.0000000  0  9G31G29G28G27G 7G 8G10G11G13
  22054566.1584    2392223.67649   1858825.73146  22054565.4224   22054570.6664
       230.0004        180.0004
  23715742.2424   -7992510.67449  -6216957.73245  23715742.5334   23715746.3914
       215.0004        155.0004
  21268029.0334   -4432860.59649  -3446903.35547  21268028.6704   21268032.4234
       243.0004        205.0004
  20627615.3794    -985145.88749   -767565.00347  20627615.2894   20627619.9514
       243.0004        209.0004
  23384809.0754   -7857232.44849  -6108723.23945  23384809.1634   23384816.1204
       220.0004        162.0004
  20398589.5904   -4027952.19149  -3130257.22747  20398588.9914   20398593.7954
       244.0004        209.0004
  24310559.0894    1093873.91349    848949.53745  24310558.1114   24310564.1964
       213.0004        148.0004
  24434230.8414   -5492117.46349  -3994047.88245  24434231.0744   24434237.4054
       209.0004        137.0004
  22887621.6624    5407726.96749   4204173.80446  22887622.7984   22887627.7354
       230.0004        176.0004
 03 12 17 17 42 30.0000000  0  9G31G29G28G27G 7G 8G10G11G13
  22067928.5154    2462443.21549   1913542.18846  22067928.7614   22067933.4454
       230.0004        179.0004
  23698896.6324   -8081034.91449  -6285937.65445  23698896.5954   23698902.1964
       216.0004        156.0004
  21261378.6644   -4467808.60749  -3474135.56047  21261378.1644   21261381.7614
       244.0004        205.0004
  20630043.8404    -972384.57649   -757621.14447  20630043.5784   20630048.3814
       243.0004        209.0004
  23365457.6874   -7958923.91349  -6187963.17346  23365457.1414   23365463.1624
       221.0004        164.0004
  20392545.8924   -4059712.02149  -3155005.14747  20392545.2954   20392550.1754
       244.0004        209.0004
  24319518.3424    1140954.78149    885635.89345  24319517.7684   24319524.4004
       210.0004        147.0004
  24422921.9714   -5551545.73549  -4040355.65545  24422921.6434   24422927.8654
       208.0004        138.0004
  22907439.7814    5511871.05649   4285324.96346  22907440.4894   22907445.2844
       231.0004        175.0004
 03 12 17 17 43  0.0000000  0  9G31G29G28G27G 7G 8G10G11G13
  22081382.7414    2533145.61849   1968634.89946  22081382.2174   22081387.5124
       230.0004        179.0004
  23682102.4624   -8169289.05449  -6354707.09945  23682102.4024   23682107.8394
       217.0004        156.0004
  21254783.1364   -4502468.33449  -3501143.13847  21254782.6704   21254786.5244
       244.0004        206.0004
  20632528.0274    -959330.09249   -747448.84647  20632527.9284   20632532.7484
       243.0004        209.0004
  23346132.7404   -8060477.15249  -6267095.41546  23346131.6794   23346137.5364
       221.0004        163.0004
  20386550.8164   -4091216.58149  -3179554.15547  20386550.1654   20386554.9024
       244.0004        210.0004
  24328543.6264    1188383.63749    922593.37745  24328542.1214   24328548.4484
       209.0004        144.0004
  24411642.7964   -5610818.63049  -4086542.39245  24411643.9014   24411648.2014
       208.0004        139.0004
  22927300.6144    5616239.90049   4366651.23946  22927301.1704   22927305.7214
       230.0004        175.0004
 03 12 17 17 43 30.0000000  0  9G31G29G28G27G 7G 8G10G11G13
  22094928.3754    2604328.53149   2024102.04846  22094929.1794   22094933.4644
       229.0004        178.0004
  23665360.2114   -8257270.41449  -6423263.99745  23665359.7424   23665365.3024
       217.0004        156.0004
  21248242.3944   -4536840.10449  -3527926.32847  21248241.7684   21248245.7354
       244.0004        206.0004
  20635068.1994    -945981.43049   -737047.31647  20635067.7704   20635072.7344
       243.0004        209.0004
  23326834.6304   -8161889.77049  -6346118.09746  23326834.0094   23326841.2224
       223.0004        165.0004
  20380604.5644   -4122464.25149  -3203902.99147  20380603.8424   20380608.6184
       244.0004        210.0004
  24337634.6954    1236157.82349    959819.96645  24337633.1774   24337641.5134
       207.0004        142.0004
  24400393.7054   -5669933.21649  -4132605.75045  24400394.0994   24400399.5144
       206.0004        140.0004
  22947203.7914    5720831.37149   4448150.99746  22947204.0314   22947208.1494
       230.0004        175.0004
 03 12 17 17 44  0.0000000  0  9G31G29G28G27G 7G 8G10G11G13
  22108565.1614    2675989.94949   2079942.05246  22108565.0594   22108569.8864
       230.0004        178.0004
  23648670.3944   -8344975.74949  -6491605.80545  23648669.9064   23648674.6144
       217.0004        156.0004
  21241756.4994   -4570923.86149  -3554485.09347  21241755.9384   21241759.8044
       244.0004        206.0004
  20637664.6754    -932336.89349   -726415.24347  20637664.4524   20637669.1454
       243.0004        208.0004
  23307563.7034   -8263158.67249  -6425028.78946  23307562.8704   23307570.2144
       221.0004        165.0004
  20374707.5274   -4153453.36549  -3228050.36247  20374706.8944   20374711.5684
       245.0004        210.0004
  24346791.1724    1284275.34849    997314.07845  24346791.3274   24346797.8704
       207.0004        139.0004
  24389175.2454   -5728886.03649  -4178543.05645  24389173.3474   24389180.6484
       206.0004        137.0004
  22967149.0244    5825643.45949   4529822.66046  22967150.6324   22967153.7864
       231.0004        175.0004
 03 12 17 17 44 30.0000000  0  9G31G29G28G27G 7G 8G10G11G13
  22122292.5064    2748126.92649   2136152.62446  22122292.0464   22122297.0914
       229.0004        177.0004
  23632033.4734   -8432403.16249  -6559731.05345  23632033.5544   23632038.4524
       217.0004        156.0004
  21235325.2134   -4604720.45849  -3580820.10647  21235324.9704   21235328.5834
       244.0004        206.0004
  20640317.5444    -918396.07549   -715552.29747  20640317.3164   20640321.9874
       243.0004        208.0004
  23288320.3614   -8364282.16849  -6503826.18546  23288319.9724   23288326.1564
       222.0004        166.0004
  20368859.9284   -4184182.74249  -3251995.33847  20368859.4424   20368864.1984
       244.0004        210.0004
  24356012.4204    1332733.13149   1035073.35945  24356012.7334   24356018.0034
       206.0004        137.0004
  24377987.9924   -5787675.14549  -4224352.79145  24377987.0714   24377994.2094
       207.0004        138.0004
  22987135.7724    5930673.06749   4611663.84046  22987135.6974   22987141.1404
       230.0004        175.0004
 03 12 17 17 45  0.0000000  0  9G31G29G28G27G 7G 8G10G11G13
  22136109.7824    2820737.06349   2192731.90046  22136108.9714   22136115.2174
       229.0004        177.0004
  23615450.1004   -8519549.85549  -6627637.55445  23615449.5444   23615455.9034
       216.0004        156.0004
  21228948.4904   -4638230.62349  -3606931.92447  21228948.0554   21228951.7164
       245.0004        207.0004
  20643027.0804    -904157.58049   -704457.39847  20643026.9604   20643031.7154
       243.0004        208.0004
  23269105.3364   -8465257.62349  -6582508.21546  23269104.3844   23269112.3094
       224.0004        167.0004
  20363062.0144   -4214650.99849  -3275736.84747  20363061.4264   20363066.3794
       245.0004        210.0004
  24365297.9244    1381528.86949   1073095.98445  24365296.9764   24365303.8284
       205.0004        137.0004
  24366832.6174   -5846297.13049  -4270032.28745  24366831.3744   24366839.2714
       209.0004        140.0004
  23007163.3184    6035917.82049   4693672.63146  23007164.2924   23007168.2144
       230.0004        174.0004
 03 12 17 17 45 30.0000000  0  9G31G29G28G27G 7G 8G10G11G13
  22150016.6314    2893817.63749   2249677.73946  22150016.4334   22150021.6654
       230.0004        177.0004
  23598920.3634   -8606413.72049  -6695323.67245  23598920.2174   23598924.8624
       216.0004        156.0004
  21222626.1064   -4671454.96849  -3632821.02447  21222625.7624   21222629.2904
       244.0004        207.0004
  20645793.3844    -889620.70549   -693129.99447  20645793.0254   20645798.0764
       243.0004        209.0004
  23249918.9064   -8566082.75649  -6661073.15646  23249918.8964   23249924.1844
       224.0004        167.0004
  20357314.0704   -4244857.01549  -3299274.02047  20357313.5054   20357318.3104
       244.0004        210.0004
  24374647.1794    1430659.52649   1111379.59045  24374646.5134   24374652.9494
       206.0004        136.0004
  24355709.4664   -5904749.82049  -4315579.88245  24355709.2834   24355717.1304
       209.0004        143.0004
  23027231.3014    6141374.87049   4775846.86946  23027230.7204   23027235.7644
       229.0004        173.0004
 03 12 17 17 46  0.0000000  0  9G31G29G28G27G 7G 8G10G11G13
  22164012.5744    2967366.56649   2306988.54246  22164012.2444   22164018.0014
       229.0004        177.0004
  23582445.2744   -8692991.29449  -6762786.70145  23582445.1534   23582450.4534
       216.0004        157.0004
  21216358.2464   -4704393.16249  -3658487.14747  21216357.9714   21216361.3824
       244.0004        207.0004
  20648616.8004    -874783.80149   -681568.80147  20648616.5904   20648621.3574
       243.0004        209.0004
  23230761.5574   -8666754.82849  -6739518.79946  23230760.1494   23230767.3734
       224.0004        167.0004
  20351616.3404   -4274798.83349  -3322605.32047  20351615.8004   20351620.4574
       245.0004        210.0004
  24384059.8334    1480122.85449   1149922.37745  24384058.1384   24384066.5174
       205.0004        137.0004
  24344619.2824   -5963029.18849  -4360992.37645  24344618.7914   24344625.3924
       212.0004        144.0004
  23047339.2144    6247042.31849   4858185.05346  23047339.4794   23047344.1574
       229.0004        172.0004
 03 12 17 17 46 30.0000000  0  9G31G29G28G27G 7G 8G10G11G13
  22178096.9914    3041380.48249   2364661.66946  22178097.1234   22178102.0724
       229.0004        177.0004
  23566024.8004   -8779281.16049  -6830025.55045  23566025.8504   23566029.8364
       216.0004        156.0004
  21210144.5694   -4737046.55149  -3683931.34947  21210144.2934   21210147.9084
       244.0004        207.0004
  20651497.3534    -859646.60849   -669773.61547  20651497.1764   20651501.9044
       243.0004        209.0004
  23211633.6144   -8767272.16449  -6817843.89146  23211632.7614   23211639.0414
       223.0004        167.0004
  20345969.0104   -4304475.96549  -3345730.37447  20345968.3394   20345973.2424
       244.0004        210.0004
  24393535.1254    1529915.39449   1188721.70945  24393534.5174   24393539.6064
       207.0004        135.0004
  24333562.4534   -6021133.98249  -4406268.81945  24333562.4454   24333569.0554
       213.0004        145.0004
  23067486.5954    6352917.05049   4940684.76046  23067486.0724   23067492.1334
       228.0004        171.0004
 03 12 17 17 47  0.0000000  0  9G31G29G28G27G 7G 8G10G11G13
  22192269.6364    3115857.94449   2422696.01046  22192269.4224   22192274.9354
       229.0004        176.0004
  23549659.8124   -8865279.78149  -6897037.46345  23549659.7904   23549664.5964
       217.0004        157.0004
  21203985.0854   -4769414.78349  -3709153.35547  21203984.5174   21203988.2164
       245.0004        207.0004
  20654435.4304    -844207.19249   -657742.93247  20654435.2924   20654439.9144
       244.0004        209.0004
  23192535.7794   -8867631.40549  -6896045.79346  23192534.4234   23192541.3854
       222.0004        166.0004
  20340372.4924   -4333885.81349  -3368647.15047  20340371.9934   20340376.7104
       245.0004        210.0004
  24403072.6974    1580035.68849   1227776.44745  24403071.2154   24403079.2134
       205.0004        137.0004
  24322539.4994   -6079059.82949  -4451405.79345  24322538.9274   24322545.0554
       212.0004        145.0004
  23087673.0804    6458997.34449   5023344.64446  23087673.3164   23087677.6784
       229.0004        171.0004
 03 12 17 17 47 30.0000000  0  9G31G29G28G27G 7G 8G10G11G13
  22206529.7354    3190795.27349   2481088.66346  22206529.5004   22206535.1564
       229.0004        176.0004
  23533350.6304   -8950985.32849  -6963821.00245  23533350.3314   23533355.6414
       218.0004        158.0004
  21197879.5984   -4801499.23449  -3734154.23347  21197879.1844   21197882.8754
       244.0004        207.0004
  20657431.0254    -828465.49349   -645476.70347  20657430.8184   20657435.7884
       243.0004        209.0004
  23173468.2394   -8967831.18649  -6974123.45346  23173467.3824   23173474.1464
       222.0004        167.0004
  20334826.9044   -4363028.37449  -3391355.65747  20334826.3734   20334831.1954
       245.0004        211.0004
  24412671.9564    1630480.04749   1267083.67345  24412670.9904   24412679.0464
       207.0004        138.0004
  24311550.9764   -6136805.07449  -4496402.02345  24311550.6944   24311558.1084
       214.0004        147.0004
  23107898.0634    6565279.91049   5106162.14446  23107898.7554   23107903.0814
       228.0004        171.0004
 03 12 17 17 48  0.0000000  0  9G31G29G28G27G 7G 8G10G11G13
  22220877.0224    3266190.44649   2539838.08846  22220876.8474   22220882.4774
       228.0004        176.0004
  23517097.6124   -9036394.82249  -7030373.85045  23517098.4024   23517102.6474
       218.0004        159.0004
  21191828.1354   -4833299.92249  -3758933.99247  21191827.4834   21191831.3204
       244.0004        207.0004
  20660484.4034    -812419.97449   -632973.72847  20660484.1144   20660489.0594
       243.0004        209.0004
  23154431.6374   -9067868.50849  -7052074.50246  23154429.9324   23154437.4764
       222.0004        167.0004
  20329332.5354   -4391901.42849  -3413854.15847  20329332.0164   20329336.7734
       245.0004        211.0004
  24422332.5284    1681246.40449   1306641.84345  24422332.2814   24422339.3484
       207.0004        139.0004
  24300597.2904   -6194366.83249  -4541255.24145  24300596.4274   24300603.3494
       212.0004        148.0004
  23128160.9044    6671762.15949   5189135.22846  23128160.5584   23128165.8074
       229.0004        172.0004
 03 12 17 17 48 30.0000000  0  9G31G29G28G27G 7G 8G10G11G13
  22235311.0324    3342040.86249   2598942.23646  22235310.5054   22235317.0324
       227.0004        176.0004
  23500901.6454   -9121505.88249  -7096694.15545  23500901.6344   23500906.7974
       219.0004        160.0004
  21185830.5794   -4864817.10849  -3783492.84247  21185829.9854   21185833.7694
       245.0004        207.0004
  20663595.7764    -796069.69849   -620233.27947  20663595.5404   20663600.4974
       243.0004        209.0004
  23135426.3904   -9167741.14549  -7129897.24146  23135426.0884   23135432.1774
       224.0004        167.0004
  20323889.7044   -4420503.69749  -3436141.65447  20323889.2244   20323893.8194
       245.0004        211.0004
  24432053.8554    1732331.82049   1346448.59245  24432052.6924   24432059.9604
       207.0004        140.0004
  24289679.2454   -6251741.74249  -4585962.86945  24289679.2154   24289684.9464
       215.0004        148.0004
  23148461.5624    6778442.21549   5272262.46546  23148461.8134   23148466.2434
       227.0004        172.0004
 03 12 17 17 49  0.0000000  0  9G31G29G28G27G 7G 8G10G11G13
  22249830.9504    3418343.58049   2658398.83346  22249830.4134   22249836.1454
       228.0004        176.0004
  23484762.9764   -9206316.10949  -7162780.04845  23484762.4574   23484768.1154
       219.0004        161.0004
  21179886.8374   -4896051.88249  -3807831.62647  21179886.4804   21179890.1594
       244.0004        207.0004
  20666765.3674    -779413.70349   -607254.60447  20666765.0664   20666769.8554
       243.0004        209.0004
  23116453.0384   -9267446.84149  -7207589.90246  23116452.1634   23116459.4524
       224.0004        169.0004
  20318498.6574   -4448834.03549  -3458217.26147  20318498.1764   20318502.7244
       245.0004        211.0004
  24441835.0784    1783733.35949   1386501.66145  24441834.2304   24441842.2734
       207.0004        141.0004
  24278796.9684   -6308927.66649  -4630523.23945  24278797.0494   24278803.8124
       216.0004        149.0004
  23168799.0344    6885316.62449   5355541.13746  23168799.5844   23168804.5864
       228.0004        170.0004
 03 12 17 17 49 30.0000000  0  9G31G29G28G27G 7G 8G10G11G13
  22264436.5474    3495096.20349   2718206.00146  22264436.7514   22264441.5294
       229.0004        176.0004
  23468681.9164   -9290822.78549  -7228629.39445  23468681.7704   23468687.4214
       219.0004        162.0004
  21173996.6874   -4927004.77049  -3831950.76247  21173996.2774   21173999.9174
       244.0004        207.0004
  20669993.2934    -762451.05349   -594036.98447  20669993.1714   20669997.8654
       244.0004        209.0004
  23097511.8064   -9366983.16249  -7285150.59746  23097511.3364   23097517.9224
       224.0004        169.0004
  20313159.6594   -4476890.99149  -3480079.84347  20313159.0834   20313163.6464
       245.0004        211.0004
  24451676.0664    1835448.50449   1426799.12945  24451676.3574   24451681.9634
       209.0004        142.0004
  24267951.3474   -6365921.52949  -4674933.93345  24267950.8874   24267957.3954
       215.0004        149.0004
  23189173.2414    6992383.11149   5438969.49346  23189173.4194   23189178.3794
       227.0004        170.0004
 03 12 17 17 50  0.0000000  0  9G31G29G28G27G 7G 8G10G11G13
  22279127.3634    3572296.48449   2778361.99046  22279126.4024   22279132.8444
       228.0004        176.0004
  23452659.1594   -9375023.05049  -7294239.97445  23452658.0734   23452663.9484
       219.0004        162.0004
  21168160.1914   -4957675.81749  -3855850.27847  21168159.5284   21168163.4534
       244.0004        207.0004
  20673279.8704    -745180.19849   -580579.20247  20673279.4964   20673284.3124
       243.0004        208.0004
  23078603.2114   -9466347.41849  -7362577.20146  23078602.2864   23078609.9444
       225.0004        170.0004
  20307872.9504   -4504672.82549  -3501728.04247  20307872.3924   20307877.1764
       245.0004        211.0004
  24461576.5394    1887474.89849   1467339.12045  24461576.5834   24461583.4264
       209.0004        143.0004
  24257142.6884   -6422720.29549  -4719192.59645  24257142.3804   24257149.6734
       217.0004        150.0004
  23209583.3734    7099639.59049   5522545.89046  23209584.2494   23209588.2404
       225.0004        168.0004
 03 12 17 17 50 30.0000000  0  9G31G29G28G27G 7G 8G10G11G13
  22293902.6184    3649941.07049   2838864.18646  22293903.0224   22293908.3864
       227.0004        175.0004
  23436694.9914   -9458914.92149  -7359610.25645  23436694.9044   23436699.9624
       219.0004        162.0004
  21162377.0494   -4988066.42049  -3879531.26347  21162376.4724   21162380.3864
       244.0004        207.0004
  20676625.0924    -727600.98849   -566881.13947  20676624.9404   20676629.6054
       244.0004        208.0004
  23059727.8664   -9565537.94949  -7439868.45346  23059727.0234   23059734.0324
       227.0004        171.0004
  20302638.7724   -4532178.60049  -3523161.12747  20302638.2864   20302642.9544
       245.0004        211.0004
  24471535.4504    1939809.18349   1508119.02145  24471535.7484   24471542.6494
       209.0004        143.0004
  24246371.8284   -6479321.83149  -4763297.57845  24246371.7364   24246377.6894
       219.0004        152.0004
  23230029.2094    7207082.74549   5606267.75046  23230028.6564   23230034.8814
       226.0004        169.0004
 03 12 17 17 51  0.0000000  0  9G31G29G28G27G 7G 8G10G11G13
  22308762.0864    3728027.85249   2899710.95746  22308761.6664   22308768.1434
       228.0004        175.0004
  23420790.0344   -9542495.55349  -7424738.02245  23420789.6554   23420794.6734
       219.0004        162.0004
  21156647.3174   -5018176.29649  -3902993.50447  21156646.6884   21156650.5224
       244.0004        207.0004
  20680029.3214    -709711.76449   -552941.51147  20680029.1144   20680033.8584
       244.0004        208.0004
  23040886.3014   -9664551.62449  -7517021.92046  23040885.2474   23040892.7604
       226.0004        172.0004
  20297457.5044   -4559406.55849  -3544377.73547  20297457.0034   20297461.5344
       245.0004        211.0004
  24481552.5044    1992449.16349   1549137.12245  24481551.7244   24481560.5894
       208.0004        144.0004
  24235639.0674   -6535722.85449  -4807246.33145  24235639.1064   24235644.5214
       218.0004        153.0004
  23250510.0304    7314710.48549   5690133.43446  23250510.4174   23250515.2384
       226.0004        169.0004
 03 12 17 17 51 30.0000000  0  9G31G29G28G27G 7G 8G10G11G13
  22323705.2014    3806554.01449   2960900.10746  22323704.4014   22323711.1314
       227.0004        175.0004
  23404944.8104   -9625762.47249  -7489621.31845  23404944.1544   23404950.3644
       220.0004        162.0004
  21150970.8114   -5048006.44549  -3926237.76847  21150970.4784   21150973.9934
       244.0004        207.0004
  20683492.7214    -691511.79249   -538759.74547  20683492.4964   20683497.2834
       243.0004        208.0004
  23022078.6574   -9763386.49149  -7594036.03246  23022076.8684   23022084.8034
       225.0004        172.0004
  20292329.3394   -4586355.31149  -3565376.77547  20292328.6334   20292333.5754
       245.0004        211.0004
  24491627.2724    2045391.86049   1590391.10045  24491626.9394   24491633.8214
       210.0004        144.0004
  24224944.8584   -6591920.76249  -4851036.81545  24224944.1604   24224951.9724
       218.0004        152.0004
  23271025.5854    7422520.21949   5774140.93646  23271025.8444   23271031.6094
       226.0004        169.0004
 03 12 17 17 52  0.0000000  0 10G31G29G28G27G 7G 8G26G10G11G13
  22338730.7994    3885514.15149   3022427.40746  22338731.1084   22338736.2574
       227.0004        175.0004
  23389159.2794   -9708715.92749  -7554260.36445  23389158.4634   23389164.4934
       219.0004        162.0004
  21145346.9864   -5077559.93349  -3949266.44847  21145346.4914   21145350.2744
       244.0004        207.0004
  20687014.9244    -673002.74049   -524337.14147  20687014.6684   20687019.4474
       243.0004        208.0004
  23003304.8604   -9862042.83149  -7670911.03846  23003304.0744   23003311.7654
       224.0004        170.0004
  20287253.9804   -4613026.42949  -3586159.47647  20287253.5074   20287258.1504
       245.0004        211.0004
  24304186.8494   -3630162.47749  -2807604.05244  24304188.3314   24304193.1634
       198.0004        129.0004
  24501758.7254    2098632.16349   1631876.99945  24501758.5754   24501765.4684
       212.0004        146.0004
  24214289.3134   -6647915.50149  -4894668.97945  24214289.1464   24214295.1224
       217.0004        151.0004
  23291574.7214    7530506.68049   5858286.14246  23291574.9084   23291580.3624
       225.0004        167.0004
 03 12 17 17 52 30.0000000  0 10G31G29G28G27G 7G 8G26G10G11G13
  22353838.9224    3964907.72749   3084292.47046  22353838.9394   22353844.2134
       227.0004        175.0004
  23373434.2654   -9791351.29449  -7618651.55045  23373433.3894   23373439.1984
       219.0004        162.0004
  21139776.0814   -5106835.29149  -3972078.40847  21139775.4784   21139779.3644
       244.0004        207.0004
  20690596.4754    -654181.59149   -509671.33847  20690596.1084   20690601.1404
       243.0004        208.0004
  22984565.9044   -9960516.20149  -7747643.48546  22984564.6174   22984571.7934
       224.0004        170.0004
  20282232.1974   -4639416.22149  -3606722.96347  20282231.7134   20282236.3974
       245.0004        211.0004
  24285933.9024   -3726081.36449  -2882346.00844  24285934.3574   24285940.6534
       203.0004        131.0004
  24511946.5414    2152169.14849   1673594.05545  24511946.4234   24511953.7714
       211.0004        147.0004
  24203673.4254   -6703702.36349  -4938139.18145  24203672.3864   24203679.0124
       216.0004        150.0004
  23312157.4634    7638669.53149   5942568.80846  23312159.1684   23312161.8904
       225.0004        166.0004
 03 12 17 17 53  0.0000000  0 10G31G29G28G27G 7G 8G26G10G11G13
  22369029.5264    4044734.39349   3146494.99746  22369029.6334   22369034.7344
       227.0004        174.0004
  23357770.6834   -9873663.73249  -7682791.11145  23357770.5824   23357775.7144
       219.0004        162.0004
  21134258.3554   -5135830.82449  -3994672.32247  21134257.8884   21134261.4294
       244.0004        207.0004
  20694238.0344    -635045.02249   -494759.76247  20694237.9274   20694242.5244
       243.0004        208.0004
  22965862.6534  -10058801.93449  -7824229.73546  22965862.4244   22965867.5944
       225.0004        170.0004
  20277264.6314   -4665521.12249  -3627064.46047  20277264.0924   20277268.4884
       246.0004        212.0004
  24267728.3434   -3821753.23049  -2956895.50044  24267727.6924   24267733.1984
       205.0004        131.0004
  24522190.7404    2206002.24549   1715541.85945  24522190.9004   24522197.9494
       213.0004        147.0004
  24193098.0584   -6759275.95449  -4981443.20545  24193096.9674   24193104.5454
       215.0004        149.0004
  23332773.6934    7747008.54849   6026988.73846  23332773.1074   23332779.3624
       224.0004        165.0004
 03 12 17 17 53 30.0000000  0 10G31G29G28G27G 7G 8G26G10G11G13
  22384301.6764    4124989.49849   3209031.37046  22384301.5414   22384307.1794
       228.0004        174.0004
  23342168.6864   -9955652.52549  -7746678.47245  23342168.4834   23342173.6784
       219.0004        162.0004
  21128793.4774   -5164548.88949  -4017050.02747  21128793.0014   21128796.7854
       244.0004        207.0004
  20697939.4974    -615594.04149   -479603.18547  20697939.2854   20697944.2634
       244.0004        208.0004
  22947195.2574  -10156899.60949  -7900669.45146  22947195.1874   22947201.6664
       226.0004        170.0004
  20272351.2134   -4691341.48149  -3647184.22947  20272350.5544   20272355.5204
       245.0004        212.0004
  24249569.5134   -3917177.05049  -3031251.68745  24249569.2634   24249576.3474
       207.0004        135.0004
  24532490.4774    2260126.89549   1757716.85445  24532490.2704   24532496.9624
       211.0004        147.0004
  24182563.3754   -6814635.42349  -5024580.36245  24182563.1604   24182568.7554
       215.0004        147.0004
  23353422.6134    7855518.98249   6111542.25346  23353422.6324   23353428.5344
       225.0004        166.0004
 03 12 17 17 54  0.0000000  0 10G31G29G28G27G 7G 8G26G10G11G13
  22399655.0274    4205671.20249   3271900.15946  22399654.9024   22399660.2754
       227.0004        173.0004
  23326628.9384  -10037314.34249  -7810311.03445  23326628.6814   23326634.6304
       218.0004        162.0004
  21123381.4084   -5192989.40349  -4039211.45847  21123380.9084   21123384.7484
       244.0004        207.0004
  20701701.1484    -595826.77949   -464200.15547  20701700.8414   20701705.8014
       243.0004        208.0004
  22928564.2864  -10254806.05149  -7976960.15546  22928563.2064   22928570.3344
       226.0004        172.0004
  20267492.2884   -4716875.27249  -3667080.70247  20267491.6974   20267496.4954
       246.0004        212.0004
  24231458.7124   -4012349.37549  -3105411.93145  24231458.6204   24231464.7584
       206.0004        137.0004
  24542845.2504    2314541.29149   1800117.61145  24542844.3524   24542852.0444
       212.0004        148.0004
  24172070.1594   -6869777.14449  -5067547.86345  24172069.5544   24172074.6554
       214.0004        146.0004
  23374103.7334    7964199.20249   6196228.05946  23374104.5044   23374109.5964
       224.0004        165.0004
 03 12 17 17 54 30.0000000  0 10G31G29G28G27G 7G 8G26G10G11G13
  22415088.9254    4286776.42549   3335098.97046  22415088.3674   22415093.2454
       228.0004        173.0004
  23311151.6294  -10118647.21349  -7873687.29545  23311151.2664   23311157.2104
       220.0004        162.0004
  21118022.0104   -5221153.23149  -4061157.29347  21118021.6984   21118025.0884
       244.0004        207.0004
  20705523.0344    -575742.69449   -448550.25247  20705522.5354   20705527.6154
       243.0004        208.0004
  22909970.0054  -10352519.27649  -8053100.30246  22909969.5384   22909975.9004
       228.0004        174.0004
  20262688.1664   -4742121.21049  -3686752.87847  20262687.6734   20262692.3824
       246.0004        212.0004
  24213396.2214   -4107267.96449  -3179374.43045  24213396.7544   24213403.2404
       208.0004        138.0004
  24553254.5434    2369242.05849   1842741.52045  24553254.4064   24553260.7404
       209.0004        145.0004
  24161618.7774   -6924699.03549  -5110344.07945  24161618.4604   24161625.4834
       211.0004        145.0004
  23394816.6604    8073046.30949   6281043.91046  23394815.6364   23394823.9694
       222.0004        165.0004
 03 12 17 17 55  0.0000000  0 10G31G29G28G27G 7G 8G26G10G11G13
  22430602.9064    4368302.55149   3398625.77046  22430603.1974   22430607.7874
       228.0004        172.0004
  23295737.6754  -10199648.21949  -7936804.93946  23295737.9464   23295743.8104
       219.0004        163.0004
  21112715.2014   -5249040.76149  -4082887.83147  21112714.6824   21112718.3734
       244.0004        207.0004
  20709405.3774    -555340.67949   -432652.60347  20709404.9674   20709410.0374
       243.0004        208.0004
  22891412.9904  -10450036.99749  -8129088.09646  22891412.9254   22891419.4144
       227.0004        175.0004
  20257939.0614   -4767077.98649  -3706199.72547  20257938.4514   20257943.3104
       245.0004        212.0004
  24195382.7524   -4201929.92449  -3253137.00345  24195383.9044   24195389.8624
       209.0004        141.0004
  24563717.7764    2424226.44449   1885586.43845  24563718.2724   24563724.9794
       213.0004        146.0004
  24151209.6694   -6979398.24849  -5152966.78945  24151208.0474   24151215.1894
       210.0004        144.0004
  23415560.7234    8182057.70249   6365987.76046  23415560.7954   23415566.7384
       223.0004        164.0004
 03 12 17 17 55 30.0000000  0 10G31G29G28G27G 7G 8G26G10G11G13
  22446196.2094    4450245.38849   3462477.25946  22446196.3324   22446201.3674
       228.0004        171.0004
  23280387.0184  -10280316.55549  -7999663.36746  23280387.1934   23280393.3124
       220.0004        164.0004
  21107460.6164   -5276653.92149  -4104404.57747  21107460.1894   21107463.8424
       244.0004        207.0004
  20713348.1524    -534621.41349   -416507.74747  20713347.8084   20713352.8804
       243.0004        208.0004
  22872893.3804  -10547358.09249  -8204922.68046  22872892.1064   22872900.4574
       227.0004        176.0004
  20253244.9974   -4791745.46649  -3725421.14947  20253244.3614   20253249.0704
       245.0004        212.0004
  24177418.3414   -4296333.95649  -3326698.60445  24177418.7814   24177425.2274
       210.0004        142.0004
  24574234.2974    2479490.52249   1928649.28145  24574233.0124   24574241.6834
       209.0004        146.0004
  24140843.4104   -7033873.18949  -5195414.73245  24140843.8924   24140849.6094
       211.0004        142.0004
  23436335.4834    8291229.39949   6451056.53946  23436335.4834   23436341.5564
       223.0004        163.0004
 03 12 17 17 56  0.0000000  0 10G31G29G28G27G 7G 8G26G10G11G13
  22461868.5854    4532603.58949   3526652.40946  22461868.6724   22461874.0584
       225.0004        170.0004
  23265100.4614  -10360648.22449  -8062259.45146  23265101.0464   23265105.7934
       221.0004        165.0004
  21102258.3234   -5303992.10649  -4125707.06447  21102257.6814   21102261.6044
       244.0004        207.0004
  20717351.7754    -513582.37749   -400113.72247  20717351.5664   20717356.4174
       243.0004        208.0004
  22854411.8334  -10644478.97349  -8280601.26646  22854411.1304   22854418.3884
       227.0004        176.0004
  20248606.5354   -4816120.90949  -3744415.01147  20248605.9124   20248610.7074
       245.0004        212.0004
  24159503.8914   -4390476.20349  -3400056.18545  24159504.2334   24159508.8964
       211.0004        140.0004
  24584803.6504    2535032.71649   1971928.86845  24584803.0954   24584810.5424
       209.0004        144.0004
  24130520.5054   -7088119.79049  -5237684.78145  24130518.3204   24130527.3954
       212.0004        140.0004
  23457140.4384    8400560.30449   6536249.37046  23457141.4994   23457145.8734
       223.0004        163.0004
 03 12 17 17 56 30.0000000  0 10G31G29G28G27G 7G 8G26G10G11G13
  22477619.2514    4615374.02149   3591148.78846  22477619.3484   22477624.4614
       224.0004        169.0004
  23249878.3434  -10440641.26649  -8124591.67846  23249878.1544   23249883.3314
       220.0004        165.0004
  21097108.1974   -5331056.31249  -4146796.06247  21097108.0864   21097111.4294
       244.0004        208.0004
  20721416.2914    -492223.19849   -383470.22747  20721415.7924   20721420.8914
       243.0004        207.0004
  22835968.8264  -10741397.73449  -8356122.34046  22835968.4684   22835975.3074
       227.0004        177.0004
  20244023.8124   -4840203.37349  -3763180.57547  20244023.2544   20244027.8304
       245.0004        212.0004
  24141639.5584   -4484354.32149  -3473208.00845  24141639.4814   24141645.9814
       207.0004        140.0004
  24595425.3494    2590849.71649   2015422.56545  24595425.1914   24595432.8934
       207.0004        144.0004
  24120241.5334   -7142135.80849  -5279775.14345  24120241.8244   24120245.9644
       211.0004        139.0004
  23477975.2154    8510047.32949   6621563.84946  23477975.4864   23477981.6844
       224.0004        164.0004
 03 12 17 17 57  0.0000000  0 10G31G29G28G27G 7G 8G26G10G11G13
  22493447.8674    4698553.85549   3655964.16846  22493446.9214   22493452.7814
       226.0004        169.0004
  23234721.0264  -10520293.11249  -8186658.01946  23234721.0074   23234726.7784
       220.0004        165.0004
  21092010.0574   -5357847.36049  -4167672.20747  21092009.6064   21092013.3094
       244.0004        208.0004
  20725541.9174    -470542.97049   -366576.56547  20725541.5964   20725546.3954
       243.0004        207.0004
  22817564.6864  -10838112.14649  -8431484.19246  22817563.8494   22817571.4694
       227.0004        176.0004
  20239497.0954   -4863991.53149  -3781716.80847  20239496.4784   20239501.2334
       245.0004        212.0004
  24123826.0464   -4577965.65149  -3546151.91845  24123825.0034   24123830.8964
       207.0004        138.0004
  24606098.9484    2646938.61649   2059128.12545  24606098.1034   24606105.2744
       206.0004        143.0004
  24110006.8164   -7195918.63049  -5321683.79545  24110006.9104   24110011.3444
       210.0004        139.0004
  23498839.1984    8619687.97649   6706998.03346  23498838.8524   23498845.9954
       223.0004        163.0004
 03 12 17 17 57 30.0000000  0 10G31G29G28G27G 7G 8G26G10G11G13
  22509353.7904    4782139.95949   3721096.10946  22509353.9694   22509359.2214
       225.0004        169.0004
  23219629.1114  -10599601.83649  -8248457.00246  23219628.8254   23219635.2274
       222.0004        165.0004
  21086963.7284   -5384366.01249  -4188336.10647  21086963.1994   21086967.0174
       244.0004        208.0004
  20729728.7444    -448541.20449   -349432.36147  20729728.3784   20729733.3904
       243.0004        207.0004
  22799199.8074  -10934620.27049  -8506685.29346  22799199.2234   22799206.2674
       228.0004        176.0004
  20235026.5854   -4887484.29149  -3800022.86547  20235025.9734   20235030.6944
       245.0004        212.0004
  24106063.5414   -4671307.98149  -3618886.21945  24106064.0394   24106069.6714
       208.0004        138.0004
  24616823.3384    2703296.33249   2103043.14645  24616822.1294   24616829.3074
       206.0004        143.0004
  24099817.0664   -7249465.90849  -5363408.93645  24099816.3944   24099823.2674
       209.0004        139.0004
  23519731.9394    8729479.18749   6792549.52446  23519732.3484   23519738.2234
       222.0004        163.0004
 03 12 17 17 58  0.0000000  0 10G31G29G28G27G 7G 8G26G10G11G13
  22525336.6444    4866130.35149   3786543.09346  22525335.1554   22525341.4814
       225.0004        168.0004
  23204603.1104  -10678564.13149  -8309986.05746  23204602.8084   23204608.3874
       222.0004        166.0004
  21081969.2614   -5410612.16249  -4208787.65947  21081968.8674   21081972.4434
       244.0004        208.0004
  20733977.1134    -426216.18049   -332036.25847  20733976.9464   20733981.7444
       242.0004        207.0004
  22780874.7554  -11030919.01749  -8581723.24646  22780874.3794   22780880.4124
       229.0004        175.0004
  20230612.6334   -4910679.64849  -3818097.16947  20230612.0094   20230616.6444
       245.0004        212.0004
  24088353.1724   -4764377.62149  -3691408.02545  24088352.3014   24088358.3514
       205.0004        137.0004
  24627598.5664    2759920.73049   2147166.00845  24627598.2294   24627605.3894
       206.0004        142.0004
  24089672.7134   -7302774.05649  -5404947.71645  24089671.9874   24089679.5534
       214.0004        139.0004
  23540652.8414    8839418.98649   6878216.80645  23540652.3454   23540659.6734
       221.0004        162.0004
 03 12 17 17 58 30.0000000  0 10G31G29G28G27G 7G 8G26G10G11G13
  22541395.9014    4950521.96949   3852302.71546  22541395.8764   22541401.3474
       226.0004        169.0004
  23189643.5124  -10757177.60349  -8371243.29746  23189643.9744   23189649.2554
       222.0004        166.0004
  21077026.4364   -5436586.66349  -4229027.54447  21077025.8894   21077029.8034
       244.0004        208.0004
  20738287.1064    -403567.25849   -314387.77547  20738286.8834   20738291.9144
       242.0004        207.0004
  22762589.9274  -11127006.37349  -8656596.49146  22762588.7484   22762595.7594
       228.0004        174.0004
  20226255.5664   -4933576.23049  -3835938.67147  20226255.0054   20226260.0114
       245.0004        212.0004
  24070694.6694   -4857172.25349  -3763715.50545  24070695.0054   24070700.5364
       204.0004        135.0004
  24638424.1324    2816808.76949   2191494.23645  24638423.1954   24638430.8724
       206.0004        141.0004
  24079574.5074   -7355840.74249  -5446298.39245  24079573.3884   24079579.5624
       213.0004        140.0004
  23561601.4784    8949504.73149   6963997.79545  23561601.2734   23561607.3074
       220.0004        161.0004
 03 12 17 17 59  0.0000000  0 10G31G29G28G27G 7G 8G26G10G11G13
  22557530.9864    5035312.03049   3918372.80246  22557531.6064   22557535.7624
       226.0004        169.0004
  23174750.7294  -10835440.22049  -8432227.13746  23174750.4044   23174756.5444
       222.0004        165.0004
  21072135.2054   -5462290.24849  -4249056.32147  21072134.6254   21072138.5154
       244.0004        208.0004
  20742658.8484    -380593.54749   -296486.20347  20742658.5464   20742663.6204
       243.0004        207.0004
  22744345.7224  -11222879.86849  -8731303.07646  22744344.9984   22744351.9444
       229.0004        175.0004
  20221955.6124   -4956172.89149  -3853546.46547  20221955.0524   20221959.7744
       245.0004        212.0004
  24053089.2554   -4949689.25049  -3835806.64845  24053089.5134   24053096.4274
       208.0004        137.0004
  24649299.0704    2873957.37149   2236025.55545  24649298.7664   24649305.6034
       206.0004        141.0004
  24069522.6304   -7408663.22149  -5487458.75845  24069522.4564   24069529.3204
       214.0004        141.0004
  23582577.4434    9059733.66649   7049890.36145  23582578.0514   23582583.8154
       222.0004        161.0004
 03 12 17 17 59 30.0000000  0 10G31G29G28G27G 7G 8G26G10G11G13
  22573741.2534    5120497.16249   3984750.72246  22573741.2344   22573745.7904
       226.0004        170.0004
  23159924.9914  -10913349.76249  -8492935.86546  23159925.2174   23159930.7994
       222.0004        165.0004
  21067295.3144   -5487724.06749  -4268874.89247  21067294.7754   21067298.6854
       244.0004        208.0004
  20747092.4914    -357294.89349   -278331.43247  20747092.1474   20747097.2174
       243.0004        207.0004
  22726142.5414  -11318538.02149  -8805841.86846  22726141.6304   22726148.4064
       229.0004        176.0004
  20217712.8854   -4978468.55449  -3870919.72047  20217712.2394   20217716.9394
       245.0004        212.0004
  24035537.3024   -5041926.51049  -3907679.84245  24035536.3944   24035544.1814
       211.0004        139.0004
  24660223.1214    2931363.21649   2280757.32845  24660222.5134   24660230.0184
       206.0004        140.0004
  24059517.8034   -7461239.16449  -5528427.01645  24059517.7524   24059523.2104
       217.0004        143.0004
  23603580.1704    9170102.58349   7135892.02045  23603580.6714   23603586.7134
       221.0004        161.0004
 03 12 17 18  0  0.0000000  0 10G31G29G28G27G 7G 8G26G10G11G13
  22590026.2274    5206074.92549   4051434.59946  22590026.6204   22590032.1694
       227.0004        171.0004
  23145167.0524  -10990903.53049  -8553367.36246  23145165.9854   23145172.8994
       222.0004        165.0004
  21062506.7124   -5512888.25449  -4288483.35447  21062506.2204   21062510.2804
       244.0004        208.0004
  20751588.2304    -333669.79649   -259922.28847  20751587.7754   20751592.6824
       242.0004        207.0004
  22707980.7664  -11413978.28649  -8880210.87446  22707979.4834   22707987.2284
       230.0004        177.0004
  20213527.7244   -5000461.75949  -3888057.28847  20213527.0764   20213531.8994
       245.0004        212.0004
  24018038.8894   -5133880.92449  -3979332.58345  24018038.4984   24018044.7174
       212.0004        142.0004
  24671195.6444    2989024.11149   2325687.81845  24671194.7674   24671202.6744
       206.0004        139.0004
  24049560.4234   -7513565.74249  -5569200.96245  24049559.9964   24049566.0984
       215.0004        145.0004
  23624609.0644    9280609.32649   7222001.07345  23624609.3434   23624615.8964
       221.0004        161.0004
 03 12 17 18  0 30.0000000  0 10G31G29G28G27G 7G 8G26G10G11G13
  22606385.5164    5292042.99649   4118422.60946  22606385.0054   22606390.6954
       227.0004        171.0004
  23130477.3534  -11068098.74149  -8613519.47946  23130477.1744   23130482.8464
       222.0004        165.0004
  21057769.3714   -5537783.39049  -4307882.16547  21057768.8704   21057772.8744
       244.0004        208.0004
  20756146.2464    -309717.26549   -241258.00847  20756145.9094   20756151.1084
       243.0004        207.0004
  22689861.0654  -11509197.93849  -8954407.97546  22689859.9074   22689866.9414
       229.0004        177.0004
  20209400.5114   -5022150.55249  -3904957.65147  20209399.8344   20209404.6684
       245.0004        212.0004
  24000594.6964   -5225549.64549  -4050762.74445  24000594.5944   24000601.9284
       213.0004        144.0004
  24682216.2014    3046937.22449   2370814.85445  24682216.0074   24682223.6314
       207.0004        138.0004
  24039651.0994   -7565639.88949  -5609778.22245  24039651.4964   24039657.6204
       219.0004        147.0004
  23645663.6584    9391251.57249   7308215.71245  23645664.8474   23645669.3194
       220.0004        161.0004
 03 12 17 18  1  0.0000000  0 10G31G29G28G27G 7G 8G26G10G11G13
  22622818.3394    5378397.42949   4185711.68046  22622819.1484   22622823.5544
       227.0004        170.0004
  23115856.1284  -11144933.89449  -8673391.02846  23115855.7864   23115861.6014
       222.0004        165.0004
  21053082.8994   -5562410.99349  -4327072.50947  21053082.5144   21053086.3214
       244.0004        208.0004
  20760766.5564    -285437.42849   -222338.68047  20760766.4604   20760771.3414
       241.0004        207.0004
  22671783.5704  -11604195.62549  -9028432.11546  22671783.0814   22671789.3774
       229.0004        178.0004
  20205331.3364   -5043534.32149  -3921620.33348  20205330.7514   20205335.5754
       245.0004        213.0004
  23983205.4114   -5316930.68049  -4121968.71645  23983204.8934   23983211.5704
       212.0004        145.0004
  24693284.0754    3105098.68849   2416135.41845  24693283.2064   24693291.0024
       203.0004        135.0004
  24029790.2864   -7617459.96049  -5650157.48745  24029790.0924   24029796.5724
       217.0004        149.0004
  23666743.4744    9502026.11449   7394533.41345  23666744.6944   23666750.3334
       221.0004        161.0004
 03 12 17 18  1 30.0000000  0 10G31G29G28G27G 7G 8G26G10G11G13
  22639324.4884    5465137.02349   4253300.87246  22639325.3314   22639330.3054
       227.0004        170.0004
  23101304.1894  -11221405.02549  -8732978.91546  23101304.0104   23101309.0254
       222.0004        166.0004
  21048447.5884   -5586770.03449  -4346053.58947  21048447.0934   21048450.9064
       244.0004        208.0004
  20765449.6044    -260827.90849   -203162.46547  20765449.2194   20765454.3454
       242.0004        207.0004
  22653749.0294  -11698967.55049  -9102280.33546  22653748.2564   22653755.6454
       230.0004        178.0004
  20201320.6324   -5064610.55949  -3938043.38448  20201319.9774   20201324.9364
       245.0004        213.0004
  23965871.5394   -5408020.26149  -4192947.57245  23965870.7434   23965878.0294
       210.0004        146.0004
  24704398.7794    3163507.15949   2461648.42345  24704396.9024   24704405.4394
       204.0004        135.0004
  24019978.5224   -7669021.67349  -5690335.43445  24019977.9454   24019984.7724
       217.0004        150.0004
  23687848.0474    9612931.31249   7480952.91645  23687848.9734   23687855.0234
       221.0004        161.0004
 03 12 17 18  2  0.0000000  0 10G31G29G28G27G 7G 8G26G10G11G13
  22655903.1384    5552257.89849   4321187.16346  22655902.6554   22655908.4424
       226.0004        169.0004
  23086821.6844  -11297510.88149  -8792282.18046  23086821.4264   23086826.6744
       222.0004        166.0004
  21043862.9954   -5610862.24049  -4364826.73247  21043862.5174   21043866.4094
       244.0004        208.0004
  20770195.3914    -235888.71149   -183729.35647  20770195.1434   20770200.2574
       242.0004        207.0004
  22635757.6724  -11793512.56149  -9175951.72346  22635757.6814   22635764.2934
       231.0004        178.0004
  20197368.6464   -5085378.54449  -3954226.23247  20197368.0534   20197372.7394
       245.0004        212.0004
  23948593.5134   -5498816.42749  -4263697.79745  23948593.5544   23948600.0624
       211.0004        146.0004
  24715559.8644    3222158.53249   2507350.71945  24715559.3444   24715567.0094
       201.0004        134.0004
  24010216.2004   -7720323.43149  -5730310.82545  24010215.8334   24010222.3804
       219.0004        150.0004
  23708977.2254    9723963.77049   7567471.61345  23708977.2374   23708982.8854
       221.0004        161.0004
 03 12 17 18  2 30.0000000  0 10G31G29G28G27G 7G 8G26G10G11G13
  22672553.8654    5639757.52249   4389368.56746  22672552.4694   22672559.4064
       226.0004        169.0004
  23072409.2334  -11373248.55049  -8851298.55246  23072409.4134   23072414.5134
       222.0004        167.0004
  21039329.1254   -5634688.08349  -4383392.32347  21039328.8164   21039332.5274
       244.0004        209.0004
  20775004.0524    -210618.91549   -164038.64247  20775003.5444   20775008.6984
       242.0004        207.0004
  22617810.0874  -11887828.16649  -9249444.37646  22617809.7364   22617816.4014
       231.0004        178.0004
  20193475.5734   -5105836.73349  -3970167.68747  20193474.7984   20193479.7364
       245.0004        212.0004
  23931371.9994   -5589316.26349  -4334217.11945  23931371.5864   23931377.5334
       210.0004        145.0004
  24726766.5294    3281050.40249   2553240.41344  24726766.3064   24726774.9124
       201.0004        130.0004
  24000503.8124   -7771362.18349  -5770081.28045  24000503.2174   24000509.8994
       218.0004        151.0004
  23730129.8314    9835121.20749   7654087.67345  23730130.6224   23730135.7344
       221.0004        160.0004
 03 12 17 18  3  0.0000000  0 10G31G29G28G27G 7G 8G26G10G11G13
  22689276.1714    5727633.30449   4457843.09946  22689275.9114   22689281.2414
       224.0004        168.0004
  23058067.3164  -11448615.44749  -8910026.00446  23058067.3424   23058072.6634
       222.0004        167.0004
  21034845.8164   -5658247.88949  -4401750.60947  21034845.4204   21034849.2704
       244.0004        209.0004
  20779875.8704    -185017.49249   -144089.51647  20779875.4724   20779880.5864
       241.0004        206.0004
  22599906.5014  -11981911.83449  -9322756.28946  22599905.6214   22599912.5044
       230.0004        179.0004
  20189641.7394   -5125983.60249  -3985866.54948  20189641.2024   20189646.0384
       245.0004        213.0004
  23914207.3324   -5679516.88849  -4404503.27645  23914207.6594   23914214.6324
       209.0004        144.0004
  24738018.4064    3340179.97349   2599315.36744  24738018.8064   24738026.3154
       203.0004        131.0004
  23990842.0334   -7822135.03949  -5809644.54145  23990842.8254   23990847.5784
       218.0004        152.0004
  23751305.8304    9946401.22249   7740799.26545  23751305.6234   23751313.3124
       221.0004        159.0004
 03 12 17 18  3 30.0000000  0 10G31G29G28G27G 7G 8G26G10G11G13
  22706069.3824    5815882.28249   4526608.43346  22706069.2054   22706074.8974
       223.0004        167.0004
  23043796.4874  -11523609.50849  -8968462.93846  23043796.7114   23043801.8094
       222.0004        168.0004
  21030412.9954   -5681542.64849  -4419902.36647  21030412.5684   21030416.3674
       244.0004        209.0004
  20784810.9224    -159083.67149   -123881.38247  20784810.7454   20784815.7234
       242.0004        206.0004
  22582047.5224  -12075761.53549  -9395885.89146  22582047.1944   22582053.5824
       230.0004        180.0004
  20185867.4454   -5145817.76449  -4001321.74848  20185866.8154   20185871.7074
       245.0004        213.0004
  23897100.1284   -5769416.04849  -4474554.52745  23897100.4524   23897107.2754
       209.0004        144.0004
  24749315.1464    3399544.20649   2645573.14544  24749315.2264   24749323.7524
       203.0004        131.0004
  23981231.3724   -7872639.63849  -5848998.76345  23981230.7294   23981238.0084
       219.0004        153.0004
  23772504.6424   10057801.08149   7827604.24545  23772505.0574   23772509.7984
       220.0004        157.0004
 03 12 17 18  4  0.0000000  0 10G31G29G28G27G 7G 8G26G10G11G13
  22722933.0114    5904501.19549   4595662.02446  22722933.2214   22722938.9094
       223.0004        166.0004
  23029596.8654  -11598228.52049  -9026607.64446  23029596.9824   23029601.7774
       222.0004        168.0004
  21026030.4524   -5704573.11349  -4437848.18347  21026030.0824   21026033.7454
       244.0004        209.0004
  20789809.3554    -132817.07649   -103413.95347  20789809.1854   20789814.2264
       242.0004        206.0004
  22564233.3704  -12169375.39349  -9468831.72446  22564233.1964   22564239.5884
       231.0004        181.0004
  20182152.8114   -5165338.22749  -4016532.51148  20182152.2974   20182157.1754
       245.0004        213.0004
  23880050.5914   -5859011.29949  -4544368.95345  23880050.3854   23880057.4974
       207.0004        142.0004
  24760655.9754    3459140.02149   2692011.36244  24760653.7964   24760663.2444
       204.0004        130.0004
  23971672.1354   -7922873.56049  -5888142.05745  23971671.7874   23971678.4584
       218.0004        154.0004
  23793725.8154   10169318.05949   7914500.45545  23793725.8364   23793730.4074
       221.0004        156.0004
 03 12 17 18  4 30.0000000  0 10G31G29G28G27G 7G 8G26G10G11G13
  22739866.5884    5993487.57149   4665001.95146  22739866.2184   22739872.3724
       222.0004        166.0004
  23015469.1884  -11672469.91349  -9084458.07146  23015469.3824   23015473.9734
       222.0004        168.0004
  21021698.0724   -5727339.85749  -4455588.49947  21021697.7514   21021701.4914
       244.0004        209.0004
  20794871.3154    -106216.61849    -82686.36347  20794871.1504   20794876.2204
       242.0004        207.0004
  22546464.5704  -12262750.73649  -9541591.67946  22546463.7184   22546471.1834
       231.0004        181.0004
  20178498.1364   -5184543.58749  -4031497.74148  20178497.4674   20178502.5454
       245.0004        213.0004
  23863059.5984   -5948299.59349  -4613944.20845  23863060.1574   23863066.7264
       209.0004        142.0004
  24772040.3544    3518964.75749   2738627.99545  24772040.1234   24772045.5734
       207.0004        132.0004
  23962164.8834   -7972834.16349  -5927072.37645  23962163.7794   23962170.6414
       217.0004        153.0004
  23814968.7304   10280949.49849   8001485.88345  23814968.8304   23814975.3184
       220.0004        155.0004
 03 12 17 18  5  0.0000000  0 10G31G29G28G27G 7G 8G26G10G11G13
  22756869.6544    6082838.73949   4734626.13046  22756869.6974   22756874.8564
       222.0004        165.0004
  23001413.8984  -11746331.07949  -9142012.24046  23001413.8234   23001419.6104
       222.0004        169.0004
  21017415.8614   -5749843.13649  -4473123.52147  21017415.4264   21017419.0424
       245.0004        209.0004
  20799996.9404     -79281.33649    -61697.87247  20799996.7624   20800001.8184
       241.0004        206.0004
  22528741.5734  -12355885.40349  -9614164.09446  22528740.6174   22528747.6174
       231.0004        181.0004
  20174903.8364   -5203431.88749  -4046215.91248  20174903.1654   20174908.1934
       245.0004        213.0004
  23846127.5984   -6037278.09649  -4683278.06545  23846127.8794   23846134.8634
       209.0004        142.0004
  24783467.7944    3579015.77949   2785420.95644  24783467.7624   24783474.5624
       207.0004        131.0004
  23952710.2024   -8022518.44349  -5965787.36745  23952708.8954   23952715.7724
       214.0004        153.0004
  23836232.8814   10392693.04749   8088558.66245  23836233.7394   23836239.1374
       221.0004        155.0004
 03 12 17 18  5 30.0000000  0 10G31G29G28G27G 7G 8G26G10G11G13
  22773941.3944    6172551.52049   4804532.08846  22773940.5394   22773947.6064
       220.0004        164.0004
  22987431.2254  -11819809.96249  -9199268.52046  22987431.6824   22987436.6864
       223.0004        169.0004
  21013183.5344   -5772084.26949  -4490454.27847  21013183.1664   21013186.7764
       245.0004        209.0004
  20805186.3864     -52010.74249    -40448.10947  20805186.3194   20805191.2284
       242.0004        206.0004
  22511064.6914  -12448777.38749  -9686547.39246  22511063.5054   22511071.3804
       232.0004        182.0004
  20171370.0684   -5222002.09649  -4060686.22348  20171369.5114   20171374.3204
       245.0004        213.0004
  23829255.2304   -6125944.63349  -4752368.84545  23829255.8294   23829260.4784
       209.0004        142.0004
  24794937.5784    3639289.64549   2832387.54745  24794938.4814   24794943.7084
       208.0004        134.0004
  23943308.5114   -8071924.17149  -6004285.30045  23943307.6434   23943315.0784
       213.0004        152.0004
  23857518.0114   10504545.82649   8175716.55445  23857518.6744   23857524.3064
       221.0004        155.0004
 03 12 17 18  6  0.0000000  0 10G31G29G28G27G 7G 8G26G10G11G13
  22791081.5284    6262623.13849   4874717.67746  22791081.4434   22791087.1304
       220.0004        163.0004
  22973521.9264  -11892904.10149  -9256225.00346  22973521.7324   22973527.2384
       223.0004        169.0004
  21009001.0074   -5794063.68349  -4507581.09747  21009000.6124   21009004.2284
       244.0004        209.0004
  20810439.8414     -24403.96049    -18936.37747  20810439.7024   20810444.5114
       242.0004        206.0004
  22493434.4814  -12541424.31549  -9758739.74846  22493434.0304   22493440.9254
       229.0004        182.0004
  20167897.0924   -5240252.84349  -4074907.59448  20167896.3264   20167901.3744
       245.0004        213.0004
  23812442.5004   -6214296.49449  -4821214.42645  23812442.5994   23812448.3554
       210.0004        142.0004
  24806449.2344    3699783.55149   2879525.59045  24806450.0624   24806456.6034
       209.0004        136.0004
  23933960.3314   -8121048.53049  -6042563.97145  23933960.0244   23933967.1754
       214.0004        150.0004
  23878823.3724   10616505.31749   8262957.59145  23878823.9044   23878829.5474
       218.0004        154.0004
 03 12 17 18  6 30.0000000  0 10G31G29G28G27G 7G 8G26G10G11G13
  22808289.3514    6353051.03749   4945180.87245  22808288.9904   22808295.5224
       221.0004        162.0004
  22959686.2174  -11965610.85149  -9312879.61746  22959686.1604   22959691.2294
       222.0004        170.0004
  21004868.1914   -5815781.88149  -4524504.37447  21004867.7334   21004871.5884
       245.0004        209.0004
  20815757.4944       3540.04849      2838.12347  20815757.1514   20815762.3304
       242.0004        206.0004
  22475851.3344  -12633823.78449  -9830739.28146  22475850.8124   22475857.5444
       230.0004        182.0004
  20164485.2604   -5258182.29549  -4088878.61548  20164484.6884   20164489.3884
       245.0004        213.0004
  23795690.1414   -6302330.46349  -4889812.29945  23795690.3164   23795695.8264
       211.0004        142.0004
  24818002.4294    3760494.91149   2926833.09945  24818003.0744   24818008.7394
       211.0004        135.0004
  23924666.3174   -8169888.44249  -6080620.97345  23924665.4994   23924671.9194
       212.0004        149.0004
  23900148.5634   10728569.11049   8350279.90845  23900147.3924   23900152.9784
       216.0004        153.0004
 03 12 17 18  7  0.0000000  0 10G31G29G28G27G 7G 8G26G10G11G13
  22825564.3964    6443831.91449   5015919.13746  22825564.9504   22825570.3304
       221.0004        163.0004
  22945924.7184  -12037928.25449  -9369230.85846  22945925.3864   22945929.5274
       225.0004        170.0004
  21000784.8734   -5837239.91249  -4541224.92447  21000784.3504   21000788.3674
       244.0004        209.0004
  20821139.3344      31821.53649     24875.60447  20821139.0554   20821144.2414
       241.0004        206.0004
  22458315.5984  -12725974.02449  -9902544.60146  22458315.4124   22458321.7824
       231.0004        182.0004
  20161134.7294   -5275789.72549  -4102598.70448  20161134.0274   20161138.9204
       245.0004        213.0004
  23778998.5904   -6390044.47649  -4958160.83945  23778998.2624   23779003.6234
       212.0004        143.0004
  24829596.2404    3821420.32249   2974307.37645  24829595.0294   24829602.8544
       209.0004        135.0004
  23915426.8284   -8218441.99849  -6118454.85945  23915426.2554   23915432.5194
       213.0004        149.0004
  23921492.9294   10840734.22849   8437681.15145  23921492.5554   23921499.2724
       215.0004        153.0004
 03 12 17 18  7 30.0000000  0  9G31G29G28G27G 7G 8G26G11G13
  22842906.7164    6534965.85349   5086932.49346  22842906.3254   22842913.5494
       222.0004        163.0004
  22932238.3644  -12109851.00949  -9425274.56846  22932239.1414   22932243.2214
       224.0004        171.0004
  20996751.4844   -5858435.44149  -4557740.93347  20996750.9124   20996754.9464
       244.0004        209.0004
  20826586.1154      60444.38549     47179.07747  20826585.8354   20826590.9854
       242.0004        206.0004
  22440828.4974  -12817869.84249  -9974151.67646  22440827.7984   22440834.8424
       230.0004        182.0004
  20157846.2634   -5293070.60849  -4116064.34248  20157845.6044   20157850.5394
       245.0004        213.0004
  23762369.0144   -6477433.06849  -5026255.80045  23762369.2844   23762375.2694
       210.0004        143.0004
  23906242.9364   -8266703.67949  -6156061.30145  23906243.3124   23906247.6954
       214.0004        149.0004
  23942856.7504   10953001.16649   8525161.73245  23942855.7964   23942861.8654
       215.0004        153.0004
 03 12 17 18  8  0.0000000  0  9G31G29G28G27G 7G 8G26G11G13
  22860315.5014    6626449.05849   5158218.00646  22860315.6934   22860321.9604
       223.0004        164.0004
  22918627.2434  -12181377.76449  -9481009.71246  22918627.0954   22918632.5784
       224.0004        171.0004
  20992767.7874   -5879369.99449  -4574053.58747  20992767.3604   20992771.1624
       245.0004        209.0004
  20832097.8114      89408.31649     69748.33347  20832097.5194   20832102.5894
       241.0004        206.0004
  22423389.9254  -12909510.15349 -10045559.65146  22423389.8304   22423395.9494
       231.0004        182.0004
  20154620.0374   -5310024.58249  -4129275.24548  20154619.3274   20154624.2664
       245.0004        213.0004
  23745801.6514   -6564494.37749  -5094095.73045  23745801.0744   23745807.7724
       208.0004        145.0004
  23897114.8394   -8314671.73549  -6193438.92845  23897114.7524   23897121.4514
       214.0004        148.0004
  23964239.1764   11065366.23749   8612718.78645  23964239.9324   23964246.0964
       218.0004        155.0004
 03 12 17 18  8 30.0000000  0  9G31G29G28G27G 7G 8G26G11G13
  22877789.5744    6718274.69349   5229770.34246  22877789.5164   22877795.4784
       223.0004        165.0004
  22905091.3314  -12252510.05549  -9536437.48146  22905091.2854   22905096.7894
       226.0004        171.0004
  20988832.8174   -5900048.43049  -4590166.67547  20988832.2844   20988836.2224
       244.0004        209.0004
  20837673.7704     118709.98349     92580.75947  20837673.7194   20837678.6634
       242.0004        206.0004
  22405999.6134  -13000896.64949 -10116769.86946  22405999.3794   22406005.0444
       231.0004        181.0004
  20151455.4944   -5326654.26649  -4142233.45948  20151455.0184   20151459.7664
       245.0004        213.0004
  23729296.3604   -6651229.86949  -5161681.77145  23729296.8404   23729302.5684
       210.0004        146.0004
  23888042.4084   -8362347.64349  -6230588.92645  23888042.2824   23888047.7764
       216.0004        148.0004
  23985639.2094   11177823.01949   8700347.29845  23985639.4474   23985645.4974
       220.0004        156.0004
 03 12 17 18  9  0.0000000  0  9G31G29G28G27G 7G 8G26G11G13
  22895328.3524    6810440.83849   5301588.01146  22895329.1734   22895334.7484
       222.0004        165.0004
  22891631.0284  -12323244.88049  -9591555.54546  22891630.9644   22891636.5814
       225.0004        171.0004
  20984946.6694   -5920470.38449  -4606079.90847  20984946.3144   20984950.1924
       244.0004        209.0004
  20843314.3774     148351.07849    115677.67147  20843314.3144   20843319.0944
       242.0004        206.0004
  22388658.2354  -13092026.14449 -10187779.82146  22388657.5554   22388664.4744
       232.0004        182.0004
  20148353.1144   -5342957.34049  -4154937.17248  20148352.6464   20148357.5084
       245.0004        213.0004
  23712853.8484   -6737635.98449  -5229011.16345  23712853.8234   23712860.5604
       210.0004        147.0004
  23879026.3834   -8409728.05149  -6267508.67645  23879026.0844   23879031.9824
       217.0004        149.0004
  24007056.3414   11290369.77949   8788045.94745  24007057.1604   24007061.5904
       221.0004        157.0004
 03 12 17 18  9 30.0000000  0  9G31G29G28G27G 7G 8G26G11G13
  22912931.3464    6902944.61449   5373668.78046  22912932.2674   22912937.4564
       222.0004        165.0004
  22878246.7134  -12393579.77049  -9646361.96546  22878245.7404   22878251.4064
       225.0004        171.0004
  20981109.2244   -5940636.63549  -4621793.88847  20981108.7914   20981112.4764
       244.0004        209.0004
  20849019.6474     178332.44749    139039.73547  20849019.3344   20849024.5794
       241.0004        205.0004
  22371366.1954  -13182896.67649 -10258587.98546  22371365.1064   22371371.6234
       231.0004        183.0004
  20145313.1764   -5358932.44249  -4167385.31848  20145312.6904   20145317.4174
       245.0004        213.0004
  23696474.5704   -6823710.21049  -5296081.92545  23696474.8424   23696481.1544
       212.0004        148.0004
  23870067.0424   -8456810.16849  -6304195.96445  23870067.1164   23870072.3974
       217.0004        150.0004
  24028490.0434   11403004.05049   8875812.73945  24028490.8224   24028497.0594
       221.0004        157.0004
 03 12 17 18 10  0.0000000  0  9G31G29G28G27G 7G 8G26G11G13
  22930598.2774    6995784.25249   5446011.24146  22930598.4374   22930604.4784
       222.0004        164.0004
  22864939.2294  -12463511.46449  -9700854.21746  22864939.4824   22864944.6974
       226.0004        171.0004
  20977320.4624   -5960546.79149  -4637308.31647  20977319.9244   20977323.7124
       245.0004        209.0004
  20854789.9724     208655.63249    162668.15047  20854789.5604   20854794.9264
       241.0004        205.0004
  22354123.9574  -13273504.96349 -10329191.80446  22354123.2334   22354129.6894
       233.0004        184.0004
  20142336.0954   -5374577.10649  -4179575.98148  20142335.5414   20142340.3434
       245.0004        213.0004
  23680159.1394   -6909448.59949  -5362891.02045  23680158.8174   23680165.1474
       212.0004        148.0004
  23861165.0664   -8503590.50449  -6340648.12445  23861164.8994   23861170.7704
       217.0004        151.0004
  24049940.1754   11515723.72349   8963646.11945  24049940.7324   24049946.9724
       222.0004        158.0004
 03 12 17 18 10 30.0000000  0  9G31G29G28G27G 7G 8G26G11G13
  22948328.5364    7088956.85249   5518613.14546  22948328.6134   22948335.1994
       222.0004        164.0004
  22851708.9534  -12533037.47949  -9755030.34446  22851709.3114   22851713.2514
       225.0004        171.0004
  20973580.3294   -5980201.54449  -4652623.73347  20973579.7734   20973583.5754
       245.0004        209.0004
  20860625.4814     239321.54749    186563.62847  20860625.4404   20860630.6744
       242.0004        205.0004
  22336932.1304  -13363848.65849 -10399589.46646  22336931.3344   22336937.9974
       233.0004        185.0004
  20139422.2294   -5389889.81849  -4191507.98548  20139421.6784   20139426.7054
       245.0004        213.0004
  23663908.1344   -6994848.66849  -5429436.48645  23663908.0274   23663914.6584
       213.0004        151.0004
  23852320.9944   -8550066.36649  -6376863.03545  23852320.4524   23852326.2644
       219.0004        151.0004
  24071406.0684   11628526.65249   9051544.34045  24071405.7534   24071411.3434
       221.0004        157.0004
 03 12 17 18 11  0.0000000  0  9G31G29G28G27G 7G 8G26G11G13
  22966121.6024    7182459.46949   5591472.21346  22966121.5354   22966127.4184
       221.0004        163.0004
  22838556.1724  -12602155.71749  -9808888.74446  22838555.6774   22838560.9674
       225.0004        171.0004
  20969888.6454   -5999601.49049  -4667740.59947  20969888.1884   20969891.8144
       244.0004        209.0004
  20866526.4004     270330.73549    210726.59247  20866526.2244   20866531.4104
       242.0004        205.0004
  22319791.0274  -13453925.90349 -10469779.48546  22319791.1204   22319796.7154
       233.0004        185.0004
  20136571.7074   -5404869.38949  -4203180.39548  20136570.9524   20136576.1784
       245.0004        213.0004
  23647721.8854   -7079907.84449  -5495716.31445  23647720.7344   23647727.6444
       212.0004        151.0004
  23843535.3144   -8596235.23649  -6412838.71945  23843535.4844   23843541.4554
       217.0004        152.0004
  24092887.1314   11741410.15749   9139505.38045  24092888.2814   24092892.4554
       221.0004        155.0004
 03 12 17 18 11 30.0000000  0  9G31G29G28G27G 7G 8G26G11G13
  22983976.9254    7276289.88649   5664586.70346  22983977.3544   22983983.4664
       221.0004        163.0004
  22825481.5794  -12670863.24649  -9862427.08646  22825481.4584   22825486.9424
       225.0004        171.0004
  20966245.4274   -6018746.90949  -4682659.13247  20966244.9014   20966248.6714
       244.0004        209.0004
  20872492.9454     301684.61249    235158.13847  20872492.9044   20872497.7534
       241.0004        205.0004
  22302701.1434  -13543733.81849 -10539759.65446  22302700.4324   22302707.2084
       233.0004        186.0004
  20133784.9614   -5419513.88049  -4214591.71148  20133784.5314   20133789.3934
       245.0004        213.0004
  23631600.9174   -7164622.89449  -5561728.00845  23631600.5634   23631607.4564
       213.0004        151.0004
  23834808.6064   -8642094.18249  -6448572.90945  23834808.4954   23834815.2494
       217.0004        152.0004
  24114383.2824   11854372.36449   9227527.73845  24114384.0294   24114388.9214
       221.0004        153.0004
 03 12 17 18 12  0.0000000  0  9G31G29G28G27G 7G 8G26G11G13
  23001894.1484    7370445.26349   5737954.39845  23001894.0004   23001901.0784
       218.0004        162.0004
  22812485.5754  -12739157.80649  -9915643.63046  22812485.5454   22812491.2604
       225.0004        171.0004
  20962650.4824   -6037638.27949  -4697379.69847  20962650.0594   20962653.8744
       244.0004        209.0004
  20878525.0824     333383.66449    259858.65647  20878524.7584   20878530.2474
       241.0004        205.0004
  22285662.8564  -13633270.39349 -10609528.38446  22285662.0874   22285668.2584
       233.0004        186.0004
  20131062.3404   -5433821.74549  -4225740.71448  20131061.9964   20131066.7184
       246.0004        213.0004
  23615545.9854   -7248991.19949  -5627469.51445  23615546.7374   23615552.2684
       214.0004        151.0004
  23826141.4334   -8687640.48249  -6484063.49545  23826140.5364   23826146.0864
       218.0004        153.0004
  24135893.7884   11967410.49649   9315609.24845  24135893.4194   24135899.5494
       219.0004        151.0004
 03 12 17 18 12 30.0000000  0  9G31G29G28G27G 7G 8G26G11G13
  23019872.4724    7464921.94349   5811572.46945  23019872.2844   23019879.5524
       218.0004        162.0004
  22799568.4564  -12807037.75149  -9968537.10346  22799568.1174   22799574.0374
       226.0004        172.0004
  20959103.6744   -6056276.99549  -4711903.39947  20959103.2754   20959106.9944
       244.0004        209.0004
  20884622.8684     365428.03549    284828.25147  20884622.4774   20884628.0774
       241.0004        204.0004
  22268676.5044  -13722534.13049 -10679084.52246  22268675.9364   22268682.7444
       233.0004        186.0004
  20128403.8294   -5447792.50349  -4236627.04048  20128403.1964   20128408.2844
       246.0004        213.0004
  23599557.6514   -7333010.89149  -5692939.39045  23599557.1574   23599563.4044
       213.0004        150.0004
  23817534.0634   -8732872.62149  -6519309.30245  23817534.0944   23817540.0284
       219.0004        154.0004
  24157418.4224   12080521.52749   9403747.58445  24157417.9184   24157424.2984
       218.0004        149.0004
 03 12 17 18 13  0.0000000  0  9G31G29G28G27G 7G 8G26G11G13
  23037911.6234    7559717.38249   5885438.92945  23037911.1564   23037918.7854
       219.0004        161.0004
  22786730.6944  -12874500.73649 -10021105.67446  22786729.8354   22786735.7394
       226.0004        172.0004
  20955604.8044   -6074663.75649  -4726230.76447  20955604.2774   20955608.3354
       245.0004        209.0004
  20890786.5854     397818.49149    310067.52447  20890786.5094   20890791.7524
       242.0004        204.0004
  22251742.5124  -13811522.72249 -10748426.25646  22251741.6204   22251748.0354
       233.0004        187.0004
  20125809.7514   -5461424.41449  -4247249.33248  20125809.3324   20125814.1464
       246.0004        213.0004
  23583636.1744   -7416679.18849  -5758135.45245  23583635.5994   23583642.5714
       213.0004        150.0004
  23808986.9944   -8777787.65449  -6554308.00545  23808986.9514   23808992.1874
       219.0004        155.0004
  24178956.2264   12193703.06249   9491940.86045  24178956.4474   24178961.6154
       217.0004        145.0004
 03 12 17 18 13 30.0000000  0  9G31G29G28G27G 7G 8G26G11G13
  23056010.7144    7654828.52449   5959551.38445  23056010.3464   23056017.4464
       219.0004        161.0004
  22773972.6024  -12941544.59749 -10073347.64346  22773972.4374   22773977.9714
       225.0004        172.0004
  20952153.7524   -6092799.36249  -4740362.42847  20952153.1264   20952157.1284
       244.0004        209.0004
  20897016.3154     430555.53649    335576.86447  20897016.1674   20897021.4364
       241.0004        204.0004
  22234861.2834  -13900234.06349 -10817551.94746  22234860.6364   22234867.5074
       233.0004        187.0004
  20123280.5004   -5474716.13449  -4257606.53848  20123280.0434   20123284.6954
       246.0004        213.0004
  23567781.9534   -7499993.45449  -5823055.63345  23567782.0944   23567787.6484
       214.0004        150.0004
  23800500.8074   -8822382.95749  -6589057.60045  23800500.8164   23800505.3624
       220.0004        155.0004
  24200507.0694   12306952.38049   9580186.92445  24200507.4774   24200514.0224
       216.0004        143.0004
 03 12 17 18 14  0.0000000  0  9G31G29G28G27G 7G 8G26G11G13
  23074169.4154    7750252.79849   6033907.84545  23074169.2554   23074176.1764
       218.0004        160.0004
  22761294.7904  -13008166.81749 -10125261.06346  22761294.0344   22761299.5754
       226.0004        172.0004
  20948750.4014   -6110684.11449  -4754298.62147  20948749.8824   20948753.5764
       244.0004        209.0004
  20903312.1554     463640.06049    361356.96147  20903312.0484   20903317.1224
       241.0004        204.0004
  22218033.2474  -13988665.90549 -10886459.84546  22218032.7464   22218039.3784
       234.0004        187.0004
  20120816.2064   -5487666.31449  -4267697.61148  20120815.7194   20120820.5374
       246.0004        213.0004
  23551995.6804   -7582951.07249  -5887697.92245  23551996.3424   23552002.2174
       214.0004        151.0004
  23792075.8984   -8866656.15049  -6623556.17845  23792075.2694   23792081.7664
       220.0004        155.0004
  24222070.2904   12420266.78449   9668483.73845  24222069.9604   24222075.2254
       214.0004        141.0004
 03 12 17 18 14 30.0000000  0  9G31G29G28G27G 7G 8G26G11G13
  23092387.1384    7845987.39449   6108506.13545  23092387.2834   23092393.1694
       219.0004        159.0004
  22748697.7044  -13074365.14749 -10176844.18946  22748697.0254   22748702.9944
       225.0004        172.0004
  20945394.7034   -6128318.53449  -4768039.74547  20945394.0354   20945398.0874
       244.0004        209.0004
  20909674.2524     497072.84049    387408.42647  20909673.9144   20909679.1224
       241.0004        204.0004
  22201258.7574  -14076816.02849 -10955148.21546  22201257.8594   22201264.9664
       233.0004        187.0004
  20118417.2004   -5500273.33949  -4277521.28548  20118416.5104   20118421.3174
       245.0004        213.0004
  23536277.8874   -7665549.25149  -5952060.11745  23536278.5834   23536283.3984
       212.0004        150.0004
  23783712.7264   -8910604.58749  -6657801.70845  23783712.6484   23783718.2044
       219.0004        154.0004
  24243645.1624   12533644.15649   9756829.55745  24243645.4534   24243651.0744
       215.0004        143.0004
 03 12 17 18 15  0.0000000  0  9G31G29G28G27G 7G 8G26G11G13
  23110663.4274    7942028.90649   6183343.58045  23110663.1414   23110668.4054
       220.0004        157.0004
  22736181.5084  -13140137.80149 -10228095.60946  22736181.1994   22736187.5824
       226.0004        173.0004
  20942086.3814   -6145703.98049  -4781586.85947  20942086.0064   20942089.6994
       244.0004        209.0004
  20916102.6734     530854.09949    413731.44547  20916102.1844   20916107.5594
       240.0004        204.0004
  22184538.2564  -14164682.82849 -11023615.81146  22184537.9844   22184543.8744
       233.0004        187.0004
  20116083.6354   -5512536.47249  -4287076.98948  20116083.0164   20116087.8484
       246.0004        213.0004
  23520628.6884   -7747785.85949  -6016140.55045  23520627.9784   23520635.1814
       212.0004        149.0004
  23775411.7474   -8954226.33349  -6691792.69445  23775410.6764   23775416.4894
       217.0004        153.0004
  24265231.8234   12647081.33249   9845222.03845  24265231.8304   24265237.9034
       216.0004        146.0004
 03 12 17 18 15 30.0000000  0  9G31G29G28G27G 7G 8G26G11G13
  23128997.6624    8038375.15849   6258418.48945  23128998.3284   23129004.1474
       218.0004        155.0004
  22723747.0024  -13205481.87049 -10279013.05946  22723747.1574   22723752.8064
       227.0004        173.0004
  20938825.4524   -6162840.55349  -4794940.04747  20938824.8934   20938828.8284
       244.0004        209.0004
  20922597.5054     564984.90349    440326.83347  20922597.3374   20922602.6434
       241.0004        204.0004
  22167872.1114  -14252263.67149 -11091860.58246  22167871.4124   22167877.7584
       233.0004        187.0004
  20113815.9794   -5524453.47149  -4296362.98448  20113815.5354   20113820.1544
       246.0004        213.0004
  23505048.6724   -7829657.85949  -6079936.89945  23505048.9334   23505054.7034
       215.0004        150.0004
  23767173.4514   -8997518.01549  -6725526.46945  23767173.5184   23767179.1544
       217.0004        152.0004
  24286829.1994   12760576.52049   9933659.69345  24286829.0584   24286834.9924
       216.0004        149.0004
 03 12 17 18 16  0.0000000  0  9G31G29G28G27G 7G 8G26G11G13
  23147389.3484    8135023.02649   6333728.42445  23147388.2274   23147394.8974
       217.0004        154.0004
  22711394.3994  -13270395.52549 -10329595.11646  22711394.4794   22711399.7584
       228.0004        174.0004
  20935611.6594   -6179729.23749  -4808100.07847  20935611.2684   20935614.8324
       244.0004        209.0004
  20929159.0124     599465.64149    467194.90447  20929158.9254   20929163.9724
       241.0004        203.0004
  22151260.8414  -14339556.50049 -11159880.91946  22151259.7624   22151266.9554
       233.0004        187.0004
  20111614.2974   -5536023.42049  -4305378.53948  20111613.5304   20111618.5114
       246.0004        213.0004
  23489538.9064   -7911162.75449  -6143447.19745  23489539.0804   23489544.7574
       215.0004        152.0004
  23758998.4214   -9040477.58649  -6759001.45945  23758997.6384   23759002.8934
       217.0004        152.0004
  24308436.9924   12874126.67049  10022140.19045  24308436.9594   24308442.8664
       219.0004        151.0004
 03 12 17 18 16 30.0000000  0  9G31G29G28G27G 7G 8G26G11G13
  23165837.5794    8231969.14949   6409270.76345  23165837.1254   23165844.0284
       218.0004        154.0004
  22699123.9914  -13334876.98849 -10379840.40446  22699123.4644   22699128.9294
       227.0004        174.0004
  20932444.8684   -6196371.03349  -4821067.73047  20932444.3504   20932448.0594
       244.0004        209.0004
  20935787.1934     634296.52949    494335.81347  20935787.0064   20935792.4204
       241.0004        203.0004
  22134704.5994  -14426559.83649 -11227675.67346  22134703.7834   22134710.5184
       234.0004        187.0004
  20109478.8214   -5547245.31849  -4314122.89348  20109478.0184   20109483.2404
       246.0004        213.0004
  23474099.3414   -7992298.55949  -6206669.89745  23474098.6604   23474105.3644
       215.0004        153.0004
  23750887.0654   -9083103.12449  -6792216.17945  23750887.0834   23750892.8774
       217.0004        153.0004
  24330054.9404   12987728.87949  10110661.24045  24330055.0234   24330061.4194
       219.0004        153.0004
 03 12 17 18 17  0.0000000  0  9G31G29G28G27G 7G 8G26G11G13
  23184342.0284    8329211.02949   6485043.54845  23184341.5744   23184348.0474
       218.0004        156.0004
  22686936.3114  -13398923.72649 -10429746.95246  22686935.6714   22686941.9654
       227.0004        174.0004
  20929324.9754   -6212766.35949  -4833843.32647  20929324.6504   20929328.4424
       243.0004        209.0004
  20942482.2164     669478.56449    521750.34747  20942481.8814   20942487.4634
       242.0004        203.0004
  22118203.9244  -14513271.38249 -11295243.05547  22118203.4164   22118209.6634
       234.0004        188.0004
  20107409.8834   -5558117.49849  -4322594.73648  20107409.4804   20107414.1544
       246.0004        213.0004
  23458730.4894   -8073062.24549  -6269602.63645  23458730.6994   23458736.9644
       216.0004        154.0004
  23742839.7544   -9125391.91149  -6825168.49945  23742839.4844   23742845.7924
       217.0004        153.0004
  24351682.2964   13101380.94349  10199221.14645  24351682.2314   24351689.2524
       218.0004        154.0004
 03 12 17 18 17 30.0000000  0  9G31G29G28G27G 7G 8G26G11G13
  23202902.4304    8426745.78949   6561044.55545  23202902.2354   23202908.9064
       218.0004        156.0004
  22674831.6894  -13462533.73649 -10479313.18346  22674831.8814   22674837.0744
       228.0004        174.0004
  20926251.7924   -6228915.98049  -4846427.46047  20926251.2984   20926255.1484
       243.0004        209.0004
  20949244.0834     705012.19749    549438.86047  20949243.7904   20949249.0814
       242.0004        203.0004
  22101759.1624  -14599688.92049 -11362581.33847  22101758.6914   22101764.9894
       235.0004        188.0004
  20105407.7984   -5568638.78049  -4330793.15548  20105407.1664   20105412.1604
       246.0004        213.0004
  23443432.8554   -8153451.33349  -6332243.46645  23443432.6494   23443439.5894
       217.0004        154.0004
  23734856.9844   -9167341.54149  -6857856.51745  23734856.5514   23734862.5764
       216.0004        153.0004
  24373318.7724   13215080.21149  10287817.80345  24373319.2724   24373324.1134
       219.0004        155.0004
 03 12 17 18 18  0.0000000  0  9G31G29G28G27G 7G 8G26G11G13
  23221517.9734    8524570.30749   6637271.32345  23221516.9184   23221525.1614
       219.0004        159.0004
  22662810.6134  -13525704.99649 -10528537.53146  22662810.8924   22662815.6124
       227.0004        174.0004
  20923225.1614   -6244820.77349  -4858820.81747  20923224.6834   20923228.5784
       243.0004        209.0004
  20956072.9074     740897.79349    577401.63647  20956072.5234   20956077.9914
       242.0004        203.0004
  22085370.7414  -14685810.78349 -11429689.20847  22085369.7874   22085376.5314
       235.0004        189.0004
  20103472.6844   -5578807.96949  -4338717.21048  20103472.0364   20103477.1434
       246.0004        213.0004
  23428207.0654   -8233463.68149  -6394590.73645  23428207.5394   23428212.8924
       216.0004        155.0004
  23726939.2124   -9208949.57449  -6890278.37345  23726939.3624   23726945.6294
       216.0004        153.0004
  24394963.7314   13328823.99049  10376449.18645  24394963.8984   24394969.1774
       217.0004        155.0004
 03 12 17 18 18 30.0000000  0  9G31G29G28G27G 7G 8G26G11G13
  23240187.9694    8622681.75249   6713721.65545  23240187.7834   23240194.8414
       219.0004        160.0004
  22650873.4534  -13588435.18449 -10577418.18446  22650872.9174   22650878.0774
       228.0004        174.0004
  20920245.0854   -6260481.24149  -4871023.79847  20920244.5364   20920248.7114
       243.0004        209.0004
  20962968.8374     777136.06349    605639.21347  20962968.4994   20962973.5614
       241.0004        203.0004
  22069038.9064  -14771634.80649 -11496565.00147  22069038.5034   22069044.7834
       235.0004        189.0004
  20101604.8334   -5588623.56249  -4346365.73948  20101604.1494   20101609.2514
       246.0004        214.0004
  23413053.4284   -8313096.56549  -6456642.32145  23413053.4204   23413060.1394
       216.0004        154.0004
  23719087.0154   -9250213.71549  -6922432.24145  23719086.2084   23719093.3084
       216.0004        153.0004
  24416616.4804   13442609.99449  10465113.43145  24416615.8094   24416623.0734
       217.0004        153.0004
 03 12 17 18 19  0.0000000  0  9G31G29G28G27G 7G 8G26G11G13
  23258912.1614    8721077.36249   6790393.41745  23258912.4004   23258918.9124
       218.0004        160.0004
  22639020.5744  -13650722.48049 -10625953.72246  22639020.1134   22639026.0644
       228.0004        174.0004
  20917311.3534   -6275898.12449  -4883036.96547  20917310.6474   20917314.5114
       243.0004        209.0004
  20969931.9654     813727.33849    634151.86947  20969931.7184   20969937.0374
       242.0004        203.0004
  22052764.2614  -14857158.90249 -11563207.07747  22052763.5494   22052769.7524
       235.0004        190.0004
  20099804.5804   -5598084.09249  -4353737.59348  20099803.9554   20099808.9574
       246.0004        214.0004
  23397972.4474   -8392347.38949  -6518396.19245  23397971.6714   23397978.3994
       215.0004        153.0004
  23711300.7284   -9291131.49149  -6954316.21545  23711300.1484   23711305.9524
       218.0004        154.0004
  24438276.7064   13556435.57349  10553808.51745  24438276.3534   24438282.6554
       214.0004        151.0004
 03 12 17 18 19 30.0000000  0  9G31G29G28G27G 7G 8G26G11G13
  23277689.9434    8819754.57749   6867284.59245  23277689.8114   23277697.7284
       217.0004        159.0004
  22627252.5124  -13712564.04949 -10674141.94746  22627252.2694   22627258.0134
       228.0004        174.0004
  20914423.9004   -6291071.95749  -4894860.74747  20914423.4064   20914427.2714
       243.0004        209.0004
  20976962.4754     850672.67449    662940.40947  20976961.8814   20976967.5844
       241.0004        203.0004
  22036547.0184  -14942380.77949 -11629613.66847  22036546.3364   22036552.7244
       235.0004        190.0004
  20098072.1814   -5607188.10849  -4360831.65148  20098071.5754   20098076.5394
       246.0004        214.0004
  23382964.7534   -8471213.25949  -6579850.11045  23382965.3504   23382971.0244
       214.0004        153.0004
  23703580.8184   -9331700.16949  -6985928.16045  23703580.3434   23703586.1784
       217.0004        154.0004
  24459944.3114   13670298.31849  10642532.57145  24459945.4724   24459951.6954
       214.0004        149.0004
 03 12 17 18 20  0.0000000  0  9G31G29G28G27G 7G 8G26G11G13
  23296520.6544    8918709.89249   6944392.47245  23296520.4944   23296526.8984
       215.0004        157.0004
  22615569.4794  -13773958.71149 -10721981.93446  22615569.7174   22615574.2914
       228.0004        175.0004
  20911582.4754   -6306003.87149  -4906496.02047  20911581.8834   20911585.8274
       243.0004        209.0004
  20984060.2894     887971.93949    692004.74147  20984059.9784   20984065.6964
       241.0004        203.0004
  22020387.5364  -15027299.10049 -11695783.72447  22020386.5944   22020392.8144
       235.0004        191.0004
  20096407.7384   -5615934.92849  -4367647.36848  20096406.9174   20096412.0364
       246.0004        214.0004
  23368030.5794   -8549692.36449  -6641002.63445  23368030.7694   23368037.6054
       217.0004        154.0004
  23695927.6594   -9371918.00349  -7017266.70045  23695927.7814   23695932.8834
       219.0004        153.0004
  24481618.4394   13784195.23849  10731283.22245  24481616.7194   24481626.3124
       207.0004        144.0004
 03 12 17 18 20 30.0000000  0  9G31G29G28G27G 7G 8G26G11G13
  23315403.7574    9017940.71149   7021715.00745  23315404.0024   23315411.8954
       215.0004        154.0004
  22603971.9334  -13834903.98949 -10769471.74546  22603971.4364   22603976.9904
       228.0004        175.0004
  20908786.9614   -6320694.44949  -4917943.23747  20908786.4084   20908790.3254
       243.0004        209.0004
  20991225.5694     925625.76249    721345.35047  20991225.2874   20991230.9124
       241.0004        203.0004
  22004286.2484  -15111911.51649 -11761715.42247  22004285.7304   22004291.8134
       235.0004        191.0004
  20094811.5674   -5624322.79549  -4374183.38148  20094810.9724   20094815.9544
       246.0004        214.0004
  23353170.7344   -8627781.95349  -6701851.64145  23353170.1174   23353177.1264
       217.0004        155.0004
  23688341.7414   -9411782.45049  -7048329.86345  23688341.6224   23688346.8074
       219.0004        154.0004
  24503298.5164   13898123.81249  10820058.51445  24503300.7984   24503304.2094
       209.0004        140.0004
 03 12 17 18 21  0.0000000  0  9G31G29G28G27G 7G 8G26G11G13
  23334338.8414    9117444.21749   7099250.03245  23334338.8034   23334346.5434
       214.0004        153.0004
  22592460.2714  -13895397.74249 -10816609.71046  22592459.4064   22592464.9614
       228.0004        175.0004
  20906037.2004   -6335144.46249  -4929203.00147  20906036.6224   20906040.8024
       243.0004        209.0004
  20998458.5344     963634.92549    750962.85247  20998458.1104   20998463.6044
       242.0004        203.0004
  21988243.6234  -15196216.16649 -11827407.31047  21988242.7264   21988249.1404
       236.0004        191.0004
  20093283.9634   -5632350.53649  -4380438.77548  20093283.3494   20093288.3104
       246.0004        214.0004
  23338385.2644   -8705479.59749  -6762395.24745  23338385.0724   23338391.5364
       217.0004        155.0004
  23680823.5554   -9451291.04749  -7079115.72645  23680823.0674   23680828.7434
       218.0004        155.0004
  24524984.7034   14012081.65949  10908856.65645  24524984.3374   24524990.8494
       208.0004        137.0004
 03 12 17 18 21 30.0000000  0  9G31G29G28G27G 7G 8G26G11G13
  23353325.1184    9217217.54949   7176995.30745  23353325.7094   23353332.3074
       214.0004        153.0004
  22581035.0434  -13955437.91549 -10863394.24546  22581035.3054   22581040.5834
       229.0004        176.0004
  20903333.1794   -6349354.43249  -4940275.71847  20903332.8244   20903336.8034
       243.0004        209.0004
  21005759.1864    1001999.78349    780857.52347  21005758.5964   21005764.0184
       241.0004        202.0004
  21972259.9314  -15280210.99949 -11892857.78347  21972259.1424   21972265.6974
       236.0004        191.0004
  20091825.0744   -5640016.90249  -4386412.57848  20091824.3494   20091829.4844
       246.0004        214.0004
  23323675.0674   -8782782.77249  -6822631.46045  23323673.9274   23323681.2474
       216.0004        156.0004
  23673373.5044   -9490441.57749  -7109622.57745  23673373.5554   23673378.1014
       218.0004        155.0004
  24546675.1344   14126066.28149  10997675.64345  24546674.7714   24546683.3744
       209.0004        135.0004
 03 12 17 18 22  0.0000000  0  9G31G29G28G27G 7G 8G26G11G13
  23372362.2654    9317257.91549   7254948.67645  23372362.5904   23372370.6124
       218.0004        153.0004
  22569696.5254  -14015022.48549 -10909823.76346  22569696.4344   22569700.9944
       229.0004        176.0004
  20900674.6984   -6363324.97349  -4951161.87347  20900674.5044   20900677.9954
       244.0004        210.0004
  21013127.5734    1040720.85749    811029.75947  21013127.1654   21013132.6774
       241.0004        202.0004
  21956335.5634  -15363893.90049 -11958065.20447  21956334.8564   21956340.8654
       236.0004        191.0004
  20090435.3254   -5647320.20049  -4392103.48348  20090434.6914   20090439.7834
       246.0004        214.0004
  23309040.1824   -8859688.70749  -6882558.13245  23309040.1574   23309046.2814
       214.0004        156.0004
  23665991.8424   -9529231.76049  -7139848.64245  23665991.1054   23665995.8804
       217.0004        155.0004
  24568370.3184   14240075.29649  11086513.67845  24568370.3914   24568377.9564
       214.0004        134.0004
 03 12 17 18 22 30.0000000  0  9G31G29G28G27G 7G 8G26G11G13
  23391449.8574    9417562.74949   7333108.12845  23391449.9564   23391457.0784
       216.0004        153.0004
  22558445.1034  -14074148.96449 -10955896.32246  22558444.7744   22558449.1844
       229.0004        177.0004
  20898061.6934   -6377056.60549  -4961861.85847  20898061.1534   20898065.0854
       243.0004        210.0004
  21020563.9274    1079798.92549    841480.16847  21020563.2474   21020568.8154
       241.0004        202.0004
  21940470.9234  -15447262.64649 -12023027.83647  21940470.1094   21940476.6434
       236.0004        192.0004
  20089114.8914   -5654259.20249  -4397510.51748  20089114.2864   20089119.3904
       246.0004        214.0004
  23294481.5764   -8936194.78249  -6942173.22345  23294482.2954   23294488.2114
       217.0004        157.0004
  23658679.4224   -9567658.62249  -7169791.59845  23658678.2984   23658684.3044
       217.0004        154.0004
  24590069.9784   14354106.26649  11175368.86345  24590069.4894   24590075.2174
       215.0004        134.0004
 03 12 17 18 23  0.0000000  0  9G31G29G28G27G 7G 8G26G11G13
  23410586.9994    9518128.60049   7411470.96845  23410587.1484   23410594.2504
       219.0004        154.0004
  22547281.1204  -14132816.14649 -11001610.98846  22547281.0124   22547285.7644
       229.0004        178.0004
  20895493.8884   -6390550.56749  -4972376.64447  20895493.4014   20895497.2674
       243.0004        210.0004
  21028068.1504    1119233.83849    872208.64347  21028067.5024   21028073.0414
       240.0004        201.0004
  21924666.3764  -15530316.00749 -12087744.72847  21924665.8904   21924671.9334
       236.0004        193.0004
  20087864.0014   -5660832.93049  -4402632.91948  20087863.4624   20087868.4234
       246.0004        214.0004
  23279999.4924   -9012299.29149  -7001475.42445  23279999.2624   23280005.2184
       216.0004        157.0004
  23651436.3754   -9605720.74949  -7199450.33145  23651435.8824   23651439.5254
       218.0004        154.0004
  24611772.9094   14468156.23649  11264238.78745  24611773.6544   24611780.3584
       215.0004        139.0004
 03 12 17 18 23 30.0000000  0  9G31G29G28G27G 7G 8G26G11G13
  23429773.4094    9618952.80949   7490035.15145  23429773.1464   23429780.0374
       217.0004        155.0004
  22536205.0134  -14191021.80549 -11046966.02046  22536204.7304   22536209.9294
       230.0004        178.0004
  20892971.1724   -6403807.55949  -4982706.77147  20892970.6474   20892974.5414
       244.0004        210.0004
  21035640.3284    1159026.08249    903215.55947  21035639.8404   21035645.2804
       240.0004        201.0004
  21908922.2874  -15613051.68049 -12152214.05947  21908921.9594   21908927.6174
       237.0004        193.0004
  20086682.8504   -5667040.09749  -4407469.68148  20086682.2194   20086687.0044
       246.0004        214.0004
  23265594.1224   -9087999.51749  -7060462.60445  23265593.6954   23265599.9824
       217.0004        157.0004
  23644263.1434   -9643415.70449  -7228822.95245  23644261.8184   23644268.5984
       219.0004        154.0004
  24633479.1314   14582222.91649  11353121.69945  24633479.1674   24633486.0394
       220.0004        144.0004
 03 12 17 18 24  0.0000000  0  9G31G29G28G27G 7G 8G26G11G13
  23449008.5144    9720032.94049   7568798.74445  23449007.1104   23449015.8704
       217.0004        155.0004
  22525217.1834  -14248763.40449 -11091959.46046  22525216.9474   22525222.5664
       229.0004        179.0004
  20890493.5424   -6416827.77149  -4992852.40647  20890493.0134   20890496.8244
       243.0004        210.0004
  21043280.7854    1199176.81949    934501.81547  21043280.3804   21043286.1954
       240.0004        201.0004
  21893239.1234  -15695467.40549 -12216434.10347  21893238.4064   21893244.7214
       237.0004        193.0004
  20085571.7574   -5672879.10149  -4412019.57248  20085571.1284   20085576.1694
       245.0004        214.0004
  23251266.3544   -9163292.53849  -7119132.47945  23251265.9544   23251272.4614
       218.0004        158.0004
  23637160.3964   -9680740.67849  -7257907.29545  23637159.9154   23637165.8334
       218.0004        153.0004
  24655188.2454   14696303.89649  11442015.78445  24655189.0884   24655195.0934
       219.0004        148.0004
 03 12 17 18 24 30.0000000  0  9G31G29G28G27G 7G 8G26G11G13
  23468291.5934    9821365.50149   7647759.05145  23468290.9904   23468297.9134
       215.0004        154.0004
  22514317.8434  -14306039.78649 -11136590.38746  22514318.1124   22514322.9224
       230.0004        179.0004
  20888060.6794   -6429612.56749  -5002814.59647  20888060.2574   20888064.2854
       243.0004        210.0004
  21050989.3924    1239685.52249    966067.00147  21050989.0344   21050994.6454
       240.0004        201.0004
  21877617.0274  -15777562.04249 -12280403.95047  21877616.6414   21877622.8884
       237.0004        193.0004
  20084530.8794   -5678349.19149  -4416281.99548  20084530.2794   20084535.2944
       246.0004        214.0004
  23237016.3604   -9238176.69849  -7177483.76345  23237016.2484   23237022.1644
       216.0004        158.0004
  23630128.3604   -9717694.14149  -7286702.14445  23630127.8634   23630133.6584
       219.0004        155.0004
  24676899.4174   14810395.89549  11530918.43645  24676899.4284   24676905.9254
       219.0004        150.0004
 03 12 17 18 25  0.0000000  0  9G31G29G28G27G 7G 8G26G11G13
  23487622.1804    9922947.89349   7726914.03645  23487620.9784   23487628.9564
       213.0004        152.0004
  22503507.4574  -14362848.60049 -11180856.98746  22503507.2664   22503512.5764
       230.0004        178.0004
  20885672.5864   -6442162.42249  -5012593.71247  20885672.2904   20885675.9144
       243.0004        210.0004
  21058766.2784    1280553.00549    997911.75847  21058766.0404   21058771.2624
       240.0004        201.0004
  21862056.4664  -15859333.34649 -12344121.84847  21862055.8844   21862061.8944
       237.0004        194.0004
  20083560.4984   -5683448.69749  -4420255.65648  20083559.7014   20083564.7954
       246.0004        214.0004
  23222844.6154   -9312649.18749  -7235514.24945  23222844.2794   23222850.9724
       217.0004        157.0004
  23623167.3964   -9754273.47449  -7315205.46045  23623167.2224   23623172.9364
       219.0004        155.0004
  24698612.1914   14924497.07649  11619828.25545  24698612.8864   24698617.9234
       216.0004        151.0004
 03 12 17 18 25 30.0000000  0  9G31G29G28G27G 7G 8G26G11G13
  23506999.7514   10024777.40149   7806261.58545  23506998.7834   23507006.0854
       212.0004        150.0004
  22492786.4404  -14419187.85949 -11224757.69046  22492786.2084   22492791.4834
       230.0004        178.0004
  20883329.0624   -6454477.85349  -5022190.15947  20883328.5724   20883332.3224
       243.0004        210.0004
  21066611.4924    1321779.77449   1030036.48547  21066611.1594   21066616.8174
       240.0004        201.0004
  21846557.8134  -15940779.34549 -12407586.25947  21846557.1834   21846563.6384
       238.0004        194.0004
  20082660.8564   -5688176.32449  -4423939.53248  20082660.2344   20082665.3384
       246.0004        214.0004
  23208751.6484   -9386707.67149  -7293222.15745  23208752.1154   23208757.9674
       217.0004        157.0004
  23616278.1444   -9790476.58249  -7343415.64045  23616276.9724   23616284.1854
       221.0004        156.0004
  24720326.3024   15038605.10249  11708743.38545  24720326.7644   24720333.4484
       212.0004        150.0004
 03 12 17 18 26  0.0000000  0  9G31G29G28G27G 7G 8G26G11G13
  23526423.8754   10126851.28749   7885799.57445  23526422.9964   23526431.8244
       213.0004        148.0004
  22482155.2024  -14475055.33549 -11268290.78446  22482155.4484   22482160.0644
       230.0004        178.0004
  20881030.0114   -6466559.41949  -5031604.37747  20881029.5544   20881033.4274
       244.0004        210.0004
  21074525.1814    1363366.35049   1062441.57047  21074524.8404   21074530.4634
       240.0004        201.0004
  21831121.4854  -16021897.77249 -12470795.43147  21831120.8994   21831127.2124
       236.0004        195.0004
  20081832.2554   -5692530.67849  -4427332.55348  20081831.6074   20081836.5434
       246.0004        214.0004
  23194738.2374   -9460349.37349  -7350605.29445  23194738.7964   23194744.3414
       219.0004        157.0004
  23609460.9664   -9826301.26149  -7371330.93645  23609459.7814   23609466.3574
       219.0004        156.0004
  24742041.1184   15152717.41849  11797661.83745  24742041.1214   24742049.4614
       208.0004        147.0004
 03 12 17 18 26 30.0000000  0  9G31G29G28G27G 7G 8G26G11G13
  23545893.8884   10229165.62049   7965524.92545  23545893.2574   23545900.6124
       213.0004        148.0004
  22471613.8684  -14530450.40349 -11311455.76146  22471612.9464   22471619.3394
       229.0004        178.0004
  20878775.1664   -6478408.91349  -5040837.76147  20878774.4854   20878778.3184
       243.0004        210.0004
  21082507.2284    1405312.01649   1095126.46247  21082506.8744   21082512.1534
       240.0004        200.0004
  21815747.5444  -16102688.16749 -12533748.99747  21815746.8534   21815753.3724
       237.0004        195.0004
  20081074.6704   -5696511.79049  -4430434.73748  20081073.8824   20081079.0204
       246.0004        214.0004
  23180804.1654   -9533573.22349  -7407662.83345  23180804.7434   23180810.6214
       218.0004        158.0004
  23602716.0124   -9861745.90649  -7398950.10945  23602715.4404   23602720.9864
       220.0004        155.0004
  24763756.1914   15266830.28049  11886580.67245  24763755.1194   24763764.0684
       205.0004        143.0004
 03 12 17 18 27  0.0000000  0  8G31G29G28G27G 7G 8G26G11
  23565409.5514   10331721.43649   8045438.44845  23565409.0574   23565416.2494
       215.0004        148.0004
  22461163.4274  -14585367.31449 -11354248.16046  22461163.2904   22461168.8584
       229.0004        178.0004
  20876565.0194   -6490023.27749  -5049887.93047  20876564.3554   20876568.4524
       243.0004        210.0004
  21090558.3714    1447621.00449   1128094.45847  21090557.8014   21090563.3774
       241.0004        200.0004
  21800437.2254  -16183144.64149 -12596442.36747  21800436.5424   21800442.7264
       238.0004        195.0004
  20080389.1394   -5700114.26649  -4433241.88148  20080388.6164   20080393.5214
       246.0004        214.0004
  23166950.9304   -9606372.89749  -7464389.84545  23166949.7744   23166956.6624
       217.0004        158.0004
  23596044.5614   -9896804.62749  -7426268.58445  23596043.2294   23596050.1364
       218.0004        155.0004
 03 12 17 18 27 30.0000000  0  8G31G29G28G27G 7G 8G26G11
  23584970.0244   10434511.81449   8125534.75645  23584970.4854   23584976.9534
       214.0004        149.0004
  22450803.7894  -14639808.08049 -11396669.53146  22450803.2724   22450808.4644
       230.0004        178.0004
  20874398.7484   -6501407.22049  -5058758.54647  20874398.1754   20874401.9524
       243.0004        210.0004
  21098677.9674    1490289.43049   1161342.53847  21098677.7394   21098682.9524
       240.0004        200.0004
  21785190.0104  -16263269.41049 -12658877.25847  21785189.3974   21785195.7454
       238.0004        195.0004
  20079775.1174   -5703341.27249  -4435756.44848  20079774.4614   20079779.4694
       246.0004        214.0004
  23153177.9774   -9678750.03949  -7520787.60745  23153177.5194   23153184.1464
       219.0004        159.0004
  23589446.1544   -9931479.55649  -7453288.00245  23589445.6074   23589452.4494
       217.0004        155.0004
 03 12 17 18 28  0.0000000  0  8G31G29G28G27G 7G 8G26G11
  23604574.4954   10537534.18149   8205811.80945  23604574.3934   23604581.0904
       211.0004        150.0004
  22440534.9824  -14693770.76249 -11438718.38346  22440534.1814   22440540.0114
       229.0004        178.0004
  20872276.1894   -6512561.36549  -5067450.10947  20872275.6444   20872279.4484
       243.0004        210.0004
  21106866.1344    1533318.09949   1194871.31747  21106865.7314   21106871.1244
       240.0004        200.0004
  21770006.2594  -16343060.47949 -12721052.13547  21770005.7194   21770011.9934
       237.0004        196.0004
  20079232.8574   -5706191.07449  -4437977.09648  20079232.1674   20079237.3424
       246.0004        214.0004
  23139486.0004   -9750702.19049  -7576854.21345  23139485.6674   23139491.4434
       218.0004        159.0004
  23582921.3444   -9965768.08949  -7480006.35745  23582920.3844   23582927.4474
       221.0004        155.0004
 03 12 17 18 28 30.0000000  0  8G31G29G28G27G 7G 8G26G11
  23624222.8454   10640786.25149   8286267.86745  23624223.5404   23624229.6514
       216.0004        151.0004
  22430357.6374  -14747252.83649 -11480392.72946  22430357.7264   22430362.5884
       230.0004        178.0004
  20870197.3484   -6523485.77349  -5075962.64447  20870196.9134   20870200.8724
       243.0004        210.0004
  21115122.9584    1576707.81649   1228681.43847  21115122.5254   21115128.1684
       240.0004        200.0004
  21754886.4844  -16422515.42749 -12782965.10347  21754886.1664   21754892.1604
       237.0004        196.0004
  20078762.6984   -5708662.00649  -4439902.51448  20078762.0024   20078766.9874
       246.0004        214.0004
  23125875.4024   -9822226.29049  -7632587.28245  23125875.3604   23125880.9614
       218.0004        158.0004
  23576470.5314   -9999667.31849  -7506421.35645  23576469.9294   23576475.3144
       219.0004        155.0004
 03 12 17 18 29  0.0000000  0  8G31G29G28G27G 7G 8G26G11
  23643914.2744   10744264.82649   8366900.41145  23643914.1494   23643921.6814
       213.0004        150.0004
  22420272.1444  -14800252.78549 -11521691.39446  22420271.4794   22420276.5094
       230.0004        179.0004
  20868162.0144   -6534181.51149  -5084297.00147  20868161.3534   20868165.3764
       243.0004        210.0004
  21123448.4784    1620458.48049   1262772.81347  21123448.0014   21123453.3314
       240.0004        200.0004
  21739831.0384  -16501632.63749 -12844614.89747  21739830.4394   21739836.6004
       238.0004        196.0004
  20078364.7724   -5710753.19349  -4441532.03048  20078364.1184   20078369.1754
       246.0004        214.0004
  23112346.6494   -9893320.45149  -7687985.32645  23112346.9254   23112352.5004
       219.0004        158.0004
  23570093.9954  -10033175.66549  -7532531.77445  23570093.0744   23570098.5404
       218.0004        155.0004
 03 12 17 18 29 30.0000000  0  8G31G29G28G27G 7G 8G26G11
  23663648.4244   10847967.85349   8447707.84845  23663647.6284   23663655.0924
       213.0004        149.0004
  22410278.8264  -14852768.06049 -11562612.39546  22410278.1674   22410283.7014
       230.0004        179.0004
  20866170.2204   -6544648.58449  -5092453.17747  20866169.7714   20866173.6424
       244.0004        210.0004
  21131842.9014    1664571.20549   1297146.31747  21131842.3104   21131848.3084
       239.0004        200.0004
  21724840.3224  -16580409.79549 -12905999.71747  21724839.8264   21724846.0324
       238.0004        197.0004
  20078039.5254   -5712462.60749  -4442864.06548  20078038.9034   20078043.8744
       246.0004        214.0004
  23098900.2974   -9963981.48849  -7743045.87645  23098900.1244   23098906.0354
       219.0004        159.0004
  23563792.3144  -10066290.46949  -7558335.52845  23563791.7364   23563796.3454
       219.0004        155.0004
 03 12 17 18 30  0.0000000  0  8G31G29G28G27G 7G 8G26G11
  23683424.6064   10951892.21549   8528687.74145  23683423.6174   23683431.3174
       211.0004        147.0004
  22400378.0134  -14904797.22749 -11603154.60646  22400378.2414   22400383.3704
       231.0004        179.0004
  20864221.7304   -6554888.07149  -5100432.01747  20864221.3004   20864225.0794
       243.0004        210.0004
  21140306.1714    1709046.00149   1331801.95247  21140305.4514   21140311.3384
       239.0004        199.0004
  21709914.5804  -16658845.31049 -12967118.31847  21709913.8794   21709920.2544
       239.0004        197.0004
  20077787.0594   -5713789.38849  -4443897.94448  20077786.4184   20077791.2954
       246.0004        214.0004
  23085536.7734  -10034207.51549  -7797767.45245  23085536.4264   23085542.8264
       219.0004        160.0004
  23557566.0364  -10099009.84349  -7583831.15445  23557564.9274   23557571.5924
       219.0004        156.0004
 03 12 17 18 30 30.0000000  0  8G31G29G28G27G 7G 8G26G11
  23703242.5024   11056034.88349   8609837.74645  23703241.6674   23703248.6434
       212.0004        147.0004
  22390570.0994  -14956338.72949 -11643316.82246  22390570.1414   22390575.1784
       230.0004        180.0004
  20862316.3784   -6564900.90749  -5108234.24347  20862315.9094   20862320.0474
       244.0004        210.0004
  21148838.2924    1753882.77249   1366739.64847  21148837.8444   21148843.5274
       239.0004        199.0004
  21695054.1464  -16736937.66549 -13027969.51747  21695053.3774   21695059.5804
       239.0004        197.0004
  20077607.5784   -5714732.57349  -4444632.91248  20077606.9624   20077611.8174
       246.0004        214.0004
  23072256.4354  -10103996.49149  -7852148.47645  23072256.7594   23072263.4644
       218.0004        160.0004
  23551415.2974  -10131332.00749  -7609017.28445  23551415.1654   23551421.4164
       222.0004        157.0004
 03 12 17 18 31  0.0000000  0  8G31G29G28G27G 7G 8G26G11
  23723101.4114   11160393.11149   8691155.70745  23723101.2694   23723107.8094
       214.0004        147.0004
  22380855.2134  -15007390.60349 -11683097.50846  22380855.0964   22380860.1854
       229.0004        179.0004
  20860454.1254   -6574687.31149  -5115860.03047  20860453.6884   20860457.3034
       243.0004        210.0004
  21157439.3934    1799082.05449   1401959.82347  21157439.1604   21157445.1404
       239.0004        199.0004
  21680259.3744  -16814684.90849 -13088551.79947  21680258.7694   21680264.8364
       239.0004        197.0004
  20077501.3494   -5715290.81449  -4445067.93048  20077500.6564   20077505.6884
       245.0004        214.0004
  23059059.5834  -10173345.83749  -7906186.93345  23059059.5654   23059066.1574
       219.0004        161.0004
  23545340.9384  -10163254.26049  -7633891.77445  23545340.7704   23545346.0744
       221.0004        158.0004
 03 12 17 18 31 30.0000000  0  8G31G29G28G27G 7G 8G26G11
  23743000.6194   11264964.40049   8772639.72745  23743001.3124   23743007.9774
       213.0004        148.0004
  22371233.8904  -15057950.87949 -11722495.12446  22371234.0974   22371238.6264
       230.0004        179.0004
  20858634.7784   -6584248.13849  -5123310.03747  20858634.3384   20858637.8364
       244.0004        210.0004
  21166109.6704    1844644.38649   1437462.89147  21166109.2774   21166115.1324
       239.0004        199.0004
  21665530.6874  -16892084.87849 -13148863.46847  21665530.1164   21665535.8374
       240.0004        198.0004
  20077468.6864   -5715462.68149  -4445201.87148  20077468.0084   20077473.0504
       246.0004        214.0004
  23045946.9894  -10242253.20549  -7959880.97445  23045946.3134   23045952.8504
       221.0004        161.0004
  23539342.9044  -10194774.51249  -7658453.04445  23539343.0924   23539348.8354
       222.0004        158.0004
 03 12 17 18 32  0.0000000  0  8G31G29G28G27G 7G 8G26G11
  23762940.0784   11369746.15249   8854287.71445  23762940.7184   23762946.5614
       210.0004        148.0004
  22361706.5474  -15108017.54749 -11761508.11846  22361706.0934   22361711.7204
       230.0004        180.0004
  20856858.3034   -6593583.90749  -5130584.67847  20856857.8284   20856861.7914
       244.0004        210.0004
  21174849.0864    1890570.05249   1473249.06547  21174848.8574   21174854.3054
       239.0004        198.0004
  21650868.4054  -16969135.97749 -13208903.29547  21650867.7764   21650873.7564
       239.0004        198.0004
  20077509.7874   -5715246.85649  -4445033.72048  20077509.1404   20077514.2034
       246.0004        214.0004
  23032918.9174  -10310716.08849  -8013228.67345  23032918.4724   23032924.7434
       219.0004        161.0004
  23533421.8214  -10225890.94049  -7682699.63745  23533422.1614   23533426.8644
       220.0004        158.0004
 03 12 17 18 32 30.0000000  0  8G31G29G28G27G 7G 8G26G11
  23782919.0424   11474735.06649   8936097.12145  23782918.4684   23782926.7894
       211.0004        146.0004
  22352273.3304  -15157589.45649 -11800135.59046  22352273.2434   22352278.3274
       230.0004        180.0004
  20855124.4334   -6602695.51249  -5137684.63847  20855123.9184   20855127.9124
       244.0004        210.0004
  21183657.6524    1936858.91349   1509318.26247  21183657.6294   21183662.8484
       239.0004        198.0004
  21636272.7544  -17045836.80149 -13268670.17347  21636271.9614   21636278.2124
       239.0004        198.0004
  20077624.7754   -5714642.74349  -4444562.99848  20077624.1404   20077629.0584
       246.0004        214.0004
  23019975.6924  -10378732.65649  -8066228.58145  23019975.2334   23019981.5404
       219.0004        161.0004
  23527577.8624  -10256601.59549  -7706630.04245  23527578.2764   23527583.7954
       221.0004        158.0004
 03 12 17 18 33  0.0000000  0  8G31G29G28G27G 7G 8G26G11
  23802936.9104   11579928.50249   9018065.93245  23802936.9604   23802943.3194
       209.0004        145.0004
  22342934.6504  -15206664.66449 -11838376.01046  22342934.8584   22342939.8714
       230.0004        180.0004
  20853433.1274   -6611583.72749  -5144610.53147  20853432.7594   20853436.3874
       244.0004        211.0004
  21192535.3884    1983511.39349   1545670.79647  21192535.2934   21192540.6914
       238.0004        199.0004
  21621744.1734  -17122185.25149 -13328162.47947  21621743.5384   21621749.6574
       240.0004        198.0004
  20077813.9204   -5713648.78549  -4443788.50848  20077813.1894   20077818.1784
       246.0004        214.0004
  23007117.9694  -10446300.58449  -8118878.90545  23007117.8844   23007124.6224
       219.0004        160.0004
  23521811.4334  -10286904.35149  -7730242.61445  23521812.0384   23521817.3814
       220.0004        158.0004
 03 12 17 18 33 30.0000000  0  8G31G29G28G27G 7G 8G26G11
  23822992.9254   11685323.75749   9100192.00245  23822993.0754   23823000.4394
       210.0004        146.0004
  22333690.7354  -15255241.39849 -11876228.01546  22333690.4284   22333695.7874
       229.0004        180.0004
  20851784.2094   -6620249.09649  -5151362.77047  20851783.8104   20851787.5534
       244.0004        211.0004
  21201482.3164    2030527.61649   1582306.77247  21201482.2394   21201487.2294
       238.0004        198.0004
  21607282.9514  -17198179.62349 -13387378.87647  21607282.3004   21607288.2154
       239.0004        199.0004
  20078077.4704   -5712264.01149  -4442709.48248  20078076.7974   20078081.8634
       246.0004        214.0004
  22994346.1074  -10513417.63249  -8171177.89145  22994346.0654   22994352.4024
       219.0004        161.0004
  23516122.9094  -10316797.35049  -7753535.87045  23516121.4384   23516128.7694
       218.0004        157.0004
 03 12 17 18 34  0.0000000  0  8G31G29G28G27G 7G 8G26G11
  23843087.0714   11790918.52049   9182473.52345  23843086.6954   23843092.5464
       211.0004        147.0004
  22324542.0744  -15303317.64049 -11913690.02446  22324541.7814   22324547.4844
       229.0004        181.0004
  20850177.6044   -6628691.91449  -5157941.60047  20850177.0734   20850180.8714
       244.0004        211.0004
  21210498.6204    2077908.21949   1619226.67247  21210498.4374   21210503.8384
       238.0004        198.0004
  21592889.4424  -17273818.08249 -13446317.94047  21592888.6044   21592894.6044
       239.0004        199.0004
  20078415.7104   -5710486.58449  -4441324.50048  20078415.2024   20078420.1764
       246.0004        214.0004
  22981660.4644  -10580081.00249  -8223123.36845  22981660.7974   22981666.3454
       221.0004        162.0004
  23510512.8184  -10346278.06949  -7776507.89245  23510512.7414   23510517.9764
       219.0004        157.0004
 03 12 17 18 34 30.0000000  0  8G31G29G28G27G 7G 8G26G11
  23863218.3994   11896709.39249   9264907.87445  23863217.3984   23863224.7244
       212.0004        147.0004
  22315489.0104  -15350892.21249 -11950761.11146  22315488.8894   22315494.3674
       230.0004        181.0004
  20848613.0954   -6636913.60849  -5164348.11247  20848612.4864   20848616.2914
       243.0004        211.0004
  21219584.1314    2125652.84549   1656430.23547  21219583.9184   21219589.7724
       238.0004        198.0004
  21578563.8994  -17349099.19949 -13504978.54847  21578562.8424   21578569.1994
       239.0004        199.0004
  20078828.7774   -5708316.01849  -4439633.16348  20078828.0474   20078833.0114
       246.0004        214.0004
  22969061.5434  -10646289.24449  -8274714.19045  22969062.2894   22969067.5704
       221.0004        162.0004
  23504981.4954  -10375345.06549  -7799157.51145  23504980.6114   23504986.8514
       219.0004        157.0004
 03 12 17 18 35  0.0000000  0  8G31G29G28G27G 7G 8G26G11
  23883386.6814   12002693.77049   9347492.99945  23883385.5164   23883393.4304
       212.0004        147.0004
  22306531.6384  -15397963.46549 -11987440.01346  22306531.3304   22306537.2404
       230.0004        181.0004
  20847090.5834   -6644914.47449  -5170582.55947  20847089.9004   20847093.7924
       244.0004        211.0004
  21228739.0724    2173761.97449   1693917.81747  21228738.9504   21228744.6564
       239.0004        198.0004
  21564306.6834  -17424021.29249 -13563359.40647  21564305.9424   21564311.9584
       240.0004        200.0004
  20079316.8514   -5705751.18249  -4437634.61148  20079316.1394   20079321.3364
       246.0004        214.0004
  22956549.7154  -10712039.90049  -8325948.45946  22956550.1814   22956554.9354
       222.0004        164.0004
  23499529.3364  -10403995.90149  -7821482.83145  23499528.2254   23499534.7104
       219.0004        157.0004
 03 12 17 18 35 30.0000000  0  8G31G29G28G27G 7G 8G26G11
  23903591.0704   12108868.89749   9430226.75045  23903590.3894   23903598.2024
       211.0004        146.0004
  22297670.3654  -15444529.64549 -12023725.33846  22297669.7644   22297675.6804
       230.0004        182.0004
  20845609.8844   -6652695.43249  -5176645.65247  20845609.4654   20845613.1364
       244.0004        211.0004
  21237963.3924    2222235.54549   1731689.38447  21237963.1744   21237968.7754
       238.0004        198.0004
  21550118.2004  -17498582.65649 -13621459.16947  21550117.2744   21550123.6004
       240.0004        200.0004
  20079880.2104   -5702790.84849  -4435327.87948  20079879.5994   20079884.4844
       246.0004        214.0004
  22944125.2244  -10777330.73049  -8376824.41646  22944124.6234   22944131.3974
       222.0004        164.0004
  23494156.6614  -10432229.10549  -7843482.73345  23494155.6744   23494162.1994
       219.0004        156.0004
 03 12 17 18 36  0.0000000  0  8G31G29G28G27G 7G 8G26G11
  23923831.3324   12215231.89149   9513106.90145  23923830.4574   23923838.7884
       214.0004        145.0004
  22288905.5324  -15490589.27049 -12059615.94146  22288904.9124   22288910.9374
       231.0004        182.0004
  20844170.9774   -6660257.02249  -5182537.80447  20844170.4614   20844174.2904
       244.0004        211.0004
  21247256.9844    2271073.70849   1769745.04747  21247256.4704   21247262.4634
       237.0004        198.0004
  21535998.6094  -17572781.69649 -13679276.60947  21535997.9194   21536003.7844
       241.0004        200.0004
  20080519.0124   -5699434.18049  -4432712.30948  20080518.3364   20080523.1504
       246.0004        214.0004
  22931788.6784  -10842159.86449  -8427340.60646  22931789.2434   22931794.4974
       222.0004        164.0004
  23488863.8124  -10460042.98449  -7865155.87745  23488863.4384   23488869.5804
       220.0004        156.0004
 03 12 17 18 36 30.0000000  0  8G31G29G28G27G 7G 8G26G11
  23944106.8504   12321780.01249   9596131.31645  23944106.3204   23944112.7914
       211.0004        141.0004
  22280237.4624  -15536140.81849 -12095110.63646  22280237.6424   22280241.9474
       231.0004        183.0004
  20842773.5814   -6667600.24249  -5188259.80047  20842773.1584   20842777.0784
       244.0004        211.0004
  21256619.9694    2320276.53649   1808084.86747  21256619.7684   21256625.3504
       237.0004        198.0004
  21521948.2104  -17646616.91849 -13736810.54847  21521947.3364   21521953.6174
       240.0004        200.0004
  20081233.4514   -5695679.86249  -4429786.87848  20081232.7124   20081237.8224
       246.0004        214.0004
  22919540.3904  -10906524.96249  -8477495.21946  22919540.9224   22919546.6614
       221.0004        164.0004
  23483651.2064  -10487435.39649  -7886500.60345  23483650.3774   23483657.3714
       219.0004        156.0004
 03 12 17 18 37  0.0000000  0  8G31G29G28G27G 7G 8G26G11
  23964417.0474   12428510.44149   9679297.78745  23964417.1694   23964424.9124
       210.0004        138.0004
  22271666.3464  -15581182.68849 -12130208.19146  22271665.7974   22271671.3364
       232.0004        183.0004
  20841417.6584   -6674725.65949  -5193812.08247  20841417.2574   20841420.9574
       244.0004        211.0004
  21266052.4164    2369844.13649   1846708.91647  21266052.0494   21266057.3724
       237.0004        197.0004
  21507967.3824  -17720086.66449 -13794059.70047  21507966.4554   21507972.5924
       241.0004        200.0004
  20082023.6994   -5691527.03649  -4426550.92648  20082022.9954   20082028.2464
       246.0004        214.0004
  22907380.8354  -10970423.98149  -8527286.64546  22907380.4114   22907386.6404
       221.0004        165.0004
  23478519.2104  -10514404.46149  -7907515.45945  23478519.5194   23478524.4434
       220.0004        156.0004
 03 12 17 18 37 30.0000000  0  8G31G29G28G27G 7G 8G26G11
  23984761.3334   12535420.40949   9762604.14645  23984761.2954   23984769.6044
       211.0004        136.0004
  22263192.4544  -15625713.32749 -12164907.38346  22263192.1634   22263197.4574
       231.0004        183.0004
  20840103.0694   -6681633.97949  -5199195.19547  20840102.3974   20840106.4424
       244.0004        211.0004
  21275554.2944    2419776.57249   1885617.24647  21275553.7014   21275559.4084
       237.0004        197.0004
  21494056.4064  -17793189.26949 -13851022.76647  21494055.4554   21494061.6784
       241.0004        201.0004
  20082890.0544   -5686974.43549  -4423003.46148  20082889.4554   20082894.6194
       246.0004        214.0004
  22895310.3764  -11033854.83849  -8576713.26146  22895309.9274   22895315.7884
       221.0004        165.0004
  23473468.1454  -10540948.22649  -7928198.89945  23473468.6764   23473473.5544
       221.0004        157.0004
 03 12 17 18 38  0.0000000  0  8G31G29G28G27G 7G 8G26G11
  24005139.2914   12642507.68749   9846048.70645  24005139.2084   24005146.7984
       209.0004        136.0004
  22254816.1624  -15669730.82749 -12199206.72546  22254815.8424   22254821.1924
       232.0004        183.0004
  20838829.7684   -6688325.34849  -5204409.25747  20838829.3294   20838833.1364
       244.0004        211.0004
  21285125.7644    2470074.57049   1924810.43747  21285125.7744   21285131.1374
       238.0004        197.0004
  21480215.7524  -17865922.65749 -13907698.12847  21480214.9374   21480221.1154
       241.0004        201.0004
  20083832.7324   -5682020.61349  -4419143.34948  20083832.0324   20083837.1564
       246.0004        214.0004
  22883329.3954  -11096814.96749  -8625773.07346  22883329.0514   22883335.0984
       221.0004        165.0004
  23468498.4184  -10567064.49749  -7948549.24645  23468497.0384   23468503.9364
       220.0004        157.0004
 03 12 17 18 38 30.0000000  0  8G31G29G28G27G 7G 8G26G11
  24025550.3144   12749768.78049   9929628.63745  24025549.7384   24025558.4294
       208.0004        137.0004
  22246537.7534  -15713234.13949 -12233105.39946  22246537.5834   22246542.2964
       231.0004        183.0004
  20837597.4364   -6694801.32649  -5209455.47547  20837596.8224   20837600.6824
       244.0004        211.0004
  21294766.6594    2520737.29949   1964287.82847  21294766.4104   21294772.0694
       237.0004        197.0004
  21466445.4754  -17938285.94349 -13964085.09547  21466444.7204   21466451.1184
       241.0004        201.0004
  20084851.8924   -5676665.07149  -4414970.21148  20084851.1474   20084856.3034
       246.0004        214.0004
  22871438.2664  -11159302.94849  -8674464.98646  22871438.5934   22871444.5574
       223.0004        165.0004
  23463610.2234  -10592752.17849  -7968565.61145  23463610.1814   23463615.7214
       220.0004        157.0004
 03 12 17 18 39  0.0000000  0  8G31G29G28G27G 7G 8G26G11
  24045994.1754   12857201.45149  10013342.27245  24045994.5344   24046001.6404
       204.0004        135.0004
  22238357.4374  -15756221.74349 -12266602.22546  22238357.4754   22238362.6664
       231.0004        183.0004
  20836406.0724   -6701062.05949  -5214333.97847  20836405.5674   20836409.4624
       244.0004        211.0004
  21304476.9544    2571765.26949   2004049.82447  21304476.5084   21304482.4634
       237.0004        196.0004
  21452745.9834  -18010277.20149 -14020182.17247  21452745.2244   21452751.2194
       241.0004        202.0004
  20085947.7034   -5670906.47749  -4410483.00948  20085947.0084   20085952.1194
       246.0004        214.0004
  22859637.5714  -11221316.33549  -8722787.08046  22859637.2624   22859643.1024
       223.0004        166.0004
  23458804.0794  -10618008.97449  -7988246.19945  23458803.0394   23458809.7644
       220.0004        157.0004
 03 12 17 18 39 30.0000000  0  8G31G29G28G27G 7G 8G26G11
  24066470.0954   12964802.88749  10097187.42845  24066468.8904   24066478.0864
       208.0004        136.0004
  22230275.6164  -15798691.96649 -12299695.90046  22230275.4014   22230280.1754
       231.0004        183.0004
  20835255.4754   -6707108.49349  -5219045.49447  20835254.9034   20835258.6534
       244.0004        211.0004
  21314256.7114    2623158.45949   2044096.40847  21314256.0984   21314262.2074
       236.0004        196.0004
  21439117.5354  -18081894.95949 -14075988.20947  21439116.7784   21439122.7194
       241.0004        202.0004
  20087120.4034   -5664743.91149  -4405681.02248  20087119.6764   20087124.8014
       246.0004        214.0004
  22847927.4364  -11282853.15449  -8770737.81146  22847927.5794   22847932.7944
       223.0004        167.0004
  23454080.2874  -10642833.13649  -8007589.68545  23454079.8384   23454086.1994
       221.0004        157.0004
 03 12 17 18 40  0.0000000  0  8G31G29G28G27G 7G 8G26G11
  24086977.7024   13072570.23549  10181161.83745  24086978.1424   24086985.8864
       208.0004        139.0004
  22222292.4794  -15840643.50649 -12332385.40046  22222292.1974   22222297.8474
       231.0004        183.0004
  20834145.5714   -6712941.31149  -5223590.55247  20834145.1614   20834148.9674
       244.0004        211.0004
  21324106.0254    2674916.85849   2084427.56547  21324105.5394   21324111.9424
       236.0004        196.0004
  21425560.4864  -18153137.66849 -14131501.99747  21425559.5044   21425565.8304
       241.0004        202.0004
  20088370.2224   -5658176.33449  -4400563.44848  20088369.4814   20088374.7914
       246.0004        214.0004
  22836308.3064  -11343911.43449  -8818315.65946  22836308.3734   22836314.7274
       222.0004        167.0004
  23449439.1134  -10667223.09149  -8026594.83445  23449438.6614   23449444.0954
       221.0004        157.0004
 03 12 17 18 40 30.0000000  0  8G31G29G28G27G 7G 8G26G11
  24107516.1974   13180500.77449  10265263.42745  24107516.7734   24107524.4224
       211.0004        143.0004
  22214408.3614  -15882074.85249 -12364669.54946  22214408.7654   22214413.1854
       231.0004        183.0004
  20833076.1974   -6718561.00949  -5227969.54047  20833075.6824   20833079.4704
       244.0004        211.0004
  21334024.8314    2727040.58749   2125043.39347  21334024.8624   21334030.8714
       236.0004        196.0004
  21412075.1134  -18224003.77749 -14186722.33347  21412074.5094   21412080.3804
       242.0004        202.0004
  20089697.2674   -5651202.72349  -4395129.47848  20089696.7224   20089701.5084
       246.0004        214.0004
  22824780.6834  -11404489.14449  -8865519.02946  22824780.8734   22824786.7584
       222.0004        168.0004
  23444880.8534  -10691177.06849  -8045260.25245  23444880.9774   23444885.3634
       220.0004        157.0004
 03 12 17 18 41  0.0000000  0  8G31G29G28G27G 7G 8G26G11
  24128085.3694   13288592.09749  10349490.30545  24128085.7744   24128093.9564
       213.0004        148.0004
  22206623.5264  -15922984.33249 -12396547.05546  22206623.1554   22206628.3754
       231.0004        183.0004
  20832047.2444   -6723968.11949  -5232182.88047  20832046.5844   20832050.4984
       244.0004        211.0004
  21344013.2684    2779529.83249   2165944.03547  21344012.9874   21344018.7794
       236.0004        196.0004
  21398661.7284  -18294491.57349 -14241647.87847  21398660.9554   21398666.9164
       242.0004        203.0004
  20091101.7824   -5643821.89749  -4389378.20348  20091101.1304   20091106.1824
       246.0004        214.0004
  22813344.9624  -11464583.98749  -8912346.14546  22813344.5404   22813350.5344
       221.0004        167.0004
  23440405.9434  -10714692.81149  -8063584.19445  23440405.4054   23440410.6184
       220.0004        157.0004
 03 12 17 18 41 30.0000000  0  8G31G29G28G27G 7G 8G26G11
  24148684.6834   13396841.10349  10433840.03845  24148684.3644   24148693.0224
       214.0004        149.0004
  22198938.1044  -15963371.23749 -12428017.37646  22198937.8554   22198942.6864
       231.0004        183.0004
  20831058.5604   -6729163.80649  -5236231.47147  20831058.0194   20831061.8214
       244.0004        211.0004
  21354071.2274    2832384.19249   2207129.18547  21354071.2644   21354076.3914
       237.0004        196.0004
  21385320.5174  -18364599.93549 -14296277.75847  21385319.6814   21385326.0704
       242.0004        203.0004
  20092583.9884   -5636033.00549  -4383308.94948  20092583.2744   20092588.4034
       246.0004        214.0004
  22802001.5184  -11524194.51149  -8958795.86846  22802001.7434   22802006.8444
       223.0004        166.0004
  23436014.6084  -10737769.12549  -8081565.70745  23436014.6454   23436020.3534
       221.0004        157.0004
 03 12 17 18 42  0.0000000  0  8G31G29G28G27G 7G 8G26G11
  24169313.2834   13505245.50949  10518310.88645  24169314.0424   24169321.8284
       211.0004        148.0004
  22191352.5284  -16003233.52249 -12459078.89446  22191352.1174   22191357.2424
       231.0004        183.0004
  20830110.0204   -6734148.43049  -5240115.59647  20830109.5354   20830113.3404
       244.0004        211.0004
  21364198.7574    2885604.02849   2248599.12347  21364198.5234   21364204.2134
       237.0004        195.0004
  21372051.8874  -18434327.02049 -14350610.53947  21372050.9574   21372057.2554
       241.0004        203.0004
  20094144.0304   -5627834.95349  -4376920.87648  20094143.5444   20094148.3804
       246.0004        214.0004
  22790750.6724  -11583318.27849  -9004866.31246  22790750.8614   22790756.8584
       222.0004        166.0004
  23431707.2164  -10760404.22649  -8099203.45545  23431706.4774   23431712.7364
       221.0004        157.0004
 03 12 17 18 42 30.0000000  0  8G31G29G28G27G 7G 8G26G11
  24189971.2204   13613802.19349  10602900.38045  24189970.8224   24189979.4584
       208.0004        146.0004
  22183866.9864  -16042570.28749 -12489730.91646  22183866.9584   22183872.4744
       231.0004        183.0004
  20829201.4984   -6738922.93249  -5243835.98647  20829200.9244   20829204.7754
       244.0004        211.0004
  21374395.7544    2939188.93849   2290353.53247  21374395.4844   21374400.8414
       237.0004        195.0004
  21358856.0084  -18503671.67949 -14404645.32447  21358855.0524   21358861.4554
       241.0004        203.0004
  20095782.1424   -5619226.91849  -4370213.33148  20095781.5504   20095786.5644
       246.0004        214.0004
  22779592.7964  -11641953.64949  -9050556.17946  22779593.0364   22779598.3194
       222.0004        165.0004
  23427484.1724  -10782596.54149  -8116496.15345  23427483.1514   23427490.0154
       219.0004        158.0004
 03 12 17 18 43  0.0000000  0  8G31G29G28G27G 7G 8G26G11
  24210657.4134   13722508.73549  10687606.63645  24210656.9814   24210666.2004
       207.0004        144.0004
  22176481.7404  -16081379.95349 -12519972.21746  22176481.4214   22176486.6124
       231.0004        183.0004
  20828332.8594   -6743487.65649  -5247392.91747  20828332.4554   20828336.1694
       244.0004        211.0004
  21384662.1934    2993139.15449   2332392.60247  21384661.7874   21384667.1924
       236.0004        194.0004
  21345733.2684  -18572632.14549 -14458380.74047  21345732.5974   21345738.5884
       242.0004        204.0004
  20097498.4784   -5610207.51049  -4363185.23948  20097497.8324   20097502.9014
       246.0004        214.0004
  22768528.2454  -11700098.43049  -9095863.76546  22768527.9664   22768534.3424
       221.0004        165.0004
  23423345.6534  -10804344.16349  -8133442.33345  23423345.1164   23423351.3674
       218.0004        158.0004
 03 12 17 18 43 30.0000000  0  8G31G29G28G27G 7G 8G26G11
  24231371.5494   13831362.58549  10772427.68845  24231371.0214   24231379.9164
       203.0004        140.0004
  22169197.0824  -16119661.14549 -12549801.71746  22169196.9744   22169201.7564
       232.0004        183.0004
  20827504.0414   -6747843.24649  -5250786.88347  20827503.5294   20827507.1244
       244.0004        211.0004
  21394998.1044    3047454.64849   2374716.30447  21394997.8214   21395003.1644
       236.0004        194.0004
  21332683.8914  -18641206.95749 -14511815.64247  21332683.1114   21332689.2474
       242.0004        204.0004
  20099293.1904   -5600776.05349  -4355836.06648  20099292.4194   20099297.5504
       246.0004        214.0004
  22757557.3134  -11757750.57749  -9140787.47846  22757557.6314   22757562.3344
       221.0004        165.0004
  23419292.1774  -10825645.09549  -8150040.44245  23419291.9224   23419298.2584
       221.0004        158.0004
 03 12 17 18 44  0.0000000  0  8G31G29G28G27G 7G 8G26G11
  24252113.2734   13940361.13649  10857361.48445  24252112.2524   24252121.1044
       199.0004        134.0004
  22162013.1644  -16157412.43649 -12579218.30346  22162013.5274   22162018.5524
       232.0004        183.0004
  20826714.9164   -6751990.31949  -5254018.37147  20826714.4464   20826718.2094
       244.0004        211.0004
  21405403.5094    3102135.43749   2417324.65547  21405402.7784   21405408.9644
       236.0004        194.0004
  21319708.2094  -18709394.64549 -14564948.89147  21319707.4644   21319713.7204
       242.0004        204.0004
  20101166.5844   -5590931.48649  -4348164.99548  20101165.8824   20101171.0854
       246.0004        214.0004
  22746680.4614  -11814908.27749  -9185325.92846  22746680.2314   22746686.0584
       223.0004        166.0004
  23415324.0044  -10846498.02749  -8166289.45845  23415322.4904   23415329.5774
       220.0004        159.0004
 03 12 17 18 44 30.0000000  0  8G31G29G28G27G 7G 8G26G11
  24272881.8554   14049501.68849  10942405.98844  24272881.0344   24272890.7294
       195.0004        129.0004
  22154930.4334  -16194632.72949 -12608221.13346  22154930.5114   22154934.9174
       233.0004        184.0004
  20825965.2814   -6755929.79449  -5257088.08947  20825964.5754   20825968.5334
       244.0004        211.0004
  21415878.4214    3157181.44449   2460217.58947  21415878.1564   21415884.2264
       236.0004        194.0004
  21306806.4624  -18777193.81549 -14617779.39347  21306805.6854   21306811.6584
       242.0004        204.0004
  20103118.7854   -5580672.91949  -4340171.32248  20103118.2214   20103123.1184
       246.0004        214.0004
  22735898.2274  -11871569.52549  -9229477.52846  22735898.4054   22735904.5194
       223.0004        167.0004
  23411441.3984  -10866901.22949  -8182188.03545  23411441.0474   23411447.2624
       220.0004        159.0004
 03 12 17 18 45  0.0000000  0  8G31G29G28G27G 7G 8G26G11
  24293676.6344   14158781.47049  11027558.95144  24293677.6374   24293684.6574
       198.0004        124.0004
  22147949.0324  -16231320.80049 -12636809.24646  22147948.9144   22147954.0834
       232.0004        184.0004
  20825254.9954   -6759662.19449  -5259996.45847  20825254.3364   20825258.0934
       244.0004        211.0004
  21426422.8114    3212592.27849   2503394.80047  21426422.4864   21426428.3224
       237.0004        194.0004
  21293978.9154  -18844603.14749 -14670306.12647  21293978.1364   21293984.4224
       242.0004        204.0004
  20105149.9414   -5569999.24449  -4331854.19548  20105149.1954   20105154.5644
       246.0004        214.0004
  22725210.6864  -11927732.58449  -9273240.92446  22725210.1144   22725216.8644
       224.0004        167.0004
  23407644.6934  -10886852.95649  -8197734.81745  23407643.9954   23407650.3964
       221.0004        159.0004
 03 12 17 18 45 30.0000000  0  8G31G29G28G27G 7G 8G26G11
  24314497.9854   14268197.83849  11112818.32944  24314497.6244   24314506.5874
       199.0004        125.0004
  22141069.0014  -16267475.47149 -12664981.72046  22141069.1574   22141074.0124
       231.0004        184.0004
  20824584.0434   -6763188.23949  -5262744.02647  20824583.3714   20824587.2804
       244.0004        211.0004
  21437036.7144    3268368.07149   2546856.39747  21437036.6384   21437042.4994
       236.0004        194.0004
  21281225.8424  -18911621.17349 -14722527.93447  21281224.8454   21281231.1564
       242.0004        205.0004
  20107260.2084   -5558909.75249  -4323213.04448  20107259.5844   20107264.7884
       246.0004        214.0004
  22714618.3794  -11983395.63749  -9316614.70946  22714617.9374   22714625.0184
       223.0004        167.0004
  23403934.2814  -10906352.09849  -8212928.91245  23403933.6444   23403940.0044
       221.0004        160.0004
 03 12 17 18 46  0.0000000  0  8G31G29G28G27G 7G 8G26G11
  24335344.7264   14377747.55249  11198181.65444  24335343.0634   24335354.2354
       202.0004        126.0004
  22134290.6134  -16303095.98349 -12692737.96746  22134290.1904   22134295.6044
       232.0004        184.0004
  20823952.0784   -6766509.18149  -5265331.77747  20823951.6484   20823955.4384
       244.0004        211.0004
  21447719.9254    3324508.10449   2590601.81147  21447720.1024   21447725.1724
       236.0004        194.0004
  21268547.2804  -18978247.22549 -14774444.31747  21268546.3824   21268552.7784
       243.0004        205.0004
  20109449.6894   -5547404.09949  -4314247.61348  20109449.0284   20109454.1974
       246.0004        214.0004
  22704121.3854  -12038557.31549  -9359597.80946  22704121.8734   22704127.2664
       223.0004        168.0004
  23400310.1324  -10925397.43049  -8227769.40745  23400310.1724   23400316.0394
       221.0004        159.0004
 03 12 17 18 46 30.0000000  0  7G29G28G27G 7G 8G26G11
  22127614.4554  -16338179.63649 -12720075.88946  22127614.2314   22127619.5824
       233.0004        185.0004
  20823359.3024   -6769624.16749  -5267759.04247  20823358.7194   20823362.5044
       244.0004        211.0004
  21458472.7184    3381013.80149   2634632.16547  21458472.1894   21458478.1394
       236.0004        193.0004
  21255943.9374  -19044478.20549 -14826052.84047  21255943.1374   21255949.1074
       243.0004        205.0004
  20111718.8294   -5535479.87549  -4304956.02448  20111718.1874   20111723.2294
       246.0004        214.0004
  22693720.3784  -12093214.25049  -9402187.61746  22693720.6044   22693726.6524
       224.0004        168.0004
  23396772.8504  -10943985.82449  -8242253.85045  23396772.5614   23396778.8444
       222.0004        159.0004
 03 12 17 18 47  0.0000000  0  7G29G28G27G 7G 8G26G11
  22121040.5444  -16372726.00449 -12746995.14046  22121040.7124   22121045.6054
       233.0004        185.0004
  20822805.5144   -6772534.49849  -5270026.83647  20822804.9424   20822808.6704
       244.0004        211.0004
  21469294.8044    3437884.18949   2678946.69047  21469294.3674   21469300.3644
       236.0004        193.0004
  21243415.8474  -19110313.59649 -14877353.11647  21243414.9904   21243420.8764
       243.0004        205.0004
  20114067.6724   -5523136.75149  -4295338.02148  20114066.9414   20114071.9924
       246.0004        214.0004
  22683415.7194  -12147365.51649  -9444383.38746  22683415.1184   22683421.7504
       224.0004        169.0004
  23393322.7384  -10962116.52349  -8256381.64045  23393322.5204   23393327.8204
       222.0004        159.0004
 03 12 17 18 47 30.0000000  0  7G29G28G27G 7G 8G26G11
  22114568.8894  -16406734.71849 -12773495.44346  22114568.7034   22114573.9154
       233.0004        185.0004
  20822290.3754   -6775241.53049  -5272136.22247  20822289.8394   20822293.6184
       244.0004        211.0004
  21480186.1104    3495118.35749   2723544.68347  21480185.8874   21480191.4644
       235.0004        193.0004
  21230963.1634  -19175752.79749 -14928344.67047  21230962.1214   21230968.4164
       243.0004        206.0004
  20116496.2174   -5510374.79149  -4285393.65148  20116495.5304   20116500.6674
       246.0004        214.0004
  22673207.5434  -12201009.91149  -9486184.21046  22673207.2754   22673212.8864
       224.0004        169.0004
  23389959.7894  -10979788.77349  -8270152.21345  23389959.1184   23389964.8554
       221.0004        159.0004
 03 12 17 18 48  0.0000000  0  7G29G28G27G 7G 8G26G11
  22108199.9374  -16440204.00249 -12799575.40646  22108199.6424   22108204.9804
       233.0004        185.0004
  20821813.9204   -6777745.43349  -5274087.32747  20821813.2894   20821817.0754
       244.0004        211.0004
  21491146.7364    3552716.82649   2768426.54147  21491146.1794   21491152.1724
       235.0004        192.0004
  21218586.2674  -19240793.69949 -14979025.86447  21218585.6094   21218591.6154
       243.0004        206.0004
  20119004.7834   -5497192.18349  -4275121.51048  20119004.2234   20119009.3144
       246.0004        214.0004
  22663096.2564  -12254144.97049  -9527588.13746  22663095.8754   22663101.6334
       224.0004        168.0004
  23386684.3244  -10997000.41849  -8283563.88145  23386683.5564   23386689.2074
       221.0004        159.0004
 03 12 17 18 48 30.0000000  0  7G29G28G27G 7G 8G26G11
  22101933.8164  -16473133.00149 -12825234.36146  22101933.7104   22101938.4194
       234.0004        186.0004
  20821375.9214   -6780047.12949  -5275880.86347  20821375.2324   20821379.2124
       244.0004        211.0004
  21502176.5964    3610679.07649   2813591.86247  21502175.9634   21502182.2244
       235.0004        192.0004
  21206285.3314  -19305435.58449 -15029396.13247  21206284.5254   21206290.4284
       244.0004        206.0004
  20121593.5054   -5483588.75149  -4264521.44748  20121592.7814   20121597.8054
       246.0004        214.0004
  22653082.2434  -12306769.34849  -9568594.12346  22653082.4774   22653088.5274
       225.0004        169.0004
  23383496.8774  -11013750.20249  -8296615.64945  23383496.8524   23383502.0864
       219.0004        159.0004
 03 12 17 18 49  0.0000000  0  7G29G28G27G 7G 8G26G11
  22095770.6724  -16505520.79449 -12850471.59346  22095770.4564   22095775.8024
       233.0004        186.0004
  20820976.2774   -6782147.20949  -5277517.29747  20820975.8484   20820979.6014
       244.0004        211.0004
  21513275.6524    3669004.90249   2859040.49547  21513275.2094   21513281.7524
       235.0004        192.0004
  21194060.5484  -19369677.09349 -15079454.42347  21194059.7684   21194065.9554
       244.0004        207.0004
  20124262.3814   -5469563.59049  -4253592.76748  20124261.5344   20124266.8674
       246.0004        214.0004
  22643165.7794  -12358881.30949  -9609200.82246  22643165.6134   22643171.2664
       225.0004        170.0004
  23380397.5944  -11030036.90049  -8309306.58145  23380397.3884   23380404.2024
       221.0004        159.0004
 03 12 17 18 49 30.0000000  0  7G29G28G27G 7G 8G26G11
  22089710.7754  -16537366.06249 -12875286.08746  22089710.4824   22089715.1474
       233.0004        186.0004
  20820614.9164   -6784046.39449  -5278997.19447  20820614.5684   20820618.2394
       243.0004        211.0004
  21524443.8954    3727694.01649   2904772.19447  21524443.8284   21524449.8394
       235.0004        192.0004
  21181912.2394  -19433516.82649 -15129199.64347  21181911.4884   21181917.4554
       244.0004        207.0004
  20127011.7474   -5455115.52249  -4242334.55248  20127011.0804   20127016.3064
       246.0004        214.0004
  22633347.0364  -12410479.10549  -9649406.87946  22633346.8104   22633352.7794
       225.0004        169.0004
  23377386.8374  -11045859.08749  -8321635.54745  23377386.2124   23377392.2684
       222.0004        160.0004
 03 12 17 18 50  0.0000000  0  7G29G28G27G 7G 8G26G11
  22083754.2364  -16568667.75149 -12899677.00146  22083753.6954   22083758.6024
       233.0004        186.0004
  20820291.6724   -6785745.15549  -5280320.91147  20820291.3024   20820294.9624
       244.0004        211.0004
  21535681.2684    3786746.55049   2950787.08747  21535680.9184   21535686.8554
       235.0004        192.0004
  21169840.6164  -19496953.39649 -15178630.70947  21169839.8054   21169845.8144
       244.0004        207.0004
  20129841.7904   -5440243.86249  -4230746.26448  20129841.2414   20129846.0664
       246.0004        214.0004
  22623626.4144  -12461560.94249  -9689210.88446  22623625.4704   22623632.2324
       225.0004        169.0004
  23374464.6704  -11061215.13449  -8333601.30345  23374465.6644   23374468.6044
       222.0004        160.0004
 03 12 17 18 50 30.0000000  0  7G29G28G27G 7G 8G26G11
  22077901.3214  -16599425.22649 -12923643.85746  22077900.9674   22077906.0404
       234.0004        186.0004
  20820006.4324   -6787244.29049  -5281489.07847  20820005.8704   20820009.7044
       244.0004        211.0004
  21546987.7304    3846161.93049   2997084.71247  21546987.6814   21546993.8564
       235.0004        192.0004
  21157845.8984  -19559985.90349 -15227746.92247  21157845.0794   21157851.2614
       244.0004        207.0004
  20132752.5084   -5424947.98449  -4218827.41248  20132751.7164   20132757.0174
       246.0004        214.0004
  22614004.3004  -12512125.32449  -9728611.67246  22614004.1414   22614009.5474
       225.0004        170.0004
  23371631.6504  -11076103.51149  -8345202.63745  23371630.8574   23371637.6964
       221.0004        160.0004
 03 12 17 18 51  0.0000000  0  7G29G28G27G 7G 8G26G11
  22072152.2804  -16629636.73249 -12947185.29346  22072152.2674   22072156.8064
       234.0004        187.0004
  20819759.1704   -6788543.85649  -5282501.73947  20819758.4814   20819762.5994
       244.0004        211.0004
  21558363.1964    3905940.30049   3043665.19147  21558362.9464   21558368.6854
       235.0004        191.0004
  21145928.4914  -19622612.38349 -15276546.75347  21145927.6994   21145933.7894
       244.0004        207.0004
  20135744.2524   -5409226.35749  -4206576.80848  20135743.7054   20135748.6414
       247.0004        214.0004
  22604481.1184  -12562169.98149  -9767607.49046  22604481.1734   22604487.1254
       225.0004        170.0004
  23368887.7574  -11090522.85949  -8356438.51745  23368887.1564   23368894.2574
       222.0004        161.0004
 03 12 17 18 51 30.0000000  0  7G29G28G27G 7G 8G26G11
  22066507.2544  -16659301.64849 -12970300.80646  22066506.9054   22066512.1844
       234.0004        187.0004
  20819549.6064   -6789644.87849  -5283359.68747  20819548.8964   20819552.8884
       244.0004        211.0004
  21569807.6944    3966081.25049   3090528.20747  21569807.3134   21569813.5424
       234.0004        191.0004
  21134088.4964  -19684831.98049 -15325029.52947  21134087.6064   21134093.6844
       244.0004        208.0004
  20138817.0534   -5393078.75749  -4193994.27148  20138816.2484   20138821.4364
       246.0004        214.0004
  22595056.9944  -12611693.64649  -9806197.33846  22595056.7484   22595062.4754
       225.0004        170.0004
  23366233.3644  -11104471.89649  -8367307.92845  23366232.3444   23366239.6354
       221.0004        161.0004
 03 12 17 18 52  0.0000000  0  7G29G28G27G 7G 8G26G11
  22060966.4314  -16688418.78449 -12992989.48046  22060966.0214   22060971.6334
       234.0004        187.0004
  20819377.8364   -6790547.64049  -5284063.14847  20819377.2354   20819381.2284
       244.0004        211.0004
  21581321.1724    4026584.78349   3137673.74547  21581320.6634   21581327.3874
       234.0004        191.0004
  21122326.1564  -19746643.26049 -15373194.13847  21122325.3084   21122331.0874
       245.0004        208.0004
  20141971.1504   -5376503.93149  -4181078.83548  20141970.4244   20141975.5874
       246.0004        214.0004
  22585732.3904  -12660694.29349  -9844379.65146  22585732.3634   22585737.9594
       225.0004        170.0004
  23363668.6974  -11117949.03849  -8377809.60645  23363668.0394   23363675.3964
       222.0004        161.0004
 03 12 17 18 52 30.0000000  0  7G29G28G27G 7G 8G26G11
  22055530.0184  -16716987.24049 -13015250.61646  22055529.4654   22055534.8854
       234.0004        187.0004
  20819243.6454   -6791252.76449  -5284612.60247  20819243.0784   20819246.9914
       244.0004        211.0004
  21592903.5334    4087450.60049   3185101.58147  21592902.9044   21592909.7764
       234.0004        190.0004
  21110641.8074  -19808044.94249 -15421039.57847  21110641.0174   21110647.0084
       245.0004        208.0004
  20145206.7024   -5359501.22049  -4167829.98148  20145205.9944   20145210.9994
       246.0004        214.0004
  22576507.6524  -12709170.41949  -9882153.22446  22576507.4194   22576512.8714
       226.0004        169.0004
  23361194.0694  -11130952.67649  -8387942.34445  23361193.9424   23361199.6184
       220.0004        161.0004
 03 12 17 18 53  0.0000000  0  7G29G28G27G 7G 8G26G11
  22050198.1904  -16745006.23449 -13037083.60246  22050197.6564   22050203.2204
       234.0004        187.0004
  20819146.9404   -6791761.03649  -5285008.66947  20819146.5154   20819150.1754
       243.0004        211.0004
  21604554.8254    4148678.27249   3232811.37647  21604554.4584   21604561.1214
       234.0004        190.0004
  21099035.5794  -19869036.06749 -15468565.10347  21099034.7024   21099040.7344
       245.0004        208.0004
  20148523.7934   -5342069.89549  -4154247.14548  20148523.0184   20148528.1994
       246.0004        214.0004
  22567383.0924  -12757120.44249  -9919516.86846  22567383.4764   22567388.5674
       226.0004        170.0004
  23358809.9164  -11143481.81849  -8397705.32645  23358809.2134   23358814.8994
       221.0004        161.0004
 03 12 17 18 53 30.0000000  0  7G29G28G27G 7G 8G26G11
  22044970.8964  -16772475.63449 -13058488.33346  22044970.3854   22044976.0224
       234.0004        187.0004
  20819087.3784   -6792074.03949  -5285252.57547  20819086.7964   20819090.6204
       244.0004        211.0004
  21616274.7194    4210266.42549   3280802.07247  21616274.3954   21616281.0224
       233.0004        190.0004
  21087507.5214  -19929616.37649 -15515770.51547  21087506.6934   21087512.8484
       246.0004        208.0004
  20151922.3384   -5324210.29849  -4140330.58348  20151921.5554   20151926.6944
       246.0004        214.0004
  22558358.8064  -12804543.92549  -9956470.20746  22558358.5834   22558363.8154
       227.0004        171.0004
  23356516.1144  -11155536.22149  -8407098.40145  23356516.0704   23356521.6054
       223.0004        162.0004
 03 12 17 18 54  0.0000000  0  7G29G28G27G 7G 8G26G11
  22039848.5074  -16799394.03149 -13079463.70246  22039848.6704   22039853.3354
       234.0004        186.0004
  20819065.0244   -6792191.52049  -5285344.12747  20819064.6114   20819068.1934
       244.0004        211.0004
  21628063.3144    4272215.52549   3329074.02647  21628063.4034   21628068.7344
       234.0004        189.0004
  21076057.9904  -19989783.92249 -15562654.29247  21076057.2294   21076063.1544
       245.0004        209.0004
  20155402.7394   -5305920.76249  -4126079.00548  20155402.0854   20155407.3744
       246.0004        214.0004
  22549435.1284  -12851438.28549  -9993011.24446  22549435.1414   22549440.4814
       228.0004        172.0004
  23354313.1144  -11167113.89949  -8416119.98345  23354313.1054   23354317.9464
       222.0004        162.0004
 03 12 17 18 54 30.0000000  0  7G29G28G27G 7G 8G26G11
  22034831.1854  -16825760.22549 -13100008.79646  22034831.1944   22034835.7264
       234.0004        186.0004
  20819079.8594   -6792113.80049  -5285283.57347  20819079.3914   20819083.1174
       245.0004        211.0004
  21639920.6344    4334525.54249   3377627.20447  21639920.0754   21639926.5904
       233.0004        189.0004
  21064687.2704  -20049537.45549 -15609215.46347  21064686.4014   21064692.4634
       246.0004        209.0004
  20158965.0984   -5287200.60449  -4111491.87648  20158964.3994   20158969.5674
       246.0004        214.0004
  22540612.4904  -12897801.97349 -10029138.77346  22540612.3094   22540617.8764
       229.0004        172.0004
  23352201.0264  -11178213.38749  -8424768.95845  23352200.6184   23352207.2024
       221.0004        162.0004
 03 12 17 18 55  0.0000000  0  7G29G28G27G 7G 8G26G11
  22029918.9184  -16851574.38549 -13120123.71546  22029918.4354   22029923.2284
       234.0004        186.0004
  20819131.5374   -6791842.43649  -5285072.12247  20819130.9264   20819134.4904
       244.0004        211.0004
  21651846.3454    4397195.29849   3426460.71547  21651845.9994   21651851.7924
       233.0004        188.0004
  21053395.3914  -20108876.58849 -15655453.71547  21053394.4184   21053400.5994
       245.0004        209.0004
  20162609.3754   -5268049.67649  -4096569.07948  20162608.5574   20162613.7854
       246.0004        214.0004
  22531890.9504  -12943634.28549 -10064852.24346  22531891.1064   22531896.1244
       229.0004        173.0004
  23350179.9214  -11188834.09449  -8433044.83945  23350179.2974   23350185.4384
       220.0004        162.0004
 03 12 17 18 55 30.0000000  0  7G29G28G27G 7G 8G26G11
  22025112.1724  -16876833.77249 -13139806.35846  22025112.1324   22025116.7064
       234.0004        187.0004
  20819220.2264   -6791376.25949  -5284708.87947  20819219.5744   20819223.5224
       245.0004        211.0004
  21663840.7754    4460226.11949   3475575.55846  21663840.3654   21663846.6324
       232.0004        187.0004
  21042182.8914  -20167798.51249 -15701366.88347  21042182.1504   21042187.9914
       246.0004        210.0004
  20166336.0974   -5248465.63249  -4081308.79848  20166335.2774   20166340.5124
       246.0004        214.0004
  22523271.1024  -12988931.97049 -10100149.12746  22523270.8144   22523276.6904
       228.0004        173.0004
  23348250.3654  -11198973.09149  -8440945.36645  23348249.0544   23348256.4974
       220.0004        162.0004
 03 12 17 18 56  0.0000000  0  7G29G28G27G 7G 8G26G11
  22020411.0114  -16901538.77049 -13159056.99846  22020410.8774   22020415.8264
       234.0004        187.0004
  20819345.7374   -6790716.77649  -5284195.00047  20819345.1874   20819349.0654
       244.0004        211.0004
  21675903.5604    4523616.50149   3524970.59046  21675903.0254   21675908.9744
       232.0004        187.0004
  21031049.8254  -20226303.21349 -15746954.93247  21031048.9084   21031054.9544
       246.0004        210.0004
  20170145.1704   -5228448.88149  -4065711.34048  20170144.3804   20170149.5654
       246.0004        214.0004
  22514753.0194  -13033694.60949 -10135029.08646  22514752.3314   22514758.7534
       226.0004        172.0004
  23346412.5564  -11208630.28749  -8448470.44745  23346412.4054   23346419.2414
       221.0004        162.0004
 03 12 17 18 56 30.0000000  0  7G29G28G27G 7G 8G26G11
  22015815.4544  -16925688.45649 -13177874.92546  22015815.5084   22015820.4214
       234.0004        187.0004
  20819507.9004   -6789864.69249  -5283531.04747  20819507.2254   20819511.2324
       245.0004        211.0004
  21688034.7474    4587366.17449   3574645.58146  21688034.6064   21688040.5364
       232.0004        187.0004
  21019996.3944  -20284389.48649 -15792216.93947  21019995.4404   21020001.5004
       246.0004        210.0004
  20174036.7274   -5207998.65849  -4049776.11048  20174036.1054   20174041.2404
       246.0004        214.0004
  22506337.1034  -13077920.48949 -10169490.77346  22506336.7674   22506342.4024
       227.0004        172.0004
  23344666.7704  -11217804.64049  -8455619.29145  23344666.0844   23344672.7244
       220.0004        162.0004
 03 12 17 18 57  0.0000000  0  7G29G28G27G 7G 8G26G11
  22011325.7204  -16949282.33449 -13196259.75947  22011325.5464   22011330.6134
       234.0004        188.0004
  20819706.5994   -6788820.64649  -5282717.51047  20819705.9874   20819709.8404
       245.0004        211.0004
  21700234.2594    4651474.74449   3624600.24046  21700234.1214   21700240.4824
       232.0004        187.0004
  21009022.7394  -20342056.32349 -15837152.10547  21009021.8374   21009027.7914
       246.0004        210.0004
  20178010.9434   -5187114.27149  -4033502.57248  20178010.3044   20178015.4164
       246.0004        214.0004
  22498023.4744  -13121608.46249 -10203533.31446  22498023.4024   22498028.6894
       226.0004        172.0004
  23343012.9794  -11226495.16649  -8462391.12045  23343011.6494   23343018.9404
       220.0004        162.0004
 03 12 17 18 57 30.0000000  0  7G29G28G27G 7G 8G26G11
  22006941.8904  -16972319.36649 -13214210.69547  22006941.6814   22006946.9934
       234.0004        188.0004
  20819941.7414   -6787584.91849  -5281754.61447  20819941.2054   20819945.0234
       244.0004        211.0004
  21712502.0194    4715941.88449   3674834.30347  21712501.9284   21712508.5634
       233.0004        188.0004
  20998129.1104  -20399302.44149 -15881759.44147  20998128.1584   20998134.2614
       246.0004        210.0004
  20182067.8974   -5165794.94249  -4016890.12048  20182067.2464   20182072.1544
       246.0004        213.0004
  22489812.5844  -13164756.70349 -10237155.29746  22489811.7274   22489818.8874
       226.0004        172.0004
  23341451.6194  -11234700.26249  -8468784.68145  23341451.7394   23341458.2614
       220.0004        162.0004
 03 12 17 18 58  0.0000000  0  7G29G28G27G 7G 8G26G11
  22002664.0154  -16994799.57449 -13231727.73447  22002663.6134   22002669.3344
       234.0004        188.0004
  20820213.1224   -6786158.84449  -5280643.39247  20820212.4574   20820216.4094
       245.0004        211.0004
  21724837.8844    4780766.63049   3725347.01847  21724837.6084   21724844.1054
       233.0004        188.0004
  20987315.6544  -20456127.54049 -15926038.70947  20987314.9144   20987320.5664
       247.0004        211.0004
  20186207.5874   -5144040.77249  -3999938.83248  20186206.8704   20186211.9544
       246.0004        213.0004
  22481704.4714  -13207364.57949 -10270356.20746  22481704.4704   22481710.7284
       227.0004        173.0004
  23339982.7884  -11242419.68549  -8474799.80245  23339981.8574   23339988.6024
       222.0004        162.0004
 03 12 17 18 58 30.0000000  0  7G29G28G27G 7G 8G26G11
  21998492.3024  -17016722.22449 -13248810.30947  21998492.0614   21998496.8634
       235.0004        188.0004
  20820520.6574   -6784542.67449  -5279384.04747  20820520.0444   20820523.9534
       245.0004        210.0004
  21737241.7184    4845948.55549   3776138.05547  21737241.3414   21737247.7424
       233.0004        188.0004
  20976582.5344  -20512530.47449 -15969989.01847  20976581.5954   20976587.3844
       246.0004        211.0004
  20190430.1524   -5121850.90349  -3982648.03748  20190429.3874   20190434.4814
       245.0004        213.0004
  22473699.5954  -13249430.66849 -10303134.92646  22473699.2924   22473704.6394
       226.0004        173.0004
  23338606.6394  -11249651.79949  -8480435.20345  23338606.1994   23338611.8664
       220.0004        162.0004
 03 12 17 18 59  0.0000000  0  7G29G28G27G 7G 8G26G11
  21994426.8734  -17038086.48749 -13265457.78347  21994426.4554   21994431.7494
       234.0004        188.0004
  20820864.2584   -6782737.23749  -5277977.21747  20820863.6364   20820867.4794
       244.0004        211.0004
  21749713.4504    4911487.13549   3827207.00747  21749713.7864   21749719.3344
       233.0004        188.0004
  20965929.9174  -20568510.19349 -16013609.54747  20965929.2194   20965934.6474
       247.0004        211.0004
  20194735.7814   -5099224.73549  -3965017.27248  20194734.9764   20194740.1914
       245.0004        213.0004
  22465798.1194  -13290953.44349 -10335490.30146  22465797.8124   22465803.4524
       226.0004        173.0004
  23337323.2194  -11256395.86149  -8485690.31145  23337323.2674   23337329.2724
       221.0004        162.0004
 03 12 17 18 59 30.0000000  0  7G29G28G27G 7G 8G26G11
  21990467.8114  -17058891.31049 -13281669.33447  21990467.3664   21990472.8964
       234.0004        188.0004
  20821243.8704   -6780742.29549  -5276422.72247  20821243.2634   20821247.1724
       245.0004        210.0004
  21762253.0374    4977382.60749   3878554.05547  21762252.5764   21762259.0754
       233.0004        188.0004
  20955358.1544  -20624065.20949 -16056899.14247  20955357.2184   20955363.0384
       246.0004        211.0004
  20199124.6114   -5076161.17949  -3947045.68548  20199123.8784   20199128.9794
       246.0004        213.0004
  22458000.2954  -13331931.14949 -10367420.95146  22458000.2104   22458006.0734
       226.0004        173.0004
  23336132.9974  -11262650.63549  -8490564.16445  23336132.7314   23336138.8894
       221.0004        162.0004
 03 12 17 19  0  0.0000000  0  7G29G28G27G 7G 8G26G11
  21986615.2354  -17079136.54349 -13297444.83647  21986614.7334   21986620.0174
       234.0004        188.0004
  20821659.3934   -6778558.82249  -5274721.31747  20821658.6564   20821662.6924
       245.0004        210.0004
  21774860.2994    5043634.03149   3930178.46947  21774860.2284   21774866.5564
       232.0004        188.0004
  20944867.2644  -20679194.94649 -16099857.34547  20944866.3114   20944872.2524
       246.0004        211.0004
  20203596.7694   -5052659.92149  -3928733.03148  20203596.1514   20203601.1904
       246.0004        213.0004
  22450306.4214  -13372362.69349 -10398926.01946  22450305.3774   22450312.0394
       228.0004        174.0004
  23335036.0964  -11268414.93049  -8495055.83345  23335035.1314   23335041.4344
       221.0004        162.0004
 03 12 17 19  0 30.0000000  0  7G29G28G27G 7G 8G26G11
  21982869.4034  -17098821.08649 -13312783.44147  21982869.2464   21982874.1774
       234.0004        189.0004
  20822110.7594   -6776186.92349  -5272873.09247  20822110.2934   20822114.0264
       245.0004        211.0004
  21787535.3554    5110241.33649   3982080.19946  21787534.9734   21787541.2604
       233.0004        187.0004
  20934457.5954  -20733897.92149 -16142483.01147  20934456.7974   20934462.5714
       246.0004        211.0004
  20208152.4274   -5028719.91749  -3910078.50048  20208151.6784   20208156.8564
       246.0004        213.0004
  22442716.7014  -13412246.52549 -10430004.30646  22442716.0114   22442721.8914
       226.0004        174.0004
  23334032.7094  -11273687.65549  -8499164.44645  23334031.9064   23334038.2684
       221.0004        162.0004
 03 12 17 19  1  0.0000000  0  7G29G28G27G 7G 8G26G11
  21979230.5534  -17117943.47049 -13327683.99847  21979230.4854   21979235.1884
       234.0004        189.0004
  20822598.0314   -6773626.40649  -5270877.89147  20822597.3664   20822601.2884
       245.0004        210.0004
  21800278.1704    5177205.00549   4034259.61546  21800277.7724   21800284.2544
       231.0004        187.0004
  20924129.4844  -20788172.33049 -16184774.72947  20924128.7374   20924134.5174
       247.0004        211.0004
  20212791.8514   -5004339.73749  -3891080.97748  20212790.9964   20212796.3024
       246.0004        213.0004
  22435231.5544  -13451580.38549 -10460654.03846  22435230.9134   22435237.1614
       228.0004        174.0004
  23333123.2544  -11278466.58949  -8502888.31445  23333122.9354   23333129.6954
       221.0004        162.0004
 03 12 17 19  1 30.0000000  0  7G29G28G27G 7G 8G26G11
  21975698.1904  -17136506.06249 -13342148.34947  21975698.0614   21975703.4024
       234.0004        189.0004
  20823120.5414   -6770880.61149  -5268738.31947  20823119.9044   20823123.7784
       245.0004        210.0004
  21813088.0554    5244521.60249   4086714.04046  21813087.5144   21813094.7864
       231.0004        186.0004
  20913882.5994  -20842020.14349 -16226734.03247  20913881.6214   20913887.5764
       246.0004        211.0004
  20217514.5804   -4979521.66649  -3871742.23648  20217513.7464   20217519.1674
       246.0004        213.0004
  22427850.9314  -13490365.75549 -10490876.38246  22427850.7724   22427856.2874
       228.0004        174.0004
  23332307.5124  -11282753.72649  -8506228.95145  23332306.2414   23332313.1424
       221.0004        162.0004
 03 12 17 19  2  0.0000000  0  7G29G28G27G 7G 8G26G11
  21972272.8944  -17154505.98549 -13356174.25447  21972272.7524   21972278.1664
       234.0004        189.0004
  20823678.6694   -6767947.52849  -5266452.80047  20823678.0284   20823681.8994
       245.0004        210.0004
  21825965.4744    5312193.01549   4139444.94346  21825964.7694   21825971.9264
       231.0004        186.0004
  20903717.4704  -20895437.99449 -16268358.30147  20903716.6484   20903722.4654
       247.0004        211.0004
  20222321.2194   -4954262.72049  -3852059.95648  20222320.6194   20222325.7144
       246.0004        213.0004
  22420575.3264  -13528599.17049 -10520668.62646  22420574.7794   22420581.6014
       228.0004        174.0004
  23331585.8654  -11286545.77549  -8509183.81045  23331586.2594   23331592.1284
       221.0004        161.0004
 03 12 17 19  2 30.0000000  0  7G29G28G27G 7G 8G26G11
  21968954.6264  -17171943.76149 -13369762.12347  21968954.2894   21968959.4084
       235.0004        188.0004
  20824272.1074   -6764828.94249  -5264022.73447  20824271.5574   20824275.4694
       245.0004        210.0004
  21838910.1684    5380217.62249   4192451.06046  21838909.8974   21838916.5594
       231.0004        186.0004
  20893634.1454  -20948426.14749 -16309647.73847  20893633.2794   20893639.2534
       247.0004        212.0004
  20227211.6094   -4928563.75949  -3832034.80648  20227211.0134   20227216.1004
       246.0004        213.0004
  22413404.8004  -13566280.49249 -10550030.67546  22413404.8534   22413410.1504
       228.0004        174.0004
  23330958.5064  -11289843.28749  -8511753.32645  23330958.5834   23330962.7914
       223.0004        162.0004
 03 12 17 19  3  0.0000000  0  7G29G28G27G 7G 8G26G11
  21965743.4294  -17188818.85149 -13382911.54147  21965743.2124   21965748.6204
       235.0004        189.0004
  20824900.8394   -6761524.99249  -5261448.23047  20824900.3714   20824903.9614
       245.0004        210.0004
  21851922.0014    5448595.06249   4245732.11646  21851921.8194   21851927.9944
       230.0004        185.0004
  20883632.8074  -21000983.47449 -16350601.47047  20883631.8134   20883637.7634
       247.0004        212.0004
  20232185.8984   -4902423.80049  -3811666.02448  20232185.1404   20232190.3024
       246.0004        213.0004
  22406339.5964  -13603408.32649 -10578961.42246  22406339.8244   22406345.0904
       228.0004        174.0004
  23330425.5554  -11292644.46749  -8513936.07646  23330425.2834   23330430.6044
       222.0004        163.0004
 03 12 17 19  3 30.0000000  0  7G29G28G27G 7G 8G26G11
  21962639.2864  -17205131.17749 -13395622.44447  21962638.8614   21962643.8784
       234.0004        189.0004
  20825564.6654   -6758036.61649  -5258730.02047  20825564.2324   20825567.7094
       245.0004        210.0004
  21865000.8054    5517324.33749   4299287.32946  21865000.4154   21865007.0324
       231.0004        184.0004
  20873713.5204  -21053109.55149 -16391219.16847  20873712.5204   20873718.4914
       247.0004        212.0004
  20237244.1024   -4875842.87449  -3790953.63748  20237243.4184   20237248.4164
       246.0004        213.0004
  22399379.9344  -13639981.72749 -10607460.17646  22399380.0524   22399385.2144
       230.0004        175.0004
  23329987.0124  -11294949.13249  -8515731.93846  23329986.8064   23329991.8304
       223.0004        163.0004
 03 12 17 19  4  0.0000000  0  7G29G28G27G 7G 8G26G11
  21959642.4504  -17220879.22949 -13407893.64947  21959641.9564   21959647.3824
       234.0004        189.0004
  20826263.6754   -6754363.47649  -5255867.83547  20826263.0784   20826267.0164
       245.0004        210.0004
  21878146.6274    5586405.88049   4353117.04746  21878146.1654   21878152.6574
       230.0004        184.0004
  20863876.6614  -21104802.53749 -16431499.39347  20863875.6094   20863881.5114
       247.0004        212.0004
  20242386.5514   -4848819.25949  -3769896.29448  20242385.8784   20242390.9344
       246.0004        213.0004
  22392526.1484  -13675998.81949 -10635525.41846  22392526.1674   22392531.5774
       229.0004        175.0004
  23329643.2004  -11296755.66449  -8517139.66146  23329642.5854   23329648.4694
       222.0004        163.0004
 03 12 17 19  4 30.0000000  0  7G29G28G27G 7G 8G26G11
  21956752.9134  -17236063.91349 -13419725.87647  21956752.7664   21956758.3914
       235.0004        189.0004
  20826997.4994   -6750507.10449  -5252862.87147  20826996.9104   20827000.6074
       244.0004        210.0004
  21891359.1894    5655837.86549   4407219.82746  21891359.0674   21891365.0564
       231.0004        184.0004
  20854122.1484  -21156062.68749 -16471442.33947  20854121.2024   20854127.1504
       247.0004        212.0004
  20247613.0814   -4821353.74849  -3748494.61148  20247612.4304   20247617.4794
       246.0004        213.0004
  22385778.1814  -13711459.45549 -10663157.07546  22385778.4084   22385783.2654
       228.0004        175.0004
  23329394.2024  -11298063.97649  -8518159.15346  23329393.6974   23329399.2594
       223.0004        164.0004
 03 12 17 19  5  0.0000000  0  7G29G28G27G 7G 8G26G11
  21953970.8484  -17250683.90449 -13431118.07547  21953970.8724   21953975.8104
       234.0004        189.0004
  20827766.3064   -6746467.06649  -5249714.79447  20827765.7884   20827769.6464
       244.0004        210.0004
  21904638.5264    5725620.67549   4461595.98446  21904638.7044   21904644.2424
       231.0004        184.0004
  20844450.3614  -21206888.19749 -16511046.60847  20844449.4784   20844455.4164
       247.0004        212.0004
  20252924.0114   -4793444.93649  -3726747.50048  20252923.3734   20252928.3734
       246.0004        213.0004
  22379136.5864  -13746361.43049 -10690353.40446  22379136.4764   22379141.7514
       228.0004        175.0004
  23329240.3534  -11298872.51649  -8518789.20146  23329239.9634   23329246.7444
       223.0004        164.0004
 03 12 17 19  5 30.0000000  0  7G29G28G27G 7G 8G26G11
  21951296.1294  -17264739.83949 -13442070.75347  21951295.9144   21951300.6434
       235.0004        189.0004
  20828569.7234   -6742244.91149  -5246424.80747  20828569.1124   20828572.8254
       244.0004        210.0004
  21917984.2814    5795752.78749   4516244.32846  21917984.2354   21917990.3294
       232.0004        183.0004
  20834861.2194  -21257279.36749 -16550312.42948  20834860.3764   20834866.1064
       248.0004        213.0004
  20258319.0954   -4765093.46949  -3704655.46048  20258318.2884   20258323.4344
       246.0004        213.0004
  22372601.1824  -13780704.92549 -10717114.57046  22372600.9414   22372606.4124
       229.0004        175.0004
  23329181.6884  -11299181.47749  -8519029.97246  23329181.6544   23329186.7194
       223.0004        165.0004
 03 12 17 19  6  0.0000000  0  7G29G28G27G 7G 8G26G11
  21948728.9724  -17278230.52649 -13452582.98147  21948728.6114   21948733.8674
       234.0004        189.0004
  20829407.9144   -6737840.30549  -5242992.65447  20829407.1514   20829411.2214
       244.0004        210.0004
  21931396.5664    5866234.28649   4571164.91946  21931396.0504   21931402.5664
       230.0004        183.0004
  20825355.0534  -21307234.62649 -16589238.58248  20825354.2274   20825359.9824
       247.0004        213.0004
  20263798.6954   -4736297.96449  -3682217.41948  20263797.9254   20263803.1424
       246.0004        213.0004
  22366172.5074  -13814487.95749 -10743438.99946  22366172.8514   22366178.3624
       228.0004        175.0004
  23329218.2424  -11298989.45949  -8518880.36446  23329218.1084   23329223.4104
       223.0004        164.0004
 03 12 17 19  6 30.0000000  0  7G29G28G27G 7G 8G26G11
  21946269.2344  -17291156.51149 -13462655.18547  21946268.8144   21946274.2684
       234.0004        189.0004
  20830280.5894   -6733254.48049  -5239419.29747  20830279.9974   20830283.7804
       244.0004        210.0004
  21944875.0364    5937063.79149   4626356.68346  21944874.3004   21944881.2464
       231.0004        182.0004
  20815931.8554  -21356753.81649 -16627824.94548  20815931.0614   20815936.8034
       248.0004        213.0004
  20269362.7474   -4707058.86249  -3659433.72348  20269362.0734   20269367.3014
       246.0004        213.0004
  22359850.4904  -13847710.23149 -10769326.48546  22359850.8274   22359855.2824
       228.0004        175.0004
  23329350.2194  -11298296.32849  -8518340.27646  23329350.2274   23329355.3354
       224.0004        164.0004
 03 12 17 19  7  0.0000000  0  7G29G28G27G 7G 8G26G11
  21943917.2524  -17303516.41549 -13472286.27847  21943916.6734   21943922.4004
       234.0004        189.0004
  20831187.8764   -6728486.76749  -5235704.20147  20831187.2894   20831190.9404
       244.0004        210.0004
  21958419.7934    6008241.74149   4681819.97146  21958419.7924   21958425.6104
       232.0004        182.0004
  20806592.0194  -21405835.06249 -16666070.04448  20806591.2674   20806596.9304
       249.0004        214.0004
  20275011.5244   -4677374.48449  -3636303.05148  20275010.8824   20275015.8944
       246.0004        213.0004
  22353635.6494  -13880369.64949 -10794775.36546  22353634.6314   22353641.4254
       228.0004        175.0004
  23329577.7944  -11297100.10049  -8517408.16446  23329577.6794   23329584.4194
       224.0004        164.0004
 03 12 17 19  7 30.0000000  0  7G29G28G27G 7G 8G26G11
  21941672.8864  -17315310.57149 -13481476.54247  21941672.8164   21941678.0814
       235.0004        190.0004
  20832129.5494   -6723538.23049  -5231848.21147  20832128.9974   20832132.8604
       244.0004        210.0004
  21972030.6334    6079766.97549   4737553.86246  21972030.0704   21972037.1934
       230.0004        182.0004
  20797335.4774  -21454478.37149 -16703973.89948  20797334.6954   20797340.3234
       248.0004        214.0004
  20280744.9444   -4647245.23549  -3612825.73248  20280744.3534   20280749.3534
       246.0004        213.0004
  22347527.9414  -13912465.79949 -10819785.35946  22347527.1094   22347533.6314
       229.0004        175.0004
  23329901.2154  -11295400.64349  -8516083.94346  23329900.2264   23329906.7574
       223.0004        164.0004
 03 12 17 19  8  0.0000000  0  7G29G28G27G 7G 8G26G11
  21939536.2414  -17326538.77149 -13490225.79547  21939536.1954   21939541.2334
       235.0004        190.0004
  20833105.5274   -6718409.38849  -5227851.71847  20833104.9124   20833108.8474
       244.0004        210.0004
  21985707.3524    6151638.60949   4793557.67846  21985706.5124   21985713.6774
       230.0004        182.0004
  20788162.4564  -21502682.92849 -16741535.87148  20788161.6154   20788167.4744
       248.0004        214.0004
  20286563.1334   -4616670.51649  -3589001.28748  20286562.4254   20286567.5154
       246.0004        213.0004
  22341527.6674  -13943997.70749 -10844355.67346  22341528.0524   22341532.9014
       229.0004        175.0004
  23330320.3634  -11293197.73749  -8514367.38446  23330319.3664   23330325.6094
       223.0004        164.0004
 03 12 17 19  8 30.0000000  0  7G29G28G27G 7G 8G26G11
  21937507.3304  -17337200.92749 -13498533.98247  21937507.0504   21937512.1094
       235.0004        190.0004
  20834115.7594   -6713100.81249  -5223715.17747  20834115.3924   20834118.9454
       245.0004        210.0004
  21999449.9814    6223855.97649   4849830.89146  21999449.3284   21999456.1164
       230.0004        182.0004
  20779073.0054  -21550448.27649 -16778755.59748  20779072.2984   20779077.8354
       248.0004        214.0004
  20292466.1194   -4585650.24049  -3564829.65948  20292465.5184   20292470.4784
       246.0004        213.0004
  22335634.8664  -13974964.43549 -10868485.59846  22335634.8524   22335640.0074
       229.0004        176.0004
  23330835.6244  -11290490.23749  -8512257.65546  23330835.1894   23330840.5434
       223.0004        164.0004
 03 12 17 19  9  0.0000000  0  7G29G28G27G 7G 8G26G11
  21935586.0294  -17347297.27249 -13506401.27847  21935585.8004   21935590.8534
       235.0004        190.0004
  20835160.0324   -6707613.21949  -5219439.14647  20835159.5094   20835163.3194
       245.0004        210.0004
  22013258.0514    6296417.91749   4906372.60546  22013257.8594   22013264.4744
       230.0004        181.0004
  20770067.2464  -21597774.02749 -16815632.78448  20770066.4724   20770072.2874
       247.0004        214.0004
  20298453.8814   -4554184.51449  -3540310.93248  20298453.0934   20298458.1954
       246.0004        213.0004
  22329849.6274  -14005365.60949 -10892174.83046  22329849.4574   22329855.3044
       229.0004        176.0004
  23331446.9954  -11287278.03449  -8509754.65746  23331447.2454   23331452.2934
       225.0004        164.0004
 03 12 17 19  9 30.0000000  0  7G29G28G27G 7G 8G26G11
  21933772.7154  -17356826.44349 -13513826.61747  21933772.5954   21933777.8094
       235.0004        190.0004
  20836238.4794   -6701946.05349  -5215023.17947  20836237.8034   20836241.7144
       245.0004        210.0004
  22027131.7274    6369324.98449   4963183.25246  22027131.6244   22027137.8354
       228.0004        181.0004
  20761145.4684  -21644658.29549 -16852165.95648  20761144.5594   20761150.2754
       247.0004        214.0004
  20304526.7074   -4522271.64049  -3515443.77548  20304525.9894   20304531.1694
       246.0004        213.0004
  22324172.5004  -14035198.99949 -10915421.62546  22324172.7074   22324178.0974
       230.0004        176.0004
  23332154.7004  -11283559.51849  -8506857.12646  23332153.8264   23332159.8794
       224.0004        164.0004
 03 12 17 19 10  0.0000000  0  7G29G28G27G 7G 8G26G11
  21932067.0734  -17365789.61349 -13520810.92047  21932066.5964   21932072.4154
       234.0004        190.0004
  20837350.7274   -6696101.03349  -5210468.62447  20837350.0034   20837353.9144
       245.0004        209.0004
  22041070.7444    6442574.96349   5020261.09846  22041070.6544   22041077.2284
       229.0004        181.0004
  20752307.5524  -21691101.83949 -16888355.70748  20752306.7074   20752312.4834
       247.0004        214.0004
  20310684.4184   -4489912.61249  -3490228.96348  20310683.5164   20310688.7864
       246.0004        213.0004
  22318603.3154  -14064465.15349 -10938226.42546  22318603.3724   22318608.2684
       229.0004        177.0004
  23332958.4504  -11279335.26049  -8503565.49746  23332958.5594   23332963.9884
       222.0004        163.0004
 03 12 17 19 10 30.0000000  0  7G29G28G27G 7G 8G26G11
  21930469.1974  -17374186.16749 -13527353.71047  21930469.0624   21930474.4564
       235.0004        189.0004
  20838496.9044   -6690077.92749  -5205775.30047  20838495.9894   20838500.1194
       244.0004        209.0004
  22055075.1054    6516167.95449   5077606.22246  22055074.6504   22055081.7394
       229.0004        182.0004
  20743553.7474  -21737103.20849 -16924200.90248  20743552.8874   20743558.5754
       247.0004        214.0004
  20316927.1884   -4457106.69149  -3464665.92248  20316926.2754   20316931.7044
       245.0004        213.0004
  22313142.4374  -14093162.53549 -10960588.02346  22313142.1734   22313148.2074
       229.0004        177.0004
  23333858.6694  -11274604.32449  -8499879.07946  23333858.3264   23333864.0154
       223.0004        163.0004
 03 12 17 19 11  0.0000000  0  7G29G28G27G 7G 8G26G11
  21928979.2104  -17382016.27549 -13533455.11347  21928978.9144   21928984.0894
       235.0004        189.0004
  20839676.7584   -6683877.52949  -5200943.83647  20839676.0624   20839679.9734
       244.0004        209.0004
  22069144.4714    6590102.66849   5135217.62046  22069144.1194   22069151.4494
       228.0004        182.0004
  20734884.1624  -21782662.02149 -16959701.25148  20734883.1294   20734888.8494
       247.0004        214.0004
  20323255.0374   -4423853.70649  -3438754.52147  20323254.1744   20323259.3554
       246.0004        212.0004
  22307789.8094  -14121290.63049 -10982506.02046  22307789.4994   22307795.0154
       229.0004        178.0004
  23334855.4404  -11269366.06049  -8495797.33346  23334854.8064   23334861.4124
       223.0004        163.0004
 03 12 17 19 11 30.0000000  0  7G29G28G27G 7G 8G26G11
  21927597.0294  -17389279.80449 -13539115.02347  21927596.9014   21927601.6574
       234.0004        189.0004
  20840890.3484   -6677500.17049  -5195974.47847  20840889.8024   20840893.7204
       245.0004        209.0004
  22083278.7344    6664378.34449   5193094.69846  22083278.9444   22083285.2894
       229.0004        182.0004
  20726298.8714  -21827777.95749 -16994856.50348  20726297.8534   20726303.4604
       247.0004        214.0004
  20329668.0434   -4390153.30249  -3412494.48447  20329667.1844   20329672.4014
       246.0004        212.0004
  22302545.6774  -14148848.72249 -11003979.85346  22302545.2594   22302551.5024
       229.0004        178.0004
  23335948.8834  -11263620.16449  -8491320.03146  23335948.6894   23335955.1664
       223.0004        163.0004
 03 12 17 19 12  0.0000000  0  7G29G28G27G 7G 8G26G11
  21926322.7044  -17395976.61049 -13544333.34047  21926322.3934   21926328.0554
       235.0004        190.0004
  20842137.5224   -6670946.17149  -5190867.47647  20842137.1494   20842140.9444
       245.0004        209.0004
  22097477.8284    6738994.52949   5251237.10946  22097478.1044   22097484.3254
       229.0004        182.0004
  20717797.9804  -21872450.11349 -17029665.95348  20717797.0884   20717802.8474
       246.0004        214.0004
  20336166.2464   -4356005.06449  -3385885.48647  20336165.5464   20336170.6984
       246.0004        212.0004
  22297410.2964  -14175835.59449 -11025008.57946  22297410.1744   22297416.0664
       230.0004        178.0004
  23337139.0344  -11257365.70749  -8486446.43746  23337139.7944   23337144.8324
       223.0004        163.0004
 03 12 17 19 12 30.0000000  0  7G29G28G27G 7G 8G26G11
  21925156.0504  -17402107.41249 -13549110.60347  21925155.5414   21925161.0814
       235.0004        190.0004
  20843418.0894   -6664216.72749  -5185623.76247  20843417.6524   20843421.4274
       244.0004        209.0004
  22111741.4254    6813949.70549   5309643.67146  22111741.3304   22111747.9854
       229.0004        181.0004
  20709381.5634  -21916678.50549 -17064129.61448  20709380.5944   20709386.4484
       247.0004        214.0004
  20342749.5354   -4321409.68449  -3358928.06647  20342748.6884   20342754.2014
       246.0004        212.0004
  22292383.5674  -14202251.25349 -11045592.20446  22292383.5244   22292389.4784
       230.0004        178.0004
  23338426.0484  -11250602.94849  -8481176.77446  23338424.6754   23338430.9484
       224.0004        163.0004
 03 12 17 19 13  0.0000000  0  7G29G28G27G 7G 8G26G11
  21924097.1424  -17407671.75549 -13553446.47147  21924096.5544   21924102.6514
       235.0004        190.0004
  20844732.1104   -6657311.61449  -5180243.16247  20844731.5834   20844735.4064
       244.0004        209.0004
  22126069.4754    6889243.58049   5368314.15146  22126069.6414   22126074.8674
       229.0004        181.0004
  20701049.7494  -21960462.14349 -17098246.71148  20701048.8524   20701054.5464
       247.0004        214.0004
  20349418.0784   -4286366.14549  -3331621.42547  20349417.3024   20349422.6434
       245.0004        212.0004
  22287465.7614  -14228094.45049 -11065729.74846  22287465.7294   22287471.5854
       230.0004        178.0004
  23339809.8234  -11243331.28349  -8475510.55346  23339808.2174   23339815.3484
       223.0004        163.0004
 03 12 17 19 13 30.0000000  0  7G29G28G27G 7G 8G26G11
  21923146.0784  -17412669.90349 -13557341.15347  21923145.8524   21923151.4564
       236.0004        190.0004
  20846079.4304   -6650231.43049  -5174726.14547  20846078.6404   20846082.5984
       245.0004        209.0004
  22140461.7624    6964874.98349   5427247.64246  22140461.2084   22140467.4844
       230.0004        180.0004
  20692802.6414  -22003800.77849 -17132017.05848  20692801.7714   20692807.3764
       247.0004        214.0004
  20356171.8914   -4250874.58349  -3303965.68447  20356171.1764   20356176.5284
       246.0004        212.0004
  22282657.0104  -14253364.82249 -11085420.94346  22282657.3574   22282662.1554
       230.0004        179.0004
  23341290.5014  -11235550.23049  -8469447.41746  23341290.2414   23341295.8264
       224.0004        163.0004
 03 12 17 19 14  0.0000000  0  7G29G28G27G 7G 8G26G11
  21922302.8454  -17417101.61549 -13560794.45547  21922302.4464   21922307.7084
       236.0004        190.0004
  20847459.9984   -6642976.43949  -5169072.91847  20847459.5144   20847463.2894
       245.0004        209.0004
  22154918.2274    7040843.39849   5486443.74046  22154918.2494   22154924.3794
       229.0004        179.0004
  20684640.3864  -22046693.65949 -17165440.06248  20684639.4124   20684645.2674
       247.0004        214.0004
  20363011.0524   -4214934.50749  -3275960.45047  20363010.3114   20363015.7304
       245.0004        212.0004
  22277957.4174  -14278061.41049 -11104665.02946  22277957.2714   22277963.8274
       230.0004        179.0004
  23342868.3184  -11227259.03549  -8462986.75445  23342867.8394   23342873.5774
       223.0004        162.0004
 03 12 17 19 14 30.0000000  0  7G29G28G27G 7G 8G26G11
  21921567.3614  -17420966.76549 -13563806.26947  21921567.2954   21921572.4134
       236.0004        190.0004
  20848873.8704   -6635546.53049  -5163283.38947  20848873.1854   20848877.1534
       245.0004        209.0004
  22169438.6184    7117148.41749   5545902.13346  22169438.1874   22169445.0864
       228.0004        177.0004
  20676563.1424  -22089139.71849 -17198514.89648  20676562.1944   20676568.0234
       248.0004        215.0004
  20369935.7294   -4178545.26549  -3247605.21647  20369935.0074   20369940.2844
       246.0004        212.0004
  22273367.1874  -14302183.15749 -11123461.18246  22273367.2394   22273372.8804
       232.0004        179.0004
  23344543.2234  -11218456.92049  -8456127.95845  23344543.3494   23344547.9364
       223.0004        162.0004
 03 12 17 19 15  0.0000000  0  7G29G28G27G 7G 8G26G11
  21920939.6024  -17424266.01349 -13566377.13047  21920939.4694   21920944.6414
       236.0004        191.0004
  20850320.8064   -6627942.92549  -5157358.51147  20850320.2844   20850324.1424
       245.0004        209.0004
  22184022.7264    7193788.35949   5605621.51046  22184022.4914   22184028.5334
       227.0004        176.0004
  20668570.8904  -22131139.31249 -17231241.83548  20668570.0274   20668575.5974
       247.0004        215.0004
  20376945.7284   -4141707.37249  -3218900.38547  20376944.9354   20376950.2784
       245.0004        211.0004
  22268886.3974  -14325730.03449 -11141809.37846  22268886.4514   22268891.9234
       231.0004        179.0004
  23346315.4034  -11209144.11649  -8448871.21145  23346314.9424   23346320.5584
       222.0004        162.0004
 03 12 17 19 15 30.0000000  0  7G29G28G27G 7G 8G26G11
  21920419.6254  -17426998.68649 -13568506.49347  21920419.6894   21920424.3884
       236.0004        191.0004
  20851800.8184   -6620165.34749  -5151298.07047  20851800.4194   20851804.2784
       245.0004        209.0004
  22198670.5034    7270763.14149   5665601.78946  22198670.1704   22198677.2394
       227.0004        176.0004
  20660663.8514  -22172691.07349 -17263619.81148  20660663.0014   20660668.7774
       248.0004        215.0004
  20384041.3604   -4104419.82349  -3189845.16947  20384040.5424   20384046.0014
       245.0004        211.0004
  22264515.2274  -14348700.76649 -11159708.64246  22264515.2974   22264520.2584
       232.0004        179.0004
  23348184.9444  -11199319.73949  -8441215.81745  23348184.5684   23348189.4544
       223.0004        162.0004
 03 12 17 19 16  0.0000000  0  7G29G28G27G 7G 8G26G11
  21920007.1674  -17429166.10149 -13570195.40047  21920006.9354   21920012.1874
       236.0004        191.0004
  20853313.7454   -6612214.80649  -5145102.85847  20853313.2624   20853317.1844
       244.0004        209.0004
  22213381.6484    7348070.92949   5725841.53946  22213381.3764   22213387.5714
       228.0004        176.0004
  20652841.9114  -22213795.66349 -17295649.35148  20652841.1464   20652846.8004
       247.0004        215.0004
  20391222.3274   -4066683.77849  -3160440.48347  20391221.8614   20391226.9924
       245.0004        212.0004
  22260253.6484  -14371095.49649 -11177159.07946  22260254.0174   22260259.4134
       231.0004        179.0004
  23350151.7834  -11188984.36549  -8433162.24245  23350150.9074   23350157.0634
       224.0004        162.0004
 03 12 17 19 16 30.0000000  0  7G29G28G27G 7G 8G26G11
  21919702.2964  -17430768.17949 -13571443.77747  21919701.9864   21919706.9724
       236.0004        190.0004
  20854859.5864   -6604091.52349  -5138773.03147  20854858.9624   20854863.0584
       244.0004        209.0004
  22228156.1454    7425711.16949   5786340.36046  22228155.5084   22228162.2774
       227.0004        177.0004
  20645105.2534  -22254452.29349 -17327329.82348  20645104.4024   20645110.0704
       247.0004        215.0004
  20398488.7924   -4028498.49649  -3130685.73647  20398487.9914   20398493.2504
       245.0004        211.0004
  22256101.8474  -14392913.55749 -11194160.15346  22256101.4124   22256107.5704
       232.0004        179.0004
  23352215.9664  -11178137.38049  -8424710.00245  23352215.9074   23352220.5994
       223.0004        162.0004
 03 12 17 19 17  0.0000000  0  7G29G28G27G 7G 8G26G11
  21919505.0934  -17431804.60349 -13572251.38847  21919504.7234   21919509.6234
       236.0004        190.0004
  20856438.2794   -6595795.48749  -5132308.60147  20856437.5794   20856441.5554
       244.0004        209.0004
  22242993.7614    7503683.34449   5847097.81446  22242993.4364   22243000.3234
       227.0004        177.0004
  20637453.9654  -22294659.99349 -17358660.48348  20637453.1584   20637458.8734
       248.0004        216.0004
  20405840.7234   -3989863.63649  -3100580.67047  20405839.9814   20405845.2684
       245.0004        211.0004
  22252059.9094  -14414153.88649 -11210711.05946  22252060.3294   22252065.7644
       232.0004        179.0004
  23354377.6284  -11166777.76149  -8415858.29645  23354376.8114   23354382.9214
       223.0004        161.0004
 03 12 17 19 17 30.0000000  0  7G29G28G27G 7G 8G26G11
  21919415.4174  -17432276.09649 -13572618.78747  21919415.2654   21919420.2224
       236.0004        190.0004
  20858049.6884   -6587327.57749  -5125710.23747  20858048.9634   20858053.0054
       244.0004        209.0004
  22257894.2594    7581986.01149   5908112.79746  22257893.9314   22257901.0524
       227.0004        176.0004
  20629888.1114  -22334419.00649 -17389641.51748  20629887.3564   20629892.7154
       248.0004        216.0004
  20413278.1654   -3950779.47149  -3070125.49547  20413277.4724   20413282.7354
       245.0004        211.0004
  22248128.0054  -14434816.53449 -11226811.82146  22248127.9814   22248133.3214
       233.0004        179.0004
  23356636.6434  -11154905.96649  -8406607.47345  23356636.5574   23356642.2464
       221.0004        162.0004
 03 12 17 19 18  0.0000000  0  7G29G28G27G 7G 8G26G11
  21919433.1664  -17432182.72649 -13572546.03047  21919432.6534   21919438.0204
       234.0004        190.0004
  20859693.7724   -6578687.79649  -5118977.94847  20859693.0554   20859697.2024
       244.0004        209.0004
  22272857.6254    7660618.73649   5969384.97446  22272857.1124   22272863.9564
       226.0004        175.0004
  20622407.7594  -22373728.47149 -17420272.25148  20622406.9954   20622412.4184
       248.0004        216.0004
  20420801.2664   -3911245.49449  -3039319.81847  20420800.6444   20420805.9074
       245.0004        211.0004
  22244306.1444  -14454900.54149 -11242461.69546  22244305.9874   22244311.4534
       231.0004        179.0004
  23358993.1654  -11142521.29849  -8396957.03045  23358992.5964   23358997.8164
       221.0004        162.0004
 03 12 17 19 18 30.0000000  0  7G29G28G27G 7G 8G26G11
  21919558.2114  -17431525.30049 -13572033.76547  21919558.0864   21919563.4024
       236.0004        191.0004
  20861370.4034   -6569877.09249  -5112112.47947  20861369.8544   20861373.7684
       244.0004        209.0004
  22287883.4314    7739579.66049   6030912.87046  22287882.4704   22287890.1364
       228.0004        176.0004
  20615012.8844  -22412588.77649 -17450552.99348  20615011.8644   20615017.4424
       248.0004        216.0004
  20428409.8684   -3871262.40949  -3008164.18847  20428409.3174   20428414.5904
       245.0004        211.0004
  22240594.3794  -14474406.22849 -11257660.94546  22240593.7174   22240599.6034
       230.0004        179.0004
  23361447.3034  -11129624.71849  -8386907.67045  23361446.6374   23361452.7274
       223.0004        162.0004
 03 12 17 19 19  0.0000000  0  7G29G28G27G 7G 8G26G11
  21919790.8964  -17430303.16449 -13571081.45547  21919791.0844   21919796.0724
       236.0004        191.0004
  20863079.6534   -6560895.01849  -5105113.47247  20863079.2414   20863083.0464
       245.0004        209.0004
  22302971.6824    7818868.97749   6092696.66246  22302971.5044   22302979.7774
       229.0004        176.0004
  20607703.7314  -22450998.50349 -17480482.63448  20607702.7744   20607708.4234
       248.0004        216.0004
  20436104.0664   -3830829.02249  -2976657.67047  20436103.4304   20436108.7004
       245.0004        211.0004
  22236992.8174  -14493332.13549 -11272408.41446  22236993.6604   22236998.5524
       230.0004        180.0004
  23363999.1764  -11116214.39749  -8376458.01745  23363998.7104   23364005.5644
       223.0004        162.0004
 03 12 17 19 19 30.0000000  0  7G29G28G27G 7G 8G26G11
  21920130.4704  -17428518.75549 -13569691.02447  21920130.2704   21920135.2454
       235.0004        191.0004
  20864821.1094   -6551743.82049  -5097982.68747  20864820.4654   20864824.3454
       244.0004        209.0004
  22318121.9924    7898483.65449   6154733.98346  22318122.0564   22318128.4294
       228.0004        176.0004
  20600480.0524  -22488959.24549 -17510062.41648  20600479.3054   20600484.7054
       247.0004        216.0004
  20443883.5894   -3789947.31649  -2944801.81247  20443882.8044   20443888.1544
       245.0004        211.0004
  22233501.4634  -14511679.65749 -11286705.18646  22233501.4374   22233507.1334
       230.0004        180.0004
  23366648.4654  -11102292.27449  -8365609.56645  23366647.8264   23366653.9374
       222.0004        162.0004
 03 12 17 19 20  0.0000000  0  7G29G28G27G 7G 8G26G11
  21920577.2554  -17426170.84549 -13567861.49847  21920577.1104   21920582.1284
       236.0004        191.0004
  20866594.9464   -6542422.27049  -5090719.15947  20866594.3074   20866598.3504
       245.0004        209.0004
  22333334.3724    7978424.30449   6217025.31546  22333334.1544   22333341.6064
       228.0004        176.0004
  20593342.1174  -22526469.28149 -17539291.00548  20593341.3064   20593346.8304
       248.0004        216.0004
  20451748.7504   -3748615.72649  -2912595.39947  20451747.9794   20451753.3064
       245.0004        211.0004
  22230120.3994  -14529447.04649 -11300549.91146  22230120.4384   22230126.3064
       230.0004        180.0004
  23369395.4134  -11087856.86149  -8354361.13445  23369395.4844   23369401.2404
       221.0004        162.0004
 03 12 17 19 20 30.0000000  0  7G29G28G27G 7G 8G26G11
  21921131.3154  -17423259.43949 -13565592.88847  21921131.3674   21921136.0514
       235.0004        191.0004
  20868401.2354   -6532930.14849  -5083322.71947  20868400.6774   20868404.6604
       244.0004        209.0004
  22348608.5294    8058690.21049   6279570.07946  22348608.7904   22348615.0734
       228.0004        175.0004
  20586290.0924  -22563527.81449 -17568167.77248  20586289.1994   20586294.9244
       247.0004        216.0004
  20459699.5984   -3706833.91149  -2880038.16547  20459698.8354   20459704.0594
       245.0004        211.0004
  22226849.9864  -14546633.41949 -11313941.89646  22226849.7324   22226855.2334
       231.0004        180.0004
  23372240.0654  -11072907.52149  -8342712.25945  23372239.5854   23372244.9184
       222.0004        161.0004
 03 12 17 19 21  0.0000000  0  7G29G28G27G 7G 8G26G11
  21921792.1184  -17419786.82349 -13562886.96547  21921791.7494   21921797.0284
       235.0004        190.0004
  20870239.6044   -6523269.55849  -5075795.00647  20870238.9744   20870243.0804
       244.0004        209.0004
  22363944.1384    8139278.81049   6342366.31546  22363943.6544   22363950.9274
       227.0004        174.0004
  20579323.6894  -22600136.27649 -17596693.83248  20579322.8314   20579328.4814
       247.0004        216.0004
  20467735.7894   -3664603.57749  -2847131.43347  20467735.2824   20467740.4774
       245.0004        211.0004
  22223689.7434  -14563240.24849 -11326882.28846  22223689.6204   22223695.3214
       230.0004        179.0004
  23375182.2604  -11057445.93749  -8330664.22645  23375182.1384   23375185.7534
       221.0004        161.0004
 03 12 17 19 21 30.0000000  0  7G29G28G27G 7G 8G26G11
  21922559.8994  -17415752.06749 -13559743.02147  21922559.9984   21922564.9894
       235.0004        190.0004
  20872110.2034   -6513439.60949  -5068135.32447  20872109.6494   20872113.4864
       244.0004        209.0004
  22379341.1394    8220190.13549   6405413.99646  22379341.7144   22379347.8624
       227.0004        174.0004
  20572443.2044  -22636293.28449 -17624868.11148  20572442.3554   20572447.8854
       247.0004        216.0004
  20475857.5454   -3621923.63449  -2813874.35947  20475856.9594   20475862.0374
       245.0004        211.0004
  22220640.1514  -14579265.84949 -11339369.76146  22220639.9814   22220645.6684
       230.0004        179.0004
  23378222.1074  -11041470.72149  -8318215.96645  23378221.2844   23378227.6194
       220.0004        161.0004
 03 12 17 19 22  0.0000000  0  7G29G28G27G 7G 8G26G11
  21923434.5974  -17411155.55049 -13556161.33947  21923434.5524   21923439.3674
       235.0004        190.0004
  20874012.9744   -6503440.54649  -5060343.87147  20874012.5824   20874016.4224
       245.0004        209.0004
  22394799.5274    8301423.49749   6468712.62946  22394799.1034   22394805.5164
       227.0004        174.0004
  20565648.8024  -22671998.17649 -17652690.09248  20565648.0084   20565653.5034
       247.0004        216.0004
  20484064.9404   -3578793.70349  -2780266.65047  20484064.1974   20484069.4584
       245.0004        211.0004
  22217701.2234  -14594709.94049 -11351404.11546  22217701.5954   22217706.4304
       230.0004        179.0004
  23381359.9754  -11024981.23949  -8305367.00145  23381359.7814   23381365.8754
       221.0004        161.0004
 03 12 17 19 22 30.0000000  0  7G29G28G27G 7G 8G26G11
  21924415.9784  -17405998.41649 -13552142.81047  21924415.4434   21924420.9744
       235.0004        190.0004
  20875947.7594   -6493273.41349  -5052421.45947  20875947.0234   20875951.2384
       244.0004        209.0004
  22410318.7474    8382977.10249   6532260.80746  22410318.4894   22410325.5524
       226.0004        173.0004
  20558940.2474  -22707251.58749 -17680160.27248  20558939.5224   20558945.1114
       247.0004        216.0004
  20492357.7494   -3535214.68949  -2746309.01147  20492357.0864   20492362.3694
       245.0004        211.0004
  22214872.9014  -14609572.88549 -11362985.62646  22214873.4734   22214878.6984
       231.0004        180.0004
  23384595.4154  -11007978.75649  -8292118.30245  23384595.3814   23384600.9804
       221.0004        161.0004
 03 12 17 19 23  0.0000000  0  7G29G28G27G 7G 8G26G11
  21925504.0564  -17400280.55249 -13547687.35747  21925503.6304   21925509.4344
       235.0004        190.0004
  20877914.5654   -6482937.70249  -5044367.68947  20877913.9614   20877917.9264
       244.0004        209.0004
  22425898.7314    8464850.45049   6596058.11946  22425897.4744   22425905.8624
       225.0004        173.0004
  20552317.8064  -22742052.71649 -17707278.02648  20552316.9574   20552322.6854
       247.0004        216.0004
  20500736.1464   -3491186.15049  -2712001.08847  20500735.5664   20500740.8244
       245.0004        211.0004
  22212155.3614  -14623853.77049 -11374113.59446  22212154.4754   22212161.3074
       231.0004        180.0004
  23387928.5944  -10990462.47349  -8278469.23645  23387928.1444   23387934.2794
       221.0004        161.0004
 03 12 17 19 23 30.0000000  0  7G29G28G27G 7G 8G26G11
  21926698.5794  -17394003.35649 -13542796.05447  21926698.4534   21926703.7374
       235.0004        190.0004
  20879913.2634   -6472434.54649  -5036183.44247  20879912.5874   20879916.7074
       245.0004        209.0004
  22441539.2544    8547041.79149   6660103.22346  22441538.3064   22441546.5394
       226.0004        172.0004
  20545781.3414  -22776402.05049 -17734043.72848  20545780.4924   20545785.9824
       247.0004        216.0004
  20509199.9264   -3446708.75749  -2677343.40847  20509199.2174   20509204.6174
       245.0004        211.0004
  22209548.4784  -14637553.21249 -11384788.47846  22209548.0504   22209554.0674
       231.0004        180.0004
  23391359.5754  -10972432.92249  -8264420.24645  23391359.3594   23391365.8984
       219.0004        161.0004
 03 12 17 19 24  0.0000000  0  7G29G28G27G 7G 8G26G11
  21927999.4484  -17387167.10249 -13537469.12647  21927999.1924   21928004.3054
       235.0004        190.0004
  20881943.7994   -6461764.11149  -5027868.85247  20881943.3514   20881947.1454
       245.0004        209.0004
  22457240.1254    8629550.13149   6724395.33146  22457239.3674   22457247.2784
       225.0004        172.0004
  20539330.9124  -22810299.15849 -17760457.05048  20539330.1584   20539335.6694
       248.0004        216.0004
  20517749.1724   -3401782.35649  -2642335.85247  20517748.4584   20517753.6894
       245.0004        210.0004
  22207052.3614  -14650670.69049 -11395009.89146  22207051.3784   22207058.2314
       231.0004        181.0004
  23394888.1514  -10953889.96049  -8249971.18445  23394887.5864   23394893.5074
       220.0004        161.0004
 03 12 17 19 24 30.0000000  0  7G29G28G27G 7G 8G26G11
  21929406.6154  -17379772.35349 -13531707.01147  21929406.4484   21929412.0184
       236.0004        190.0004
  20884006.1614   -6450926.57649  -5019424.05247  20884005.5944   20884009.6714
       245.0004        209.0004
  22473001.1044    8712374.50349   6788933.71146  22473000.5954   22473007.7304
       225.0004        172.0004
  20532966.6474  -22843743.72049 -17786517.74148  20532965.8944   20532971.3894
       248.0004        216.0004
  20526383.8654   -3356406.89149  -2606978.38247  20526383.1114   20526388.7634
       245.0004        210.0004
  22204666.9624  -14663205.94849 -11404777.62546  22204667.1894   22204673.1264
       232.0004        181.0004
  23398514.4274  -10934833.53649  -8235122.02545  23398514.7454   23398519.1924
       221.0004        161.0004
 03 12 17 19 25  0.0000000  0  7G29G28G27G 7G 8G26G11
  21930920.0404  -17371819.68749 -13525510.15047  21930919.9804   21930925.3524
       236.0004        190.0004
  20886100.3244   -6439922.01449  -5010849.09747  20886099.6744   20886103.8504
       244.0004        209.0004
  22488822.1514    8795513.93249   6853717.57746  22488821.8734   22488829.8824
       225.0004        172.0004
  20526688.5454  -22876735.62649 -17812225.70848  20526687.6404   20526693.2624
       247.0004        217.0004
  20535104.0084   -3310582.55649  -2571271.14147  20535103.2944   20535108.6204
       245.0004        210.0004
  22202392.3914  -14675158.78349 -11414091.52346  22202391.7044   22202398.3314
       232.0004        181.0004
  23402238.4544  -10915263.63249  -8219872.75545  23402237.8984   23402244.3554
       220.0004        160.0004
 03 12 17 19 25 30.0000000  0  7G29G28G27G 7G 8G26G11
  21932539.4194  -17363309.95549 -13518879.21447  21932539.2794   21932544.2494
       236.0004        190.0004
  20888226.1044   -6428751.15549  -5002144.56147  20888225.6824   20888229.4684
       245.0004        209.0004
  22504702.7554    8878966.91149   6918745.75646  22504702.6594   22504709.1724
       224.0004        170.0004
  20520496.5094  -22909275.03649 -17837581.08548  20520495.5474   20520501.2034
       248.0004        217.0004
  20543909.4704   -3264309.77049  -2535214.45847  20543908.7384   20543914.0484
       244.0004        210.0004
  22200228.6484  -14686529.45049 -11422951.78146  22200228.5524   22200233.9374
       232.0004        181.0004
  23406060.1584  -10895180.72649  -8204223.76845  23406059.1424   23406066.9274
       220.0004        161.0004
 03 12 17 19 26  0.0000000  0  7G29G28G27G 7G 8G26G11
  21934264.6294  -17354243.91849 -13511814.79047  21934264.1654   21934269.7814
       236.0004        190.0004
  20890383.4714   -6417414.18749  -4993310.58047  20890382.8994   20890387.0624
       245.0004        209.0004
  22520642.8794    8962732.50449   6984017.54846  22520643.5534   22520649.5634
       225.0004        170.0004
  20514390.6524  -22941361.63949 -17862583.62448  20514389.9134   20514395.2474
       247.0004        217.0004
  20552800.2064   -3217588.65349  -2498808.42547  20552799.5934   20552804.8924
       245.0004        210.0004
  22198175.7344  -14697317.74749 -11431358.24646  22198175.1834   22198180.8884
       232.0004        181.0004
  23409979.4584  -10874585.02849  -8188175.18745  23409979.1994   23409984.2344
       219.0004        160.0004
 03 12 17 19 26 30.0000000  0  7G29G28G27G 7G 8G26G11
  21936095.6764  -17344621.92449 -13504317.15947  21936095.0874   21936100.6564
       236.0004        190.0004
  20892572.4804   -6405911.14749  -4984347.19847  20892572.0734   20892576.0864
       245.0004        209.0004
  22536642.3544    9046809.51749   7049532.00646  22536641.3184   22536648.9134
       225.0004        170.0004
  20508370.9664  -22972995.41249 -17887233.31048  20508370.2614   20508375.5974
       248.0004        217.0004
  20561776.2704   -3170419.18249  -2462053.03047  20561775.3794   20561780.9344
       244.0004        210.0004
  22196233.6584  -14707523.43849 -11439310.74246  22196233.6674   22196238.4434
       232.0004        181.0004
  23413996.4054  -10853476.16149  -8171726.74945  23413995.2784   23414002.5054
       220.0004        160.0004
 03 12 17 19 27  0.0000000  0  7G29G28G27G 7G 8G26G11
  21938032.3014  -17334445.04649 -13496387.14947  21938032.1364   21938037.7164
       236.0004        190.0004
  20894792.9884   -6394242.35849  -4975254.65147  20894792.4264   20894796.4804
       245.0004        209.0004
  22552700.7594    9131196.77349   7115288.20146  22552700.2114   22552707.5164
       224.0004        169.0004
  20502437.4884  -23004176.21649 -17911530.03348  20502436.6184   20502442.2764
       248.0004        217.0004
  20570837.5774   -3122801.76849  -2424948.58547  20570836.7864   20570842.3714
       245.0004        210.0004
  22194402.4344  -14717146.71249 -11446809.40346  22194402.6254   22194408.2144
       231.0004        182.0004
  23418110.7164  -10831854.66349  -8154878.87045  23418109.4504   23418117.3664
       220.0004        160.0004
 03 12 17 19 27 30.0000000  0  7G29G28G27G 7G 8G26G11
  21940074.3374  -17323713.99049 -13488025.31847  21940074.5924   21940079.7194
       237.0004        190.0004
  20897044.9974   -6382408.25349  -4966033.29047  20897044.5274   20897048.4294
       245.0004        209.0004
  22568818.0734    9215893.14749   7181285.25446  22568817.6234   22568824.7674
       223.0004        168.0004
  20496590.1554  -23034903.98949 -17935473.74548  20496589.3164   20496594.7424
       248.0004        217.0004
  20579984.1194   -3074736.57949  -2387495.22647  20579983.3944   20579988.7574
       245.0004        210.0004
  22192682.0844  -14726187.52749 -11453854.20646  22192682.3264   22192687.4654
       231.0004        181.0004
  23422322.6594  -10809720.61049  -8137631.60745  23422323.2134   23422328.3974
       220.0004        160.0004
 03 12 17 19 28  0.0000000  0  7G29G28G27G 7G 8G26G11
  21942221.6904  -17312429.81749 -13479232.48147  21942221.2864   21942226.5664
       237.0004        190.0004
  20899328.3034   -6370409.48249  -4956683.61247  20899327.6574   20899331.7064
       245.0004        209.0004
  22584993.9504    9300897.08749   7247521.97546  22584992.9254   22585001.0504
       222.0004        167.0004
  20490829.0034  -23065179.20049 -17959064.80848  20490828.0854   20490833.5934
       248.0004        217.0004
  20589215.7294   -3026224.37349  -2349693.54247  20589215.0534   20589220.5104
       244.0004        209.0004
  22191072.4134  -14734646.17649 -11460445.37446  22191072.0214   22191078.3674
       231.0004        181.0004
  23426632.0514  -10787074.36549  -8119985.21745  23426631.3514   23426637.9894
       219.0004        160.0004
 03 12 17 19 28 30.0000000  0  7G29G28G27G 7G 8G26G11
  21944474.2284  -17300592.96349 -13470008.98947  21944473.9574   21944479.4734
       237.0004        190.0004
  20901642.9884   -6358245.84949  -4947205.47447  20901642.3244   20901646.4714
       246.0004        209.0004
  22601228.0574    9386207.71749   7313997.67346  22601227.0764   22601235.3724
       224.0004        168.0004
  20485154.0514  -23095001.21549 -17982302.73748  20485153.0744   20485158.5514
       248.0004        217.0004
  20598532.4874   -2977264.60149  -2311543.11347  20598531.7634   20598537.0564
       245.0004        209.0004
  22189573.5664  -14742522.32949 -11466582.65646  22189573.3884   22189579.1224
       232.0004        181.0004
  23431038.9904  -10763916.04849  -8101939.84045  23431037.5504   23431044.1114
       220.0004        159.0004
 03 12 17 19 29  0.0000000  0  7G29G28G27G 7G 8G26G11
  21946831.6814  -17288204.49949 -13460355.67047  21946831.3154   21946836.5474
       236.0004        190.0004
  20903989.0054   -6345917.65349  -4937599.09647  20903988.5304   20903992.6164
       246.0004        209.0004
  22617520.4404    9471823.68149   7380711.29946  22617519.8674   22617527.3264
       225.0004        170.0004
  20479565.2644  -23124370.41849 -18005187.82148  20479564.2834   20479569.9184
       248.0004        217.0004
  20607934.3144   -2927857.94249  -2273044.45247  20607933.4954   20607939.0054
       245.0004        209.0004
  22188185.5904  -14749816.30149 -11472266.28746  22188185.6194   22188191.0604
       232.0004        181.0004
  23435543.2854  -10740246.10749  -8083495.78845  23435543.4914   23435549.3054
       219.0004        159.0004
 03 12 17 19 29 30.0000000  0  7G29G28G27G 7G 8G26G11
  21949293.8824  -17275265.56749 -13450273.41647  21949293.5104   21949299.0354
       235.0004        190.0004
  20906366.2194   -6333425.42949  -4927864.90247  20906365.5244   20906369.7614
       245.0004        209.0004
  22633870.5464    9557743.38649   7447661.58146  22633870.2184   22633877.4314
       224.0004        170.0004
  20474062.5624  -23153286.96049 -18027720.18848  20474061.5624   20474067.2774
       248.0004        217.0004
  20617421.0154   -2878004.97649  -2234198.02447  20617420.0974   20617425.6394
       245.0004        209.0004
  22186908.2924  -14756528.48549 -11477496.57746  22186908.1434   22186914.6344
       230.0004        181.0004
  23440144.9174  -10716065.10649  -8064653.51645  23440144.0164   23440151.1424
       219.0004        159.0004
 03 12 17 19 30  0.0000000  0  7G29G28G27G 7G 8G26G11
  21951860.7824  -17261776.58849 -13439762.55247  21951860.3334   21951865.5084
       235.0004        189.0004
  20908774.6724   -6320768.99249  -4918002.74447  20908773.9974   20908778.1534
       245.0004        209.0004
  22650278.2384    9643966.09949   7514847.99146  22650277.4094   22650285.7824
       222.0004        169.0004
  20468646.1114  -23181750.52549 -18049899.58048  20468645.1824   20468650.9094
       248.0004        217.0004
  20626992.7304   -2827705.45549  -2195003.62547  20626992.0214   20626997.3124
       244.0004        209.0004
  22185741.7504  -14762658.55449 -11482273.25946  22185740.8414   22185747.3144
       231.0004        181.0004
  23444843.6564  -10691372.74949  -8045412.79245  23444843.2034   23444849.5614
       217.0004        158.0004
 03 12 17 19 30 30.0000000  0  7G29G28G27G 7G 8G26G11
  21954532.2484  -17247738.08249 -13428823.49547  21954531.9344   21954537.4654
       235.0004        189.0004
  20911214.3684   -6307948.35049  -4908012.63647  20911213.6484   20911217.8994
       245.0004        209.0004
  22666743.4344    9730490.84049   7582269.75146  22666743.6904   22666750.6554
       224.0004        169.0004
  20463315.9194  -23209760.70149 -18071725.69048  20463314.9324   20463320.7114
       248.0004        217.0004
  20636649.3554   -2776959.54149  -2155461.39047  20636648.6654   20636654.3124
       244.0004        209.0004
  22184686.0314  -14768206.23549 -11486596.15446  22184686.0214   22184691.4594
       231.0004        181.0004
  23449639.7554  -10666168.85149  -8025773.45945  23449639.5524   23449646.5144
       219.0004        158.0004
 03 12 17 19 31  0.0000000  0  7G29G28G27G 7G 8G26G11
  21957307.9234  -17233151.95849 -13417457.72147  21957307.5024   21957313.5584
       235.0004        189.0004
  20913685.0854   -6294964.69649  -4897895.50547  20913684.4784   20913688.4044
       245.0004        209.0004
  22683265.7964    9817315.51849   7649925.21746  22683265.1324   22683272.7944
       223.0004        170.0004
  20458071.8594  -23237318.50749 -18093199.29948  20458070.7224   20458076.6014
       247.0004        217.0004
  20646390.7544   -2725768.35049  -2115572.18747  20646390.2114   20646395.6214
       244.0004        208.0004
  22183741.0624  -14773172.74049 -11490466.18546  22183740.8664   22183746.8544
       231.0004        181.0004
  23454532.9714  -10640455.04249  -8005736.79045  23454532.4954   23454538.4984
       218.0004        157.0004
 03 12 17 19 31 30.0000000  0  7G29G28G27G 7G 8G26G11
  21960187.7134  -17218018.52249 -13405665.46747  21960187.4594   21960192.9824
       235.0004        189.0004
  20916186.9304   -6281817.51749  -4887650.94947  20916186.2464   20916190.3494
       245.0004        209.0004
  22699844.9734    9904439.46849   7717813.87146  22699845.3944   22699853.0944
       223.0004        170.0004
  20452913.9324  -23264423.42849 -18114320.01448  20452912.9434   20452918.6344
       247.0004        217.0004
  20656216.9914   -2674131.57849  -2075335.77147  20656216.0894   20656221.6834
       244.0004        208.0004
  22182906.6354  -14777557.56649 -11493882.94946  22182905.9444   22182912.4084
       232.0004        181.0004
  23459523.3144  -10614230.73449  -7985302.31745  23459522.4214   23459528.8574
       218.0004        156.0004
 03 12 17 19 32  0.0000000  0  7G29G28G27G 7G 8G26G11
  21963171.4784  -17202338.99849 -13393447.69747  21963171.3234   21963176.5594
       236.0004        189.0004
  20918719.8124   -6268507.31649  -4877279.36347  20918719.2524   20918723.1984
       246.0004        209.0004
  22716480.8274    9991861.20949   7785934.56546  22716480.7884   22716487.6584
       221.0004        168.0004
  20447842.1624  -23291075.69249 -18135088.00848  20447841.2044   20447846.9174
       248.0004        217.0004
  20666127.8024   -2622049.90249  -2034752.68647  20666127.1384   20666132.4484
       244.0004        208.0004
  22182182.8614  -14781361.12549 -11496846.78746  22182183.1744   22182188.6574
       231.0004        181.0004
  23464610.6704  -10587496.75549  -7964470.69345  23464610.4384   23464615.4224
       217.0004        155.0004
 03 12 17 19 32 30.0000000  0  7G29G28G27G 7G 8G26G11
  21966259.0684  -17186114.18949 -13380805.02347  21966258.8854   21966264.3074
       235.0004        190.0004
  20921283.7694   -6255033.77849  -4866780.50147  20921283.0174   20921287.1564
       245.0004        209.0004
  22733173.1304   10079579.56249   7854286.38846  22733172.8424   22733180.5094
       222.0004        167.0004
  20442856.5314  -23317275.29149 -18155503.27648  20442855.5664   20442861.3164
       247.0004        217.0004
  20676123.2934   -2569523.53049  -1993823.08047  20676122.4884   20676128.2814
       244.0004        208.0004
  22181569.6674  -14784583.66949 -11499357.88246  22181569.5594   22181575.2934
       230.0004        181.0004
  23469794.9894  -10560253.14149  -7943241.95345  23469794.6894   23469800.5874
       219.0004        155.0004
 03 12 17 19 33  0.0000000  0  7G29G28G27G 7G 8G26G11
  21969450.0614  -17169345.49749 -13367738.55347  21969449.6664   21969455.3274
       236.0004        190.0004
  20923878.6074   -6241397.75949  -4856155.03147  20923877.7814   20923881.9134
       245.0004        209.0004
  22749921.6424   10167592.99349   7922868.15146  22749921.3774   22749929.1914
       221.0004        166.0004
  20437956.9554  -23343022.75749 -18175566.23948  20437956.0274   20437961.6734
       247.0004        217.0004
  20686203.2434   -2516553.17349  -1952547.51047  20686202.5304   20686207.9084
       244.0004        208.0004
  22181066.9584  -14787225.61149 -11501416.56046  22181066.9274   22181072.3584
       232.0004        181.0004
  23475076.2154  -10532500.60349  -7921616.63345  23475075.6534   23475081.8574
       220.0004        154.0004
 03 12 17 19 33 30.0000000  0  7G29G28G27G 7G 8G26G11
  21972744.2784  -17152034.48949 -13354249.50047  21972743.8464   21972749.2264
       235.0004        190.0004
  20926504.2064   -6227600.11649  -4845403.62647  20926503.5434   20926507.5144
       246.0004        209.0004
  22766725.8224   10255899.51649   7991678.28746  22766725.9444   22766733.6584
       220.0004        165.0004
  20433143.2914  -23368318.82749 -18195277.45948  20433142.3504   20433147.8824
       248.0004        217.0004
  20696367.5354   -2463139.66849  -1910926.62947  20696366.8434   20696372.2694
       244.0004        208.0004
  22180674.4754  -14789288.03749 -11503023.67046  22180674.0194   22180680.7074
       231.0004        181.0004
  23480454.1704  -10504240.33249  -7899595.68245  23480453.0314   23480459.7254
       219.0004        155.0004
 03 12 17 19 34  0.0000000  0  7G29G28G27G 7G 8G26G11
  21976141.6394  -17134181.26449 -13340337.93247  21976141.2444   21976146.2864
       235.0004        189.0004
  20929160.7854   -6213639.79549  -4834525.45447  20929160.1544   20929164.1944
       245.0004        209.0004
  22783585.8294   10344498.90549   8060716.63946  22783585.7924   22783592.9654
       222.0004        164.0004
  20428415.6624  -23393162.50249 -18214636.16548  20428414.8334   20428420.4084
       247.0004        217.0004
  20706616.2074   -2409282.57249  -1868960.09947  20706615.4884   20706620.8854
       245.0004        208.0004
  22180392.3714  -14790770.16549 -11504178.60146  22180392.2444   22180397.8584
       231.0004        181.0004
  23485928.6934  -10475471.63949  -7877178.51345  23485926.9714   23485934.8044
       219.0004        154.0004
 03 12 17 19 34 30.0000000  0  7G29G28G27G 7G 8G26G11
  21979642.0074  -17115786.87549 -13326004.68347  21979641.9214   21979646.8344
       236.0004        189.0004
  20931848.2324   -6199517.19549  -4823520.83547  20931847.3744   20931851.6424
       246.0004        209.0004
  22800501.3404   10433389.62549   8129982.01146  22800500.8024   22800507.6934
       222.0004        164.0004
  20423774.1044  -23417554.03249 -18233642.55048  20423773.3264   20423778.7314
       248.0004        217.0004
  20716949.2504   -2354982.27549  -1826648.21947  20716948.4954   20716953.9974
       245.0004        208.0004
  22180220.7124  -14791672.32149 -11504881.60346  22180220.8234   22180226.0734
       230.0004        181.0004
  23491499.7864  -10446195.21049  -7854365.71745  23491499.3634   23491505.4054
       220.0004        154.0004
 03 12 17 19 35  0.0000000  0  7G29G28G27G 7G 8G26G11
  21983245.1784  -17096852.42649 -13311250.60947  21983244.5864   21983250.2794
       235.0004        189.0004
  20934566.4974   -6185232.28549  -4812389.74347  20934565.8024   20934569.8044
       245.0004        209.0004
  22817472.0094   10522570.43749   8199473.42546  22817471.5134   22817479.1934
       222.0004        164.0004
  20419218.5624  -23441493.65449 -18252296.80548  20419217.6504   20419223.3484
       248.0004        217.0004
  20727366.5344   -2300239.17749  -1783991.29847  20727365.7134   20727371.1574
       244.0004        208.0004
  22180159.3564  -14791994.85949 -11505132.95946  22180159.8754   22180165.1034
       231.0004        181.0004
  23497167.3294  -10416411.59149  -7831157.69045  23497166.9104   23497173.2114
       217.0004        154.0004
 03 12 17 19 35 30.0000000  0  7G29G28G27G 7G 8G26G11
  21986950.6064  -17077379.92649 -13296077.27047  21986950.9814   21986955.5754
       235.0004        189.0004
  20937315.5304   -6170785.96749  -4801132.87347  20937315.0484   20937318.9624
       245.0004        208.0004
  22834497.4734   10612039.38849   8269189.36646  22834497.7764   22834505.1264
       223.0004        164.0004
  20414748.8684  -23464982.08849 -18270599.48448  20414748.0144   20414753.6204
       247.0004        217.0004
  20737867.7834   -2245054.62849  -1740990.38647  20737866.9334   20737872.6814
       244.0004        207.0004
  22180208.1694  -14791738.85649 -11504933.49646  22180208.1714   22180214.4254
       231.0004        181.0004
  23502931.2544  -10386121.88949  -7807555.28545  23502930.7504   23502937.2834
       220.0004        155.0004
 03 12 17 19 36  0.0000000  0  7G29G28G27G 7G 8G26G11
  21990758.3974  -17057370.00149 -13280485.15947  21990757.9554   21990763.6184
       235.0004        189.0004
  20940095.3184   -6156178.25449  -4789750.24847  20940094.5144   20940098.8344
       245.0004        208.0004
  22851577.5964   10701795.41249   8339128.99946  22851578.0624   22851585.6514
       222.0004        164.0004
  20410365.0164  -23488019.34049 -18288550.59048  20410364.1494   20410369.6564
       247.0004        217.0004
  20748453.1054   -2189428.47949  -1697645.37247  20748452.4254   20748457.9884
       244.0004        207.0004
  22180366.9304  -14790904.37049 -11504283.26746  22180367.1514   22180371.7864
       231.0004        181.0004
  23508791.6394  -10355326.23449  -7783558.64745  23508792.2924   23508796.9784
       221.0004        155.0004
 03 12 17 19 36 30.0000000  0  7G29G28G27G 7G 8G26G11
  21994668.3374  -17036823.65249 -13264475.05547  21994667.8184   21994673.4054
       235.0004        189.0004
  20942905.8194   -6141408.99549  -4778241.74447  20942905.1284   20942909.5544
       245.0004        208.0004
  22868712.0494   10791837.19949   8409291.30346  22868711.7104   22868719.2424
       223.0004        164.0004
  20406067.0284  -23510605.44649 -18306150.16148  20406066.1744   20406071.7504
       247.0004        217.0004
  20759122.3944   -2133361.25849  -1653956.67347  20759121.7994   20759127.0964
       244.0004        207.0004
  22180635.7594  -14789491.82649 -11503182.61446  22180635.7354   22180640.8684
       231.0004        182.0004
  23514748.1584  -10324025.06449  -7759168.11045  23514747.9694   23514753.2844
       219.0004        156.0004
 03 12 17 19 37  0.0000000  0  7G29G28G27G 7G 8G26G11
  21998679.8744  -17015743.04249 -13248048.64147  21998680.1214   21998685.3074
       235.0004        189.0004
  20945746.9354   -6126478.88349  -4766607.89547  20945746.0824   20945750.5854
       245.0004        208.0004
  22885900.5794   10882162.74749   8479674.70946  22885900.7914   22885908.2364
       223.0004        165.0004
  20401854.7264  -23532741.31649 -18323398.89348  20401853.7914   20401859.6424
       247.0004        217.0004
  20769875.4214   -2076854.02149  -1609925.09947  20769874.9654   20769880.6424
       244.0004        207.0004
  22181014.3774  -14787502.35849 -11501632.39946  22181014.5234   22181019.6864
       231.0004        181.0004
  23520800.6264  -10292219.59949  -7734384.59645  23520801.0784   23520806.4884
       222.0004        156.0004
 03 12 17 19 37 30.0000000  0  7G29G28G27G 7G 8G26G11
  22002792.9034  -16994128.96849 -13231206.54647  22002792.6744   22002798.1144
       235.0004        189.0004
  20948618.5704   -6111388.21249  -4754848.93847  20948617.8244   20948621.9994
       245.0004        208.0004
  22903142.8374   10972770.87749   8550278.30746  22903143.5644   22903151.1074
       221.0004        164.0004
  20397728.0684  -23554427.14249 -18340296.94148  20397727.3274   20397732.9004
       248.0004        217.0004
  20780712.1254   -2019907.32649  -1565551.08947  20780711.4434   20780717.0544
       245.0004        207.0004
  22181502.7504  -14784936.13649 -11499632.76746  22181502.5854   22181508.3204
       231.0004        181.0004
  23526948.8974  -10259910.48849  -7709208.60345  23526948.4724   23526953.7484
       221.0004        157.0004
 03 12 17 19 38  0.0000000  0  7G29G28G27G 7G 8G26G11
  22007007.3664  -16971982.01649 -13213949.22247  22007007.3364   22007012.9854
       235.0004        189.0004
  20951520.9544   -6096136.12449  -4742964.20647  20951520.2944   20951524.4724
       245.0004        208.0004
  22920438.7234   11063660.81149   8621101.50646  22920438.7404   22920445.7634
       221.0004        164.0004
  20393687.1344  -23575662.45149 -18356843.94448  20393686.3354   20393691.9504
       247.0004        217.0004
  20791632.4164   -1962520.98849  -1520834.50547  20791631.6234   20791637.2814
       244.0004        207.0004
  22182100.8054  -14781793.14349 -11497183.69746  22182100.3414   22182106.9354
       231.0004        181.0004
  23533192.9384  -10227097.31649  -7683639.85845  23533191.7104   23533198.5684
       221.0004        157.0004
 03 12 17 19 38 30.0000000  0  7G29G28G27G 7G 8G26G11
  22011322.9424  -16949303.81149 -13196277.93647  22011322.8184   22011328.0964
       236.0004        189.0004
  20954453.9814   -6080723.08849  -4730954.05347  20954453.2844   20954457.5304
       244.0004        208.0004
  22937787.9494   11154831.02649   8692143.09346  22937787.7904   22937795.3234
       220.0004        164.0004
  20389731.8554  -23596447.78749 -18373040.31548  20389731.0834   20389736.5894
       248.0004        218.0004
  20802636.2474   -1904695.60349  -1475775.80047  20802635.5054   20802641.0894
       244.0004        207.0004
  22182808.5064  -14778074.17149 -11494285.82146  22182808.5714   22182814.4204
       231.0004        181.0004
  23539532.7314  -10193781.09349  -7657679.13945  23539533.0404   23539537.8794
       221.0004        157.0004
 03 12 17 19 39  0.0000000  0  7G29G28G27G 7G 8G26G11
  22015739.3824  -16926095.54749 -13178193.62747  22015739.1214   22015744.8094
       235.0004        189.0004
  20957417.5574   -6065149.31049  -4718818.65547  20957416.9724   20957421.0684
       245.0004        208.0004
  22955190.1434   11246279.92149   8763401.82046  22955189.7534   22955197.8054
       218.0004        164.0004
  20385862.1464  -23616783.45649 -18388886.30148  20385861.4224   20385866.8004
       248.0004        218.0004
  20813723.4554   -1846432.01449  -1430375.63447  20813722.7604   20813728.3104
       244.0004        206.0004
  22183625.7164  -14773779.82749 -11490939.59746  22183625.2664   22183631.6384
       230.0004        181.0004
  23545968.1064  -10159962.77549  -7631327.15845  23545967.8464   23545972.9574
       221.0004        156.0004
 03 12 17 19 39 30.0000000  0  7G29G28G27G 7G 8G26G11
  22020256.1874  -16902359.56249 -13159698.08747  22020255.7344   22020261.1874
       235.0004        189.0004
  20960411.5724   -6049415.75949  -4706558.75647  20960410.8794   20960415.1484
       245.0004        208.0004
  22972644.9824   11338005.16749   8834875.88445  22972644.8394   22972652.5214
       214.0004        162.0004
  20382077.7644  -23636670.71349 -18404382.87548  20382076.8724   20382082.5014
       247.0004        218.0004
  20824893.7774   -1787731.54449  -1384635.04847  20824892.9374   20824898.6284
       244.0004        206.0004
  22184552.0964  -14768911.66349 -11487146.23246  22184551.9244   22184557.5594
       231.0004        181.0004
  23552498.8124  -10125643.88249  -7604585.12745  23552498.3754   23552504.0444
       221.0004        156.0004
